<?xml version="1.0" encoding="UTF-8" standalone="no" ?>
<gpx xmlns="http://www.topografix.com/GPX/1/1" xmlns:xsi="http://www.w3.org/2001/XMLSchema-instance" xsi:schemaLocation="http://www.topografix.com/GPX/1/1 http://www.topografix.com/GPX/1/1/gpx.xsd" version="1.1" creator="VisuGPX - https://www.visugpx.com">
  <metadata>
    <name>Mini Raid des Jambes Raides - Malpasset</name>
    <desc><![CDATA[Mini raid organisé par Nico autour de l\'ancien barrage de Malpasset.

Au programme :
petit trail de mise en jambe (30 à 45 mn)
puis CO VTT pas trop technique   options (1h à 1h30)
enfin CO Trail dénivelée <400m (1h)

J\'ai couru avec Stéphane et on a gagné! Ouahou ;-)

Merci Nico!]]></desc>
  </metadata>
  <trk>
    <name><![CDATA[Mini Raid des Jambes Raides - Malpasset_1]]></name>
    <trkseg>
      <trkpt lat="43.50463" lon="6.75656">
        <ele>42</ele>
        <time>2011-03-20T10:24:43+01:00</time>
      </trkpt>
      <trkpt lat="43.50463" lon="6.75658">
        <ele>42</ele>
        <time>2011-03-20T10:24:44+01:00</time>
      </trkpt>
      <trkpt lat="43.50456" lon="6.7568">
        <ele>42</ele>
        <time>2011-03-20T10:24:49+01:00</time>
      </trkpt>
      <trkpt lat="43.50453" lon="6.75689">
        <ele>42</ele>
        <time>2011-03-20T10:24:51+01:00</time>
      </trkpt>
      <trkpt lat="43.50444" lon="6.75711">
        <ele>43</ele>
        <time>2011-03-20T10:24:56+01:00</time>
      </trkpt>
      <trkpt lat="43.50437" lon="6.75728">
        <ele>43</ele>
        <time>2011-03-20T10:25:00+01:00</time>
      </trkpt>
      <trkpt lat="43.50429" lon="6.75746">
        <ele>43</ele>
        <time>2011-03-20T10:25:04+01:00</time>
      </trkpt>
      <trkpt lat="43.50421" lon="6.75767">
        <ele>43</ele>
        <time>2011-03-20T10:25:09+01:00</time>
      </trkpt>
      <trkpt lat="43.50413" lon="6.75785">
        <ele>41</ele>
        <time>2011-03-20T10:25:13+01:00</time>
      </trkpt>
      <trkpt lat="43.50403" lon="6.75804">
        <ele>40</ele>
        <time>2011-03-20T10:25:19+01:00</time>
      </trkpt>
      <trkpt lat="43.50402" lon="6.75813">
        <ele>40</ele>
        <time>2011-03-20T10:25:23+01:00</time>
      </trkpt>
      <trkpt lat="43.50405" lon="6.75819">
        <ele>40</ele>
        <time>2011-03-20T10:25:25+01:00</time>
      </trkpt>
      <trkpt lat="43.50427" lon="6.75834">
        <ele>40</ele>
        <time>2011-03-20T10:25:31+01:00</time>
      </trkpt>
      <trkpt lat="43.50439" lon="6.75844">
        <ele>41</ele>
        <time>2011-03-20T10:25:36+01:00</time>
      </trkpt>
      <trkpt lat="43.50443" lon="6.75848">
        <ele>42</ele>
        <time>2011-03-20T10:25:38+01:00</time>
      </trkpt>
      <trkpt lat="43.50456" lon="6.75855">
        <ele>43</ele>
        <time>2011-03-20T10:25:43+01:00</time>
      </trkpt>
      <trkpt lat="43.50455" lon="6.75863">
        <ele>42</ele>
        <time>2011-03-20T10:25:45+01:00</time>
      </trkpt>
      <trkpt lat="43.50452" lon="6.75871">
        <ele>42</ele>
        <time>2011-03-20T10:25:47+01:00</time>
      </trkpt>
      <trkpt lat="43.50443" lon="6.7589">
        <ele>42</ele>
        <time>2011-03-20T10:25:53+01:00</time>
      </trkpt>
      <trkpt lat="43.50433" lon="6.75908">
        <ele>41</ele>
        <time>2011-03-20T10:25:59+01:00</time>
      </trkpt>
      <trkpt lat="43.50426" lon="6.75921">
        <ele>41</ele>
        <time>2011-03-20T10:26:03+01:00</time>
      </trkpt>
      <trkpt lat="43.50421" lon="6.75939">
        <ele>42</ele>
        <time>2011-03-20T10:26:08+01:00</time>
      </trkpt>
      <trkpt lat="43.50424" lon="6.75953">
        <ele>42</ele>
        <time>2011-03-20T10:26:12+01:00</time>
      </trkpt>
      <trkpt lat="43.50433" lon="6.75968">
        <ele>43</ele>
        <time>2011-03-20T10:26:18+01:00</time>
      </trkpt>
      <trkpt lat="43.50445" lon="6.75984">
        <ele>43</ele>
        <time>2011-03-20T10:26:25+01:00</time>
      </trkpt>
      <trkpt lat="43.50459" lon="6.75998">
        <ele>44</ele>
        <time>2011-03-20T10:26:32+01:00</time>
      </trkpt>
      <trkpt lat="43.50473" lon="6.76007">
        <ele>47</ele>
        <time>2011-03-20T10:26:38+01:00</time>
      </trkpt>
      <trkpt lat="43.50485" lon="6.76011">
        <ele>47</ele>
        <time>2011-03-20T10:26:43+01:00</time>
      </trkpt>
      <trkpt lat="43.50498" lon="6.76017">
        <ele>47</ele>
        <time>2011-03-20T10:26:49+01:00</time>
      </trkpt>
      <trkpt lat="43.50509" lon="6.76025">
        <ele>48</ele>
        <time>2011-03-20T10:26:55+01:00</time>
      </trkpt>
      <trkpt lat="43.50517" lon="6.76035">
        <ele>48</ele>
        <time>2011-03-20T10:27:00+01:00</time>
      </trkpt>
      <trkpt lat="43.50523" lon="6.76054">
        <ele>49</ele>
        <time>2011-03-20T10:27:07+01:00</time>
      </trkpt>
      <trkpt lat="43.50527" lon="6.76065">
        <ele>49</ele>
        <time>2011-03-20T10:27:11+01:00</time>
      </trkpt>
      <trkpt lat="43.5053" lon="6.7608">
        <ele>49</ele>
        <time>2011-03-20T10:27:16+01:00</time>
      </trkpt>
      <trkpt lat="43.50536" lon="6.76099">
        <ele>51</ele>
        <time>2011-03-20T10:27:22+01:00</time>
      </trkpt>
      <trkpt lat="43.50541" lon="6.76119">
        <ele>51</ele>
        <time>2011-03-20T10:27:28+01:00</time>
      </trkpt>
      <trkpt lat="43.50544" lon="6.7614">
        <ele>52</ele>
        <time>2011-03-20T10:27:34+01:00</time>
      </trkpt>
      <trkpt lat="43.50548" lon="6.76162">
        <ele>52</ele>
        <time>2011-03-20T10:27:40+01:00</time>
      </trkpt>
      <trkpt lat="43.50552" lon="6.76179">
        <ele>55</ele>
        <time>2011-03-20T10:27:45+01:00</time>
      </trkpt>
      <trkpt lat="43.5056" lon="6.76197">
        <ele>55</ele>
        <time>2011-03-20T10:27:51+01:00</time>
      </trkpt>
      <trkpt lat="43.50566" lon="6.76212">
        <ele>56</ele>
        <time>2011-03-20T10:27:56+01:00</time>
      </trkpt>
      <trkpt lat="43.50573" lon="6.76222">
        <ele>57</ele>
        <time>2011-03-20T10:28:00+01:00</time>
      </trkpt>
      <trkpt lat="43.50582" lon="6.76234">
        <ele>58</ele>
        <time>2011-03-20T10:28:05+01:00</time>
      </trkpt>
      <trkpt lat="43.50584" lon="6.76237">
        <ele>58</ele>
        <time>2011-03-20T10:28:06+01:00</time>
      </trkpt>
      <trkpt lat="43.50595" lon="6.76252">
        <ele>61</ele>
        <time>2011-03-20T10:28:12+01:00</time>
      </trkpt>
      <trkpt lat="43.50599" lon="6.76261">
        <ele>61</ele>
        <time>2011-03-20T10:28:15+01:00</time>
      </trkpt>
      <trkpt lat="43.50601" lon="6.76278">
        <ele>61</ele>
        <time>2011-03-20T10:28:20+01:00</time>
      </trkpt>
      <trkpt lat="43.50601" lon="6.76295">
        <ele>62</ele>
        <time>2011-03-20T10:28:26+01:00</time>
      </trkpt>
      <trkpt lat="43.50601" lon="6.76298">
        <ele>62</ele>
        <time>2011-03-20T10:28:27+01:00</time>
      </trkpt>
      <trkpt lat="43.50601" lon="6.76318">
        <ele>62</ele>
        <time>2011-03-20T10:28:33+01:00</time>
      </trkpt>
      <trkpt lat="43.50602" lon="6.76333">
        <ele>63</ele>
        <time>2011-03-20T10:28:38+01:00</time>
      </trkpt>
      <trkpt lat="43.50606" lon="6.76343">
        <ele>63</ele>
        <time>2011-03-20T10:28:42+01:00</time>
      </trkpt>
      <trkpt lat="43.50616" lon="6.76354">
        <ele>62</ele>
        <time>2011-03-20T10:28:48+01:00</time>
      </trkpt>
      <trkpt lat="43.5063" lon="6.76362">
        <ele>62</ele>
        <time>2011-03-20T10:28:54+01:00</time>
      </trkpt>
      <trkpt lat="43.5064" lon="6.76364">
        <ele>62</ele>
        <time>2011-03-20T10:28:59+01:00</time>
      </trkpt>
      <trkpt lat="43.50651" lon="6.76367">
        <ele>63</ele>
        <time>2011-03-20T10:29:03+01:00</time>
      </trkpt>
      <trkpt lat="43.50667" lon="6.76373">
        <ele>63</ele>
        <time>2011-03-20T10:29:09+01:00</time>
      </trkpt>
      <trkpt lat="43.50677" lon="6.7638">
        <ele>63</ele>
        <time>2011-03-20T10:29:14+01:00</time>
      </trkpt>
      <trkpt lat="43.50692" lon="6.76387">
        <ele>63</ele>
        <time>2011-03-20T10:29:20+01:00</time>
      </trkpt>
      <trkpt lat="43.50707" lon="6.76395">
        <ele>63</ele>
        <time>2011-03-20T10:29:26+01:00</time>
      </trkpt>
      <trkpt lat="43.50715" lon="6.76401">
        <ele>63</ele>
        <time>2011-03-20T10:29:30+01:00</time>
      </trkpt>
      <trkpt lat="43.50724" lon="6.76407">
        <ele>64</ele>
        <time>2011-03-20T10:29:35+01:00</time>
      </trkpt>
      <trkpt lat="43.50735" lon="6.76415">
        <ele>65</ele>
        <time>2011-03-20T10:29:40+01:00</time>
      </trkpt>
      <trkpt lat="43.50744" lon="6.76422">
        <ele>67</ele>
        <time>2011-03-20T10:29:44+01:00</time>
      </trkpt>
      <trkpt lat="43.50751" lon="6.76431">
        <ele>67</ele>
        <time>2011-03-20T10:29:48+01:00</time>
      </trkpt>
      <trkpt lat="43.50759" lon="6.76443">
        <ele>67</ele>
        <time>2011-03-20T10:29:53+01:00</time>
      </trkpt>
      <trkpt lat="43.50768" lon="6.76455">
        <ele>67</ele>
        <time>2011-03-20T10:29:58+01:00</time>
      </trkpt>
      <trkpt lat="43.50779" lon="6.76467">
        <ele>67</ele>
        <time>2011-03-20T10:30:03+01:00</time>
      </trkpt>
      <trkpt lat="43.50784" lon="6.76484">
        <ele>67</ele>
        <time>2011-03-20T10:30:08+01:00</time>
      </trkpt>
      <trkpt lat="43.50785" lon="6.76503">
        <ele>68</ele>
        <time>2011-03-20T10:30:13+01:00</time>
      </trkpt>
      <trkpt lat="43.50788" lon="6.76522">
        <ele>68</ele>
        <time>2011-03-20T10:30:18+01:00</time>
      </trkpt>
      <trkpt lat="43.50793" lon="6.76538">
        <ele>67</ele>
        <time>2011-03-20T10:30:23+01:00</time>
      </trkpt>
      <trkpt lat="43.50801" lon="6.76553">
        <ele>67</ele>
        <time>2011-03-20T10:30:28+01:00</time>
      </trkpt>
      <trkpt lat="43.50809" lon="6.7657">
        <ele>67</ele>
        <time>2011-03-20T10:30:33+01:00</time>
      </trkpt>
      <trkpt lat="43.50812" lon="6.76584">
        <ele>66</ele>
        <time>2011-03-20T10:30:37+01:00</time>
      </trkpt>
      <trkpt lat="43.50813" lon="6.76602">
        <ele>65</ele>
        <time>2011-03-20T10:30:41+01:00</time>
      </trkpt>
      <trkpt lat="43.50812" lon="6.76622">
        <ele>65</ele>
        <time>2011-03-20T10:30:46+01:00</time>
      </trkpt>
      <trkpt lat="43.50811" lon="6.7664">
        <ele>65</ele>
        <time>2011-03-20T10:30:51+01:00</time>
      </trkpt>
      <trkpt lat="43.50807" lon="6.76658">
        <ele>66</ele>
        <time>2011-03-20T10:30:56+01:00</time>
      </trkpt>
      <trkpt lat="43.508" lon="6.76675">
        <ele>68</ele>
        <time>2011-03-20T10:31:01+01:00</time>
      </trkpt>
      <trkpt lat="43.50789" lon="6.76685">
        <ele>68</ele>
        <time>2011-03-20T10:31:06+01:00</time>
      </trkpt>
      <trkpt lat="43.50778" lon="6.76686">
        <ele>68</ele>
        <time>2011-03-20T10:31:10+01:00</time>
      </trkpt>
      <trkpt lat="43.50764" lon="6.76688">
        <ele>68</ele>
        <time>2011-03-20T10:31:15+01:00</time>
      </trkpt>
      <trkpt lat="43.50754" lon="6.76693">
        <ele>68</ele>
        <time>2011-03-20T10:31:20+01:00</time>
      </trkpt>
      <trkpt lat="43.50749" lon="6.76695">
        <ele>67</ele>
        <time>2011-03-20T10:31:22+01:00</time>
      </trkpt>
      <trkpt lat="43.50738" lon="6.76692">
        <ele>67</ele>
        <time>2011-03-20T10:31:26+01:00</time>
      </trkpt>
      <trkpt lat="43.50722" lon="6.76676">
        <ele>66</ele>
        <time>2011-03-20T10:31:33+01:00</time>
      </trkpt>
      <trkpt lat="43.50709" lon="6.76675">
        <ele>66</ele>
        <time>2011-03-20T10:31:38+01:00</time>
      </trkpt>
      <trkpt lat="43.507" lon="6.76678">
        <ele>66</ele>
        <time>2011-03-20T10:31:42+01:00</time>
      </trkpt>
      <trkpt lat="43.50691" lon="6.76679">
        <ele>66</ele>
        <time>2011-03-20T10:31:45+01:00</time>
      </trkpt>
      <trkpt lat="43.50686" lon="6.76674">
        <ele>65</ele>
        <time>2011-03-20T10:31:48+01:00</time>
      </trkpt>
      <trkpt lat="43.50685" lon="6.76674">
        <ele>65</ele>
        <time>2011-03-20T10:31:52+01:00</time>
      </trkpt>
      <trkpt lat="43.50684" lon="6.76671">
        <ele>65</ele>
        <time>2011-03-20T10:31:56+01:00</time>
      </trkpt>
      <trkpt lat="43.5068" lon="6.7666">
        <ele>63</ele>
        <time>2011-03-20T10:32:01+01:00</time>
      </trkpt>
      <trkpt lat="43.50678" lon="6.76659">
        <ele>63</ele>
        <time>2011-03-20T10:32:02+01:00</time>
      </trkpt>
      <trkpt lat="43.50666" lon="6.76656">
        <ele>62</ele>
        <time>2011-03-20T10:32:08+01:00</time>
      </trkpt>
      <trkpt lat="43.50658" lon="6.76655">
        <ele>62</ele>
        <time>2011-03-20T10:32:12+01:00</time>
      </trkpt>
      <trkpt lat="43.50649" lon="6.76659">
        <ele>61</ele>
        <time>2011-03-20T10:32:16+01:00</time>
      </trkpt>
      <trkpt lat="43.50642" lon="6.76659">
        <ele>61</ele>
        <time>2011-03-20T10:32:19+01:00</time>
      </trkpt>
      <trkpt lat="43.50636" lon="6.76659">
        <ele>61</ele>
        <time>2011-03-20T10:32:22+01:00</time>
      </trkpt>
      <trkpt lat="43.50629" lon="6.76664">
        <ele>61</ele>
        <time>2011-03-20T10:32:26+01:00</time>
      </trkpt>
      <trkpt lat="43.50627" lon="6.76664">
        <ele>60</ele>
        <time>2011-03-20T10:32:30+01:00</time>
      </trkpt>
      <trkpt lat="43.5063" lon="6.76664">
        <ele>61</ele>
        <time>2011-03-20T10:32:33+01:00</time>
      </trkpt>
      <trkpt lat="43.50637" lon="6.76657">
        <ele>61</ele>
        <time>2011-03-20T10:32:37+01:00</time>
      </trkpt>
      <trkpt lat="43.50642" lon="6.76667">
        <ele>63</ele>
        <time>2011-03-20T10:32:41+01:00</time>
      </trkpt>
      <trkpt lat="43.50643" lon="6.76677">
        <ele>63</ele>
        <time>2011-03-20T10:32:44+01:00</time>
      </trkpt>
      <trkpt lat="43.50634" lon="6.76684">
        <ele>63</ele>
        <time>2011-03-20T10:32:49+01:00</time>
      </trkpt>
      <trkpt lat="43.50629" lon="6.7669">
        <ele>63</ele>
        <time>2011-03-20T10:32:52+01:00</time>
      </trkpt>
      <trkpt lat="43.5063" lon="6.767">
        <ele>64</ele>
        <time>2011-03-20T10:32:57+01:00</time>
      </trkpt>
      <trkpt lat="43.50631" lon="6.76705">
        <ele>64</ele>
        <time>2011-03-20T10:32:59+01:00</time>
      </trkpt>
      <trkpt lat="43.50632" lon="6.76719">
        <ele>64</ele>
        <time>2011-03-20T10:33:04+01:00</time>
      </trkpt>
      <trkpt lat="43.50633" lon="6.76724">
        <ele>64</ele>
        <time>2011-03-20T10:33:06+01:00</time>
      </trkpt>
      <trkpt lat="43.5063" lon="6.76737">
        <ele>65</ele>
        <time>2011-03-20T10:33:12+01:00</time>
      </trkpt>
      <trkpt lat="43.50628" lon="6.7675">
        <ele>65</ele>
        <time>2011-03-20T10:33:16+01:00</time>
      </trkpt>
      <trkpt lat="43.50623" lon="6.76764">
        <ele>68</ele>
        <time>2011-03-20T10:33:20+01:00</time>
      </trkpt>
      <trkpt lat="43.5062" lon="6.76779">
        <ele>68</ele>
        <time>2011-03-20T10:33:26+01:00</time>
      </trkpt>
      <trkpt lat="43.50622" lon="6.76783">
        <ele>68</ele>
        <time>2011-03-20T10:33:28+01:00</time>
      </trkpt>
      <trkpt lat="43.50625" lon="6.76794">
        <ele>69</ele>
        <time>2011-03-20T10:33:32+01:00</time>
      </trkpt>
      <trkpt lat="43.50631" lon="6.76802">
        <ele>69</ele>
        <time>2011-03-20T10:33:37+01:00</time>
      </trkpt>
      <trkpt lat="43.50636" lon="6.76806">
        <ele>69</ele>
        <time>2011-03-20T10:33:40+01:00</time>
      </trkpt>
      <trkpt lat="43.50636" lon="6.76815">
        <ele>70</ele>
        <time>2011-03-20T10:33:43+01:00</time>
      </trkpt>
      <trkpt lat="43.50637" lon="6.76818">
        <ele>70</ele>
        <time>2011-03-20T10:33:45+01:00</time>
      </trkpt>
      <trkpt lat="43.50646" lon="6.76828">
        <ele>71</ele>
        <time>2011-03-20T10:33:50+01:00</time>
      </trkpt>
      <trkpt lat="43.5066" lon="6.7684">
        <ele>73</ele>
        <time>2011-03-20T10:33:56+01:00</time>
      </trkpt>
      <trkpt lat="43.50666" lon="6.76848">
        <ele>73</ele>
        <time>2011-03-20T10:34:00+01:00</time>
      </trkpt>
      <trkpt lat="43.50667" lon="6.76851">
        <ele>75</ele>
        <time>2011-03-20T10:34:01+01:00</time>
      </trkpt>
      <trkpt lat="43.50674" lon="6.7686">
        <ele>76</ele>
        <time>2011-03-20T10:34:05+01:00</time>
      </trkpt>
      <trkpt lat="43.5068" lon="6.76877">
        <ele>77</ele>
        <time>2011-03-20T10:34:11+01:00</time>
      </trkpt>
      <trkpt lat="43.50685" lon="6.76894">
        <ele>78</ele>
        <time>2011-03-20T10:34:17+01:00</time>
      </trkpt>
      <trkpt lat="43.50685" lon="6.76895">
        <ele>78</ele>
        <time>2011-03-20T10:34:18+01:00</time>
      </trkpt>
      <trkpt lat="43.50687" lon="6.76905">
        <ele>78</ele>
        <time>2011-03-20T10:34:25+01:00</time>
      </trkpt>
      <trkpt lat="43.50685" lon="6.7692">
        <ele>81</ele>
        <time>2011-03-20T10:34:30+01:00</time>
      </trkpt>
      <trkpt lat="43.50683" lon="6.76931">
        <ele>82</ele>
        <time>2011-03-20T10:34:33+01:00</time>
      </trkpt>
      <trkpt lat="43.50677" lon="6.76943">
        <ele>83</ele>
        <time>2011-03-20T10:34:37+01:00</time>
      </trkpt>
      <trkpt lat="43.50677" lon="6.76948">
        <ele>83</ele>
        <time>2011-03-20T10:34:38+01:00</time>
      </trkpt>
      <trkpt lat="43.50673" lon="6.76964">
        <ele>84</ele>
        <time>2011-03-20T10:34:42+01:00</time>
      </trkpt>
      <trkpt lat="43.50665" lon="6.76983">
        <ele>84</ele>
        <time>2011-03-20T10:34:47+01:00</time>
      </trkpt>
      <trkpt lat="43.50655" lon="6.76995">
        <ele>84</ele>
        <time>2011-03-20T10:34:51+01:00</time>
      </trkpt>
      <trkpt lat="43.50644" lon="6.76987">
        <ele>83</ele>
        <time>2011-03-20T10:34:55+01:00</time>
      </trkpt>
      <trkpt lat="43.50638" lon="6.76969">
        <ele>82</ele>
        <time>2011-03-20T10:35:00+01:00</time>
      </trkpt>
      <trkpt lat="43.50635" lon="6.76962">
        <ele>82</ele>
        <time>2011-03-20T10:35:02+01:00</time>
      </trkpt>
      <trkpt lat="43.50625" lon="6.76946">
        <ele>81</ele>
        <time>2011-03-20T10:35:08+01:00</time>
      </trkpt>
      <trkpt lat="43.50622" lon="6.76943">
        <ele>81</ele>
        <time>2011-03-20T10:35:09+01:00</time>
      </trkpt>
      <trkpt lat="43.50608" lon="6.76941">
        <ele>80</ele>
        <time>2011-03-20T10:35:14+01:00</time>
      </trkpt>
      <trkpt lat="43.50603" lon="6.76942">
        <ele>80</ele>
        <time>2011-03-20T10:35:16+01:00</time>
      </trkpt>
      <trkpt lat="43.50586" lon="6.76947">
        <ele>80</ele>
        <time>2011-03-20T10:35:21+01:00</time>
      </trkpt>
      <trkpt lat="43.50571" lon="6.7695">
        <ele>78</ele>
        <time>2011-03-20T10:35:26+01:00</time>
      </trkpt>
      <trkpt lat="43.5056" lon="6.7695">
        <ele>78</ele>
        <time>2011-03-20T10:35:30+01:00</time>
      </trkpt>
      <trkpt lat="43.50553" lon="6.76945">
        <ele>77</ele>
        <time>2011-03-20T10:35:33+01:00</time>
      </trkpt>
      <trkpt lat="43.50549" lon="6.7692">
        <ele>76</ele>
        <time>2011-03-20T10:35:39+01:00</time>
      </trkpt>
      <trkpt lat="43.50545" lon="6.76887">
        <ele>70</ele>
        <time>2011-03-20T10:35:46+01:00</time>
      </trkpt>
      <trkpt lat="43.50537" lon="6.76856">
        <ele>69</ele>
        <time>2011-03-20T10:35:53+01:00</time>
      </trkpt>
      <trkpt lat="43.50529" lon="6.7683">
        <ele>65</ele>
        <time>2011-03-20T10:35:59+01:00</time>
      </trkpt>
      <trkpt lat="43.50523" lon="6.76809">
        <ele>64</ele>
        <time>2011-03-20T10:36:04+01:00</time>
      </trkpt>
      <trkpt lat="43.50518" lon="6.76786">
        <ele>64</ele>
        <time>2011-03-20T10:36:09+01:00</time>
      </trkpt>
      <trkpt lat="43.50513" lon="6.76768">
        <ele>62</ele>
        <time>2011-03-20T10:36:13+01:00</time>
      </trkpt>
      <trkpt lat="43.50512" lon="6.76762">
        <ele>62</ele>
        <time>2011-03-20T10:36:14+01:00</time>
      </trkpt>
      <trkpt lat="43.50514" lon="6.7674">
        <ele>60</ele>
        <time>2011-03-20T10:36:19+01:00</time>
      </trkpt>
      <trkpt lat="43.50515" lon="6.76735">
        <ele>60</ele>
        <time>2011-03-20T10:36:20+01:00</time>
      </trkpt>
      <trkpt lat="43.50515" lon="6.76708">
        <ele>60</ele>
        <time>2011-03-20T10:36:26+01:00</time>
      </trkpt>
      <trkpt lat="43.50509" lon="6.76681">
        <ele>58</ele>
        <time>2011-03-20T10:36:32+01:00</time>
      </trkpt>
      <trkpt lat="43.50496" lon="6.76662">
        <ele>57</ele>
        <time>2011-03-20T10:36:38+01:00</time>
      </trkpt>
      <trkpt lat="43.50487" lon="6.76658">
        <ele>57</ele>
        <time>2011-03-20T10:36:41+01:00</time>
      </trkpt>
      <trkpt lat="43.50481" lon="6.7666">
        <ele>57</ele>
        <time>2011-03-20T10:36:43+01:00</time>
      </trkpt>
      <trkpt lat="43.50474" lon="6.76678">
        <ele>59</ele>
        <time>2011-03-20T10:36:48+01:00</time>
      </trkpt>
      <trkpt lat="43.50477" lon="6.76696">
        <ele>60</ele>
        <time>2011-03-20T10:36:52+01:00</time>
      </trkpt>
      <trkpt lat="43.50479" lon="6.76705">
        <ele>60</ele>
        <time>2011-03-20T10:36:54+01:00</time>
      </trkpt>
      <trkpt lat="43.50478" lon="6.76721">
        <ele>60</ele>
        <time>2011-03-20T10:36:57+01:00</time>
      </trkpt>
      <trkpt lat="43.50468" lon="6.76726">
        <ele>60</ele>
        <time>2011-03-20T10:37:01+01:00</time>
      </trkpt>
      <trkpt lat="43.50465" lon="6.76726">
        <ele>61</ele>
        <time>2011-03-20T10:37:02+01:00</time>
      </trkpt>
      <trkpt lat="43.50456" lon="6.76732">
        <ele>61</ele>
        <time>2011-03-20T10:37:07+01:00</time>
      </trkpt>
      <trkpt lat="43.50455" lon="6.76736">
        <ele>61</ele>
        <time>2011-03-20T10:37:09+01:00</time>
      </trkpt>
      <trkpt lat="43.50453" lon="6.76754">
        <ele>64</ele>
        <time>2011-03-20T10:37:17+01:00</time>
      </trkpt>
      <trkpt lat="43.50453" lon="6.76767">
        <ele>64</ele>
        <time>2011-03-20T10:37:23+01:00</time>
      </trkpt>
      <trkpt lat="43.50452" lon="6.76781">
        <ele>64</ele>
        <time>2011-03-20T10:37:29+01:00</time>
      </trkpt>
      <trkpt lat="43.50449" lon="6.76802">
        <ele>64</ele>
        <time>2011-03-20T10:37:38+01:00</time>
      </trkpt>
      <trkpt lat="43.50447" lon="6.76811">
        <ele>64</ele>
        <time>2011-03-20T10:37:42+01:00</time>
      </trkpt>
      <trkpt lat="43.50445" lon="6.7682">
        <ele>65</ele>
        <time>2011-03-20T10:37:46+01:00</time>
      </trkpt>
      <trkpt lat="43.50444" lon="6.76824">
        <ele>65</ele>
        <time>2011-03-20T10:37:48+01:00</time>
      </trkpt>
      <trkpt lat="43.5044" lon="6.76843">
        <ele>67</ele>
        <time>2011-03-20T10:37:56+01:00</time>
      </trkpt>
      <trkpt lat="43.50437" lon="6.76858">
        <ele>68</ele>
        <time>2011-03-20T10:38:02+01:00</time>
      </trkpt>
      <trkpt lat="43.50434" lon="6.76877">
        <ele>69</ele>
        <time>2011-03-20T10:38:09+01:00</time>
      </trkpt>
      <trkpt lat="43.50427" lon="6.76896">
        <ele>70</ele>
        <time>2011-03-20T10:38:17+01:00</time>
      </trkpt>
      <trkpt lat="43.50418" lon="6.76913">
        <ele>71</ele>
        <time>2011-03-20T10:38:23+01:00</time>
      </trkpt>
      <trkpt lat="43.50406" lon="6.76931">
        <ele>75</ele>
        <time>2011-03-20T10:38:29+01:00</time>
      </trkpt>
      <trkpt lat="43.50392" lon="6.76946">
        <ele>77</ele>
        <time>2011-03-20T10:38:35+01:00</time>
      </trkpt>
      <trkpt lat="43.50373" lon="6.76954">
        <ele>77</ele>
        <time>2011-03-20T10:38:41+01:00</time>
      </trkpt>
      <trkpt lat="43.50357" lon="6.76948">
        <ele>77</ele>
        <time>2011-03-20T10:38:47+01:00</time>
      </trkpt>
      <trkpt lat="43.50348" lon="6.76945">
        <ele>77</ele>
        <time>2011-03-20T10:38:52+01:00</time>
      </trkpt>
      <trkpt lat="43.5034" lon="6.76948">
        <ele>77</ele>
        <time>2011-03-20T10:38:57+01:00</time>
      </trkpt>
      <trkpt lat="43.50338" lon="6.76949">
        <ele>77</ele>
        <time>2011-03-20T10:38:59+01:00</time>
      </trkpt>
      <trkpt lat="43.50328" lon="6.76957">
        <ele>81</ele>
        <time>2011-03-20T10:39:06+01:00</time>
      </trkpt>
      <trkpt lat="43.50327" lon="6.76958">
        <ele>81</ele>
        <time>2011-03-20T10:39:07+01:00</time>
      </trkpt>
      <trkpt lat="43.50322" lon="6.76964">
        <ele>81</ele>
        <time>2011-03-20T10:39:11+01:00</time>
      </trkpt>
      <trkpt lat="43.50311" lon="6.76972">
        <ele>82</ele>
        <time>2011-03-20T10:39:18+01:00</time>
      </trkpt>
      <trkpt lat="43.50307" lon="6.76974">
        <ele>82</ele>
        <time>2011-03-20T10:39:21+01:00</time>
      </trkpt>
      <trkpt lat="43.50298" lon="6.76979">
        <ele>82</ele>
        <time>2011-03-20T10:39:27+01:00</time>
      </trkpt>
      <trkpt lat="43.50288" lon="6.76984">
        <ele>83</ele>
        <time>2011-03-20T10:39:33+01:00</time>
      </trkpt>
      <trkpt lat="43.50279" lon="6.76987">
        <ele>84</ele>
        <time>2011-03-20T10:39:39+01:00</time>
      </trkpt>
      <trkpt lat="43.50268" lon="6.76989">
        <ele>85</ele>
        <time>2011-03-20T10:39:46+01:00</time>
      </trkpt>
      <trkpt lat="43.50252" lon="6.76991">
        <ele>86</ele>
        <time>2011-03-20T10:39:54+01:00</time>
      </trkpt>
      <trkpt lat="43.50241" lon="6.76988">
        <ele>87</ele>
        <time>2011-03-20T10:39:58+01:00</time>
      </trkpt>
      <trkpt lat="43.5023" lon="6.76975">
        <ele>87</ele>
        <time>2011-03-20T10:40:03+01:00</time>
      </trkpt>
      <trkpt lat="43.50221" lon="6.76955">
        <ele>86</ele>
        <time>2011-03-20T10:40:09+01:00</time>
      </trkpt>
      <trkpt lat="43.50216" lon="6.76937">
        <ele>86</ele>
        <time>2011-03-20T10:40:14+01:00</time>
      </trkpt>
      <trkpt lat="43.50217" lon="6.76916">
        <ele>85</ele>
        <time>2011-03-20T10:40:19+01:00</time>
      </trkpt>
      <trkpt lat="43.50219" lon="6.76898">
        <ele>85</ele>
        <time>2011-03-20T10:40:24+01:00</time>
      </trkpt>
      <trkpt lat="43.5022" lon="6.76877">
        <ele>85</ele>
        <time>2011-03-20T10:40:30+01:00</time>
      </trkpt>
      <trkpt lat="43.50219" lon="6.76863">
        <ele>85</ele>
        <time>2011-03-20T10:40:34+01:00</time>
      </trkpt>
      <trkpt lat="43.50216" lon="6.76846">
        <ele>86</ele>
        <time>2011-03-20T10:40:38+01:00</time>
      </trkpt>
      <trkpt lat="43.50215" lon="6.76824">
        <ele>87</ele>
        <time>2011-03-20T10:40:44+01:00</time>
      </trkpt>
      <trkpt lat="43.50209" lon="6.76808">
        <ele>87</ele>
        <time>2011-03-20T10:40:49+01:00</time>
      </trkpt>
      <trkpt lat="43.50199" lon="6.76797">
        <ele>87</ele>
        <time>2011-03-20T10:40:54+01:00</time>
      </trkpt>
      <trkpt lat="43.50188" lon="6.7678">
        <ele>88</ele>
        <time>2011-03-20T10:41:00+01:00</time>
      </trkpt>
      <trkpt lat="43.50182" lon="6.76766">
        <ele>89</ele>
        <time>2011-03-20T10:41:05+01:00</time>
      </trkpt>
      <trkpt lat="43.50178" lon="6.76751">
        <ele>90</ele>
        <time>2011-03-20T10:41:10+01:00</time>
      </trkpt>
      <trkpt lat="43.50171" lon="6.76738">
        <ele>90</ele>
        <time>2011-03-20T10:41:15+01:00</time>
      </trkpt>
      <trkpt lat="43.50166" lon="6.76712">
        <ele>89</ele>
        <time>2011-03-20T10:41:22+01:00</time>
      </trkpt>
      <trkpt lat="43.50159" lon="6.76698">
        <ele>90</ele>
        <time>2011-03-20T10:41:26+01:00</time>
      </trkpt>
      <trkpt lat="43.50156" lon="6.76691">
        <ele>90</ele>
        <time>2011-03-20T10:41:28+01:00</time>
      </trkpt>
      <trkpt lat="43.50151" lon="6.76673">
        <ele>90</ele>
        <time>2011-03-20T10:41:33+01:00</time>
      </trkpt>
      <trkpt lat="43.50149" lon="6.76669">
        <ele>90</ele>
        <time>2011-03-20T10:41:34+01:00</time>
      </trkpt>
      <trkpt lat="43.50141" lon="6.76651">
        <ele>91</ele>
        <time>2011-03-20T10:41:40+01:00</time>
      </trkpt>
      <trkpt lat="43.50137" lon="6.76636">
        <ele>91</ele>
        <time>2011-03-20T10:41:45+01:00</time>
      </trkpt>
      <trkpt lat="43.50136" lon="6.76622">
        <ele>91</ele>
        <time>2011-03-20T10:41:49+01:00</time>
      </trkpt>
      <trkpt lat="43.50136" lon="6.76605">
        <ele>92</ele>
        <time>2011-03-20T10:41:54+01:00</time>
      </trkpt>
      <trkpt lat="43.50134" lon="6.76591">
        <ele>92</ele>
        <time>2011-03-20T10:41:59+01:00</time>
      </trkpt>
      <trkpt lat="43.50133" lon="6.76587">
        <ele>92</ele>
        <time>2011-03-20T10:42:00+01:00</time>
      </trkpt>
      <trkpt lat="43.50124" lon="6.76566">
        <ele>94</ele>
        <time>2011-03-20T10:42:07+01:00</time>
      </trkpt>
      <trkpt lat="43.50119" lon="6.76556">
        <ele>94</ele>
        <time>2011-03-20T10:42:11+01:00</time>
      </trkpt>
      <trkpt lat="43.5011" lon="6.76537">
        <ele>94</ele>
        <time>2011-03-20T10:42:18+01:00</time>
      </trkpt>
      <trkpt lat="43.50108" lon="6.76519">
        <ele>95</ele>
        <time>2011-03-20T10:42:23+01:00</time>
      </trkpt>
      <trkpt lat="43.50106" lon="6.76504">
        <ele>95</ele>
        <time>2011-03-20T10:42:28+01:00</time>
      </trkpt>
      <trkpt lat="43.50099" lon="6.76486">
        <ele>96</ele>
        <time>2011-03-20T10:42:34+01:00</time>
      </trkpt>
      <trkpt lat="43.50097" lon="6.76469">
        <ele>96</ele>
        <time>2011-03-20T10:42:39+01:00</time>
      </trkpt>
      <trkpt lat="43.50093" lon="6.76456">
        <ele>96</ele>
        <time>2011-03-20T10:42:43+01:00</time>
      </trkpt>
      <trkpt lat="43.50088" lon="6.76432">
        <ele>97</ele>
        <time>2011-03-20T10:42:50+01:00</time>
      </trkpt>
      <trkpt lat="43.50087" lon="6.76428">
        <ele>98</ele>
        <time>2011-03-20T10:42:51+01:00</time>
      </trkpt>
      <trkpt lat="43.50077" lon="6.76418">
        <ele>98</ele>
        <time>2011-03-20T10:42:56+01:00</time>
      </trkpt>
      <trkpt lat="43.50068" lon="6.76401">
        <ele>95</ele>
        <time>2011-03-20T10:43:01+01:00</time>
      </trkpt>
      <trkpt lat="43.50067" lon="6.76394">
        <ele>94</ele>
        <time>2011-03-20T10:43:05+01:00</time>
      </trkpt>
      <trkpt lat="43.50065" lon="6.76394">
        <ele>94</ele>
        <time>2011-03-20T10:43:12+01:00</time>
      </trkpt>
      <trkpt lat="43.50065" lon="6.76385">
        <ele>94</ele>
        <time>2011-03-20T10:43:17+01:00</time>
      </trkpt>
      <trkpt lat="43.50069" lon="6.76368">
        <ele>93</ele>
        <time>2011-03-20T10:43:23+01:00</time>
      </trkpt>
      <trkpt lat="43.50073" lon="6.76351">
        <ele>94</ele>
        <time>2011-03-20T10:43:27+01:00</time>
      </trkpt>
      <trkpt lat="43.50069" lon="6.76339">
        <ele>94</ele>
        <time>2011-03-20T10:43:30+01:00</time>
      </trkpt>
      <trkpt lat="43.50061" lon="6.76326">
        <ele>91</ele>
        <time>2011-03-20T10:43:34+01:00</time>
      </trkpt>
      <trkpt lat="43.5006" lon="6.76321">
        <ele>90</ele>
        <time>2011-03-20T10:43:35+01:00</time>
      </trkpt>
      <trkpt lat="43.50055" lon="6.76296">
        <ele>88</ele>
        <time>2011-03-20T10:43:41+01:00</time>
      </trkpt>
      <trkpt lat="43.50049" lon="6.76279">
        <ele>87</ele>
        <time>2011-03-20T10:43:45+01:00</time>
      </trkpt>
      <trkpt lat="43.50041" lon="6.76259">
        <ele>86</ele>
        <time>2011-03-20T10:43:50+01:00</time>
      </trkpt>
      <trkpt lat="43.50043" lon="6.7624">
        <ele>83</ele>
        <time>2011-03-20T10:43:54+01:00</time>
      </trkpt>
      <trkpt lat="43.50043" lon="6.76217">
        <ele>82</ele>
        <time>2011-03-20T10:43:59+01:00</time>
      </trkpt>
      <trkpt lat="43.50045" lon="6.76195">
        <ele>81</ele>
        <time>2011-03-20T10:44:04+01:00</time>
      </trkpt>
      <trkpt lat="43.50038" lon="6.76181">
        <ele>80</ele>
        <time>2011-03-20T10:44:08+01:00</time>
      </trkpt>
      <trkpt lat="43.5003" lon="6.76151">
        <ele>77</ele>
        <time>2011-03-20T10:44:15+01:00</time>
      </trkpt>
      <trkpt lat="43.50027" lon="6.76143">
        <ele>77</ele>
        <time>2011-03-20T10:44:17+01:00</time>
      </trkpt>
      <trkpt lat="43.50034" lon="6.7613">
        <ele>76</ele>
        <time>2011-03-20T10:44:22+01:00</time>
      </trkpt>
      <trkpt lat="43.5004" lon="6.76132">
        <ele>76</ele>
        <time>2011-03-20T10:44:24+01:00</time>
      </trkpt>
      <trkpt lat="43.50051" lon="6.76135">
        <ele>77</ele>
        <time>2011-03-20T10:44:28+01:00</time>
      </trkpt>
      <trkpt lat="43.50061" lon="6.76126">
        <ele>76</ele>
        <time>2011-03-20T10:44:33+01:00</time>
      </trkpt>
      <trkpt lat="43.50062" lon="6.76122">
        <ele>76</ele>
        <time>2011-03-20T10:44:34+01:00</time>
      </trkpt>
      <trkpt lat="43.50067" lon="6.76103">
        <ele>76</ele>
        <time>2011-03-20T10:44:39+01:00</time>
      </trkpt>
      <trkpt lat="43.50075" lon="6.76091">
        <ele>75</ele>
        <time>2011-03-20T10:44:43+01:00</time>
      </trkpt>
      <trkpt lat="43.50081" lon="6.76074">
        <ele>73</ele>
        <time>2011-03-20T10:44:48+01:00</time>
      </trkpt>
      <trkpt lat="43.50086" lon="6.76055">
        <ele>68</ele>
        <time>2011-03-20T10:44:53+01:00</time>
      </trkpt>
      <trkpt lat="43.50095" lon="6.76043">
        <ele>66</ele>
        <time>2011-03-20T10:44:58+01:00</time>
      </trkpt>
      <trkpt lat="43.50102" lon="6.76029">
        <ele>65</ele>
        <time>2011-03-20T10:45:03+01:00</time>
      </trkpt>
      <trkpt lat="43.50104" lon="6.76017">
        <ele>65</ele>
        <time>2011-03-20T10:45:06+01:00</time>
      </trkpt>
      <trkpt lat="43.50113" lon="6.76013">
        <ele>64</ele>
        <time>2011-03-20T10:45:10+01:00</time>
      </trkpt>
      <trkpt lat="43.5013" lon="6.7602">
        <ele>63</ele>
        <time>2011-03-20T10:45:16+01:00</time>
      </trkpt>
      <trkpt lat="43.50138" lon="6.76026">
        <ele>62</ele>
        <time>2011-03-20T10:45:19+01:00</time>
      </trkpt>
      <trkpt lat="43.50155" lon="6.76032">
        <ele>62</ele>
        <time>2011-03-20T10:45:26+01:00</time>
      </trkpt>
      <trkpt lat="43.50163" lon="6.76031">
        <ele>61</ele>
        <time>2011-03-20T10:45:30+01:00</time>
      </trkpt>
      <trkpt lat="43.50172" lon="6.76026">
        <ele>56</ele>
        <time>2011-03-20T10:45:34+01:00</time>
      </trkpt>
      <trkpt lat="43.50188" lon="6.7602">
        <ele>56</ele>
        <time>2011-03-20T10:45:40+01:00</time>
      </trkpt>
      <trkpt lat="43.50201" lon="6.76016">
        <ele>56</ele>
        <time>2011-03-20T10:45:44+01:00</time>
      </trkpt>
      <trkpt lat="43.50219" lon="6.76009">
        <ele>55</ele>
        <time>2011-03-20T10:45:50+01:00</time>
      </trkpt>
      <trkpt lat="43.50234" lon="6.76006">
        <ele>54</ele>
        <time>2011-03-20T10:45:55+01:00</time>
      </trkpt>
      <trkpt lat="43.50244" lon="6.76002">
        <ele>53</ele>
        <time>2011-03-20T10:45:59+01:00</time>
      </trkpt>
      <trkpt lat="43.50251" lon="6.75997">
        <ele>51</ele>
        <time>2011-03-20T10:46:02+01:00</time>
      </trkpt>
      <trkpt lat="43.50259" lon="6.75976">
        <ele>48</ele>
        <time>2011-03-20T10:46:08+01:00</time>
      </trkpt>
      <trkpt lat="43.50267" lon="6.75963">
        <ele>47</ele>
        <time>2011-03-20T10:46:12+01:00</time>
      </trkpt>
      <trkpt lat="43.50277" lon="6.7595">
        <ele>46</ele>
        <time>2011-03-20T10:46:17+01:00</time>
      </trkpt>
      <trkpt lat="43.50291" lon="6.75936">
        <ele>46</ele>
        <time>2011-03-20T10:46:23+01:00</time>
      </trkpt>
      <trkpt lat="43.50303" lon="6.75923">
        <ele>45</ele>
        <time>2011-03-20T10:46:28+01:00</time>
      </trkpt>
      <trkpt lat="43.5031" lon="6.75915">
        <ele>41</ele>
        <time>2011-03-20T10:46:32+01:00</time>
      </trkpt>
      <trkpt lat="43.50318" lon="6.75912">
        <ele>42</ele>
        <time>2011-03-20T10:46:37+01:00</time>
      </trkpt>
      <trkpt lat="43.5032" lon="6.75912">
        <ele>42</ele>
        <time>2011-03-20T10:46:38+01:00</time>
      </trkpt>
      <trkpt lat="43.50332" lon="6.75906">
        <ele>42</ele>
        <time>2011-03-20T10:46:44+01:00</time>
      </trkpt>
      <trkpt lat="43.50342" lon="6.75895">
        <ele>41</ele>
        <time>2011-03-20T10:46:49+01:00</time>
      </trkpt>
      <trkpt lat="43.50354" lon="6.75892">
        <ele>40</ele>
        <time>2011-03-20T10:46:53+01:00</time>
      </trkpt>
      <trkpt lat="43.5036" lon="6.75889">
        <ele>40</ele>
        <time>2011-03-20T10:46:55+01:00</time>
      </trkpt>
      <trkpt lat="43.50379" lon="6.75878">
        <ele>40</ele>
        <time>2011-03-20T10:47:01+01:00</time>
      </trkpt>
      <trkpt lat="43.50392" lon="6.75877">
        <ele>40</ele>
        <time>2011-03-20T10:47:05+01:00</time>
      </trkpt>
      <trkpt lat="43.50402" lon="6.7587">
        <ele>40</ele>
        <time>2011-03-20T10:47:09+01:00</time>
      </trkpt>
      <trkpt lat="43.50413" lon="6.75868">
        <ele>40</ele>
        <time>2011-03-20T10:47:13+01:00</time>
      </trkpt>
      <trkpt lat="43.50422" lon="6.75872">
        <ele>41</ele>
        <time>2011-03-20T10:47:17+01:00</time>
      </trkpt>
      <trkpt lat="43.50432" lon="6.7588">
        <ele>42</ele>
        <time>2011-03-20T10:47:21+01:00</time>
      </trkpt>
      <trkpt lat="43.50442" lon="6.75882">
        <ele>42</ele>
        <time>2011-03-20T10:47:25+01:00</time>
      </trkpt>
      <trkpt lat="43.50452" lon="6.75871">
        <ele>42</ele>
        <time>2011-03-20T10:47:30+01:00</time>
      </trkpt>
      <trkpt lat="43.50455" lon="6.75857">
        <ele>43</ele>
        <time>2011-03-20T10:47:34+01:00</time>
      </trkpt>
      <trkpt lat="43.50451" lon="6.75845">
        <ele>42</ele>
        <time>2011-03-20T10:47:38+01:00</time>
      </trkpt>
      <trkpt lat="43.50448" lon="6.75843">
        <ele>42</ele>
        <time>2011-03-20T10:47:39+01:00</time>
      </trkpt>
      <trkpt lat="43.50426" lon="6.75829">
        <ele>41</ele>
        <time>2011-03-20T10:47:46+01:00</time>
      </trkpt>
      <trkpt lat="43.50413" lon="6.7582">
        <ele>40</ele>
        <time>2011-03-20T10:47:50+01:00</time>
      </trkpt>
      <trkpt lat="43.50402" lon="6.75803">
        <ele>40</ele>
        <time>2011-03-20T10:47:55+01:00</time>
      </trkpt>
      <trkpt lat="43.50402" lon="6.758">
        <ele>40</ele>
        <time>2011-03-20T10:47:56+01:00</time>
      </trkpt>
      <trkpt lat="43.5041" lon="6.75782">
        <ele>41</ele>
        <time>2011-03-20T10:48:01+01:00</time>
      </trkpt>
      <trkpt lat="43.50418" lon="6.75762">
        <ele>43</ele>
        <time>2011-03-20T10:48:06+01:00</time>
      </trkpt>
      <trkpt lat="43.5043" lon="6.75738">
        <ele>43</ele>
        <time>2011-03-20T10:48:12+01:00</time>
      </trkpt>
      <trkpt lat="43.50442" lon="6.75711">
        <ele>43</ele>
        <time>2011-03-20T10:48:18+01:00</time>
      </trkpt>
      <trkpt lat="43.50453" lon="6.75686">
        <ele>42</ele>
        <time>2011-03-20T10:48:24+01:00</time>
      </trkpt>
      <trkpt lat="43.50462" lon="6.75664">
        <ele>42</ele>
        <time>2011-03-20T10:48:29+01:00</time>
      </trkpt>
      <trkpt lat="43.50465" lon="6.75657">
        <ele>42</ele>
        <time>2011-03-20T10:48:31+01:00</time>
      </trkpt>
      <trkpt lat="43.50465" lon="6.75652">
        <ele>42</ele>
        <time>2011-03-20T10:48:35+01:00</time>
      </trkpt>
      <trkpt lat="43.50465" lon="6.75652">
        <ele>42</ele>
        <time>2011-03-20T10:48:36+01:00</time>
      </trkpt>
      <trkpt lat="43.50464" lon="6.75653">
        <ele>42</ele>
        <time>2011-03-20T10:48:43+01:00</time>
      </trkpt>
      <trkpt lat="43.50463" lon="6.75654">
        <ele>42</ele>
        <time>2011-03-20T10:48:52+01:00</time>
      </trkpt>
      <trkpt lat="43.50463" lon="6.75653">
        <ele>42</ele>
        <time>2011-03-20T10:49:05+01:00</time>
      </trkpt>
      <trkpt lat="43.5046" lon="6.75653">
        <ele>42</ele>
        <time>2011-03-20T10:49:12+01:00</time>
      </trkpt>
      <trkpt lat="43.50461" lon="6.75654">
        <ele>42</ele>
        <time>2011-03-20T10:49:16+01:00</time>
      </trkpt>
      <trkpt lat="43.50461" lon="6.75653">
        <ele>42</ele>
        <time>2011-03-20T10:49:21+01:00</time>
      </trkpt>
      <trkpt lat="43.50462" lon="6.75655">
        <ele>42</ele>
        <time>2011-03-20T10:49:26+01:00</time>
      </trkpt>
      <trkpt lat="43.50461" lon="6.75656">
        <ele>42</ele>
        <time>2011-03-20T10:49:31+01:00</time>
      </trkpt>
      <trkpt lat="43.50462" lon="6.75657">
        <ele>42</ele>
        <time>2011-03-20T10:49:44+01:00</time>
      </trkpt>
      <trkpt lat="43.50461" lon="6.75657">
        <ele>42</ele>
        <time>2011-03-20T10:49:53+01:00</time>
      </trkpt>
      <trkpt lat="43.50461" lon="6.75657">
        <ele>42</ele>
        <time>2011-03-20T10:50:09+01:00</time>
      </trkpt>
      <trkpt lat="43.5046" lon="6.75659">
        <ele>42</ele>
        <time>2011-03-20T10:50:40+01:00</time>
      </trkpt>
      <trkpt lat="43.5046" lon="6.75658">
        <ele>42</ele>
        <time>2011-03-20T10:50:50+01:00</time>
      </trkpt>
      <trkpt lat="43.5046" lon="6.75659">
        <ele>42</ele>
        <time>2011-03-20T10:50:54+01:00</time>
      </trkpt>
      <trkpt lat="43.5046" lon="6.75658">
        <ele>42</ele>
        <time>2011-03-20T10:51:01+01:00</time>
      </trkpt>
      <trkpt lat="43.5046" lon="6.75657">
        <ele>42</ele>
        <time>2011-03-20T10:51:09+01:00</time>
      </trkpt>
      <trkpt lat="43.5046" lon="6.75655">
        <ele>42</ele>
        <time>2011-03-20T10:51:18+01:00</time>
      </trkpt>
      <trkpt lat="43.50461" lon="6.75656">
        <ele>42</ele>
        <time>2011-03-20T10:51:25+01:00</time>
      </trkpt>
      <trkpt lat="43.50461" lon="6.7566">
        <ele>42</ele>
        <time>2011-03-20T10:51:28+01:00</time>
      </trkpt>
      <trkpt lat="43.50452" lon="6.7569">
        <ele>42</ele>
        <time>2011-03-20T10:51:35+01:00</time>
      </trkpt>
      <trkpt lat="43.50438" lon="6.75723">
        <ele>43</ele>
        <time>2011-03-20T10:51:41+01:00</time>
      </trkpt>
      <trkpt lat="43.50423" lon="6.75754">
        <ele>43</ele>
        <time>2011-03-20T10:51:47+01:00</time>
      </trkpt>
      <trkpt lat="43.50407" lon="6.75779">
        <ele>41</ele>
        <time>2011-03-20T10:51:52+01:00</time>
      </trkpt>
      <trkpt lat="43.50391" lon="6.75784">
        <ele>41</ele>
        <time>2011-03-20T10:51:55+01:00</time>
      </trkpt>
      <trkpt lat="43.50381" lon="6.7578">
        <ele>40</ele>
        <time>2011-03-20T10:51:57+01:00</time>
      </trkpt>
      <trkpt lat="43.50367" lon="6.75782">
        <ele>40</ele>
        <time>2011-03-20T10:52:02+01:00</time>
      </trkpt>
      <trkpt lat="43.50372" lon="6.75791">
        <ele>40</ele>
        <time>2011-03-20T10:52:05+01:00</time>
      </trkpt>
      <trkpt lat="43.50379" lon="6.75794">
        <ele>40</ele>
        <time>2011-03-20T10:52:08+01:00</time>
      </trkpt>
      <trkpt lat="43.50406" lon="6.75813">
        <ele>40</ele>
        <time>2011-03-20T10:52:15+01:00</time>
      </trkpt>
      <trkpt lat="43.50423" lon="6.75826">
        <ele>41</ele>
        <time>2011-03-20T10:52:19+01:00</time>
      </trkpt>
      <trkpt lat="43.50436" lon="6.75836">
        <ele>41</ele>
        <time>2011-03-20T10:52:26+01:00</time>
      </trkpt>
      <trkpt lat="43.50447" lon="6.75844">
        <ele>42</ele>
        <time>2011-03-20T10:52:32+01:00</time>
      </trkpt>
      <trkpt lat="43.50451" lon="6.75846">
        <ele>42</ele>
        <time>2011-03-20T10:52:35+01:00</time>
      </trkpt>
      <trkpt lat="43.50454" lon="6.75861">
        <ele>42</ele>
        <time>2011-03-20T10:52:39+01:00</time>
      </trkpt>
      <trkpt lat="43.50445" lon="6.75882">
        <ele>42</ele>
        <time>2011-03-20T10:52:43+01:00</time>
      </trkpt>
      <trkpt lat="43.50438" lon="6.75894">
        <ele>42</ele>
        <time>2011-03-20T10:52:48+01:00</time>
      </trkpt>
      <trkpt lat="43.50433" lon="6.75909">
        <ele>41</ele>
        <time>2011-03-20T10:52:54+01:00</time>
      </trkpt>
      <trkpt lat="43.50425" lon="6.75927">
        <ele>41</ele>
        <time>2011-03-20T10:53:01+01:00</time>
      </trkpt>
      <trkpt lat="43.50422" lon="6.75947">
        <ele>42</ele>
        <time>2011-03-20T10:53:08+01:00</time>
      </trkpt>
      <trkpt lat="43.50427" lon="6.75957">
        <ele>43</ele>
        <time>2011-03-20T10:53:13+01:00</time>
      </trkpt>
      <trkpt lat="43.50435" lon="6.75968">
        <ele>43</ele>
        <time>2011-03-20T10:53:20+01:00</time>
      </trkpt>
      <trkpt lat="43.50443" lon="6.75978">
        <ele>43</ele>
        <time>2011-03-20T10:53:27+01:00</time>
      </trkpt>
      <trkpt lat="43.50443" lon="6.75982">
        <ele>43</ele>
        <time>2011-03-20T10:53:31+01:00</time>
      </trkpt>
      <trkpt lat="43.50442" lon="6.75982">
        <ele>43</ele>
        <time>2011-03-20T10:53:36+01:00</time>
      </trkpt>
      <trkpt lat="43.50444" lon="6.75983">
        <ele>43</ele>
        <time>2011-03-20T10:53:41+01:00</time>
      </trkpt>
      <trkpt lat="43.50453" lon="6.75994">
        <ele>44</ele>
        <time>2011-03-20T10:53:48+01:00</time>
      </trkpt>
      <trkpt lat="43.50471" lon="6.76006">
        <ele>47</ele>
        <time>2011-03-20T10:53:56+01:00</time>
      </trkpt>
      <trkpt lat="43.50491" lon="6.76015">
        <ele>47</ele>
        <time>2011-03-20T10:54:04+01:00</time>
      </trkpt>
      <trkpt lat="43.50508" lon="6.76024">
        <ele>48</ele>
        <time>2011-03-20T10:54:12+01:00</time>
      </trkpt>
      <trkpt lat="43.50519" lon="6.76041">
        <ele>48</ele>
        <time>2011-03-20T10:54:20+01:00</time>
      </trkpt>
      <trkpt lat="43.50527" lon="6.76063">
        <ele>49</ele>
        <time>2011-03-20T10:54:28+01:00</time>
      </trkpt>
      <trkpt lat="43.50535" lon="6.76093">
        <ele>51</ele>
        <time>2011-03-20T10:54:37+01:00</time>
      </trkpt>
      <trkpt lat="43.50542" lon="6.76127">
        <ele>52</ele>
        <time>2011-03-20T10:54:45+01:00</time>
      </trkpt>
      <trkpt lat="43.50549" lon="6.7617">
        <ele>55</ele>
        <time>2011-03-20T10:54:54+01:00</time>
      </trkpt>
      <trkpt lat="43.50562" lon="6.76203">
        <ele>56</ele>
        <time>2011-03-20T10:55:02+01:00</time>
      </trkpt>
      <trkpt lat="43.50582" lon="6.76234">
        <ele>58</ele>
        <time>2011-03-20T10:55:11+01:00</time>
      </trkpt>
      <trkpt lat="43.50595" lon="6.76252">
        <ele>61</ele>
        <time>2011-03-20T10:55:17+01:00</time>
      </trkpt>
      <trkpt lat="43.506" lon="6.76271">
        <ele>61</ele>
        <time>2011-03-20T10:55:22+01:00</time>
      </trkpt>
      <trkpt lat="43.50601" lon="6.76293">
        <ele>61</ele>
        <time>2011-03-20T10:55:28+01:00</time>
      </trkpt>
      <trkpt lat="43.50604" lon="6.76311">
        <ele>62</ele>
        <time>2011-03-20T10:55:35+01:00</time>
      </trkpt>
      <trkpt lat="43.50606" lon="6.76329">
        <ele>62</ele>
        <time>2011-03-20T10:55:42+01:00</time>
      </trkpt>
      <trkpt lat="43.5061" lon="6.76346">
        <ele>63</ele>
        <time>2011-03-20T10:55:49+01:00</time>
      </trkpt>
      <trkpt lat="43.50621" lon="6.76355">
        <ele>62</ele>
        <time>2011-03-20T10:55:55+01:00</time>
      </trkpt>
      <trkpt lat="43.5064" lon="6.76363">
        <ele>62</ele>
        <time>2011-03-20T10:56:02+01:00</time>
      </trkpt>
      <trkpt lat="43.50663" lon="6.76369">
        <ele>63</ele>
        <time>2011-03-20T10:56:11+01:00</time>
      </trkpt>
      <trkpt lat="43.50684" lon="6.76383">
        <ele>63</ele>
        <time>2011-03-20T10:56:18+01:00</time>
      </trkpt>
      <trkpt lat="43.50706" lon="6.76397">
        <ele>63</ele>
        <time>2011-03-20T10:56:25+01:00</time>
      </trkpt>
      <trkpt lat="43.50727" lon="6.76411">
        <ele>64</ele>
        <time>2011-03-20T10:56:32+01:00</time>
      </trkpt>
      <trkpt lat="43.50742" lon="6.76419">
        <ele>67</ele>
        <time>2011-03-20T10:56:38+01:00</time>
      </trkpt>
      <trkpt lat="43.50753" lon="6.76431">
        <ele>67</ele>
        <time>2011-03-20T10:56:44+01:00</time>
      </trkpt>
      <trkpt lat="43.50766" lon="6.76452">
        <ele>67</ele>
        <time>2011-03-20T10:56:49+01:00</time>
      </trkpt>
      <trkpt lat="43.50778" lon="6.76465">
        <ele>67</ele>
        <time>2011-03-20T10:56:52+01:00</time>
      </trkpt>
      <trkpt lat="43.50785" lon="6.76489">
        <ele>67</ele>
        <time>2011-03-20T10:56:56+01:00</time>
      </trkpt>
      <trkpt lat="43.50788" lon="6.76515">
        <ele>68</ele>
        <time>2011-03-20T10:57:00+01:00</time>
      </trkpt>
      <trkpt lat="43.50799" lon="6.76547">
        <ele>67</ele>
        <time>2011-03-20T10:57:04+01:00</time>
      </trkpt>
      <trkpt lat="43.50812" lon="6.76586">
        <ele>65</ele>
        <time>2011-03-20T10:57:08+01:00</time>
      </trkpt>
      <trkpt lat="43.50813" lon="6.76629">
        <ele>65</ele>
        <time>2011-03-20T10:57:12+01:00</time>
      </trkpt>
      <trkpt lat="43.50805" lon="6.76669">
        <ele>68</ele>
        <time>2011-03-20T10:57:17+01:00</time>
      </trkpt>
      <trkpt lat="43.50792" lon="6.76685">
        <ele>68</ele>
        <time>2011-03-20T10:57:21+01:00</time>
      </trkpt>
      <trkpt lat="43.50782" lon="6.76694">
        <ele>68</ele>
        <time>2011-03-20T10:57:25+01:00</time>
      </trkpt>
      <trkpt lat="43.50772" lon="6.76693">
        <ele>68</ele>
        <time>2011-03-20T10:57:29+01:00</time>
      </trkpt>
      <trkpt lat="43.50766" lon="6.76702">
        <ele>68</ele>
        <time>2011-03-20T10:57:33+01:00</time>
      </trkpt>
      <trkpt lat="43.50768" lon="6.76715">
        <ele>69</ele>
        <time>2011-03-20T10:57:37+01:00</time>
      </trkpt>
      <trkpt lat="43.50775" lon="6.76738">
        <ele>70</ele>
        <time>2011-03-20T10:57:44+01:00</time>
      </trkpt>
      <trkpt lat="43.50775" lon="6.76755">
        <ele>74</ele>
        <time>2011-03-20T10:57:49+01:00</time>
      </trkpt>
      <trkpt lat="43.50772" lon="6.76773">
        <ele>74</ele>
        <time>2011-03-20T10:57:54+01:00</time>
      </trkpt>
      <trkpt lat="43.50766" lon="6.768">
        <ele>76</ele>
        <time>2011-03-20T10:58:02+01:00</time>
      </trkpt>
      <trkpt lat="43.50757" lon="6.76822">
        <ele>77</ele>
        <time>2011-03-20T10:58:09+01:00</time>
      </trkpt>
      <trkpt lat="43.50739" lon="6.76847">
        <ele>78</ele>
        <time>2011-03-20T10:58:17+01:00</time>
      </trkpt>
      <trkpt lat="43.50728" lon="6.76872">
        <ele>79</ele>
        <time>2011-03-20T10:58:23+01:00</time>
      </trkpt>
      <trkpt lat="43.50727" lon="6.76902">
        <ele>80</ele>
        <time>2011-03-20T10:58:29+01:00</time>
      </trkpt>
      <trkpt lat="43.5073" lon="6.76941">
        <ele>85</ele>
        <time>2011-03-20T10:58:38+01:00</time>
      </trkpt>
      <trkpt lat="43.50733" lon="6.76955">
        <ele>86</ele>
        <time>2011-03-20T10:58:43+01:00</time>
      </trkpt>
      <trkpt lat="43.50739" lon="6.76952">
        <ele>86</ele>
        <time>2011-03-20T10:58:47+01:00</time>
      </trkpt>
      <trkpt lat="43.50747" lon="6.76924">
        <ele>85</ele>
        <time>2011-03-20T10:58:56+01:00</time>
      </trkpt>
      <trkpt lat="43.50759" lon="6.76896">
        <ele>84</ele>
        <time>2011-03-20T10:59:05+01:00</time>
      </trkpt>
      <trkpt lat="43.50774" lon="6.76883">
        <ele>83</ele>
        <time>2011-03-20T10:59:13+01:00</time>
      </trkpt>
      <trkpt lat="43.50789" lon="6.7688">
        <ele>83</ele>
        <time>2011-03-20T10:59:20+01:00</time>
      </trkpt>
      <trkpt lat="43.50804" lon="6.76886">
        <ele>84</ele>
        <time>2011-03-20T10:59:27+01:00</time>
      </trkpt>
      <trkpt lat="43.50815" lon="6.76896">
        <ele>85</ele>
        <time>2011-03-20T10:59:33+01:00</time>
      </trkpt>
      <trkpt lat="43.50823" lon="6.76909">
        <ele>87</ele>
        <time>2011-03-20T10:59:39+01:00</time>
      </trkpt>
      <trkpt lat="43.50833" lon="6.76932">
        <ele>91</ele>
        <time>2011-03-20T10:59:49+01:00</time>
      </trkpt>
      <trkpt lat="43.50836" lon="6.76951">
        <ele>90</ele>
        <time>2011-03-20T10:59:56+01:00</time>
      </trkpt>
      <trkpt lat="43.50836" lon="6.76976">
        <ele>92</ele>
        <time>2011-03-20T11:00:05+01:00</time>
      </trkpt>
      <trkpt lat="43.50835" lon="6.76997">
        <ele>97</ele>
        <time>2011-03-20T11:00:12+01:00</time>
      </trkpt>
      <trkpt lat="43.50838" lon="6.77016">
        <ele>98</ele>
        <time>2011-03-20T11:00:19+01:00</time>
      </trkpt>
      <trkpt lat="43.50835" lon="6.77027">
        <ele>98</ele>
        <time>2011-03-20T11:00:23+01:00</time>
      </trkpt>
      <trkpt lat="43.50825" lon="6.77024">
        <ele>100</ele>
        <time>2011-03-20T11:00:28+01:00</time>
      </trkpt>
      <trkpt lat="43.50815" lon="6.77015">
        <ele>100</ele>
        <time>2011-03-20T11:00:34+01:00</time>
      </trkpt>
      <trkpt lat="43.5081" lon="6.77023">
        <ele>100</ele>
        <time>2011-03-20T11:00:39+01:00</time>
      </trkpt>
      <trkpt lat="43.50806" lon="6.77046">
        <ele>101</ele>
        <time>2011-03-20T11:00:48+01:00</time>
      </trkpt>
      <trkpt lat="43.50803" lon="6.77065">
        <ele>103</ele>
        <time>2011-03-20T11:00:57+01:00</time>
      </trkpt>
      <trkpt lat="43.508" lon="6.77082">
        <ele>103</ele>
        <time>2011-03-20T11:01:05+01:00</time>
      </trkpt>
      <trkpt lat="43.50802" lon="6.77102">
        <ele>112</ele>
        <time>2011-03-20T11:01:14+01:00</time>
      </trkpt>
      <trkpt lat="43.50808" lon="6.77113">
        <ele>113</ele>
        <time>2011-03-20T11:01:21+01:00</time>
      </trkpt>
      <trkpt lat="43.50815" lon="6.77122">
        <ele>114</ele>
        <time>2011-03-20T11:01:27+01:00</time>
      </trkpt>
      <trkpt lat="43.50828" lon="6.77126">
        <ele>115</ele>
        <time>2011-03-20T11:01:35+01:00</time>
      </trkpt>
      <trkpt lat="43.50839" lon="6.77133">
        <ele>112</ele>
        <time>2011-03-20T11:01:43+01:00</time>
      </trkpt>
      <trkpt lat="43.50844" lon="6.77141">
        <ele>113</ele>
        <time>2011-03-20T11:01:48+01:00</time>
      </trkpt>
      <trkpt lat="43.50848" lon="6.77158">
        <ele>116</ele>
        <time>2011-03-20T11:01:56+01:00</time>
      </trkpt>
      <trkpt lat="43.50849" lon="6.77174">
        <ele>122</ele>
        <time>2011-03-20T11:02:03+01:00</time>
      </trkpt>
      <trkpt lat="43.50854" lon="6.77189">
        <ele>121</ele>
        <time>2011-03-20T11:02:11+01:00</time>
      </trkpt>
      <trkpt lat="43.50863" lon="6.77204">
        <ele>121</ele>
        <time>2011-03-20T11:02:20+01:00</time>
      </trkpt>
      <trkpt lat="43.50867" lon="6.77218">
        <ele>122</ele>
        <time>2011-03-20T11:02:27+01:00</time>
      </trkpt>
      <trkpt lat="43.50862" lon="6.7723">
        <ele>124</ele>
        <time>2011-03-20T11:02:33+01:00</time>
      </trkpt>
      <trkpt lat="43.50853" lon="6.77241">
        <ele>127</ele>
        <time>2011-03-20T11:02:40+01:00</time>
      </trkpt>
      <trkpt lat="43.50842" lon="6.77253">
        <ele>135</ele>
        <time>2011-03-20T11:02:49+01:00</time>
      </trkpt>
      <trkpt lat="43.50834" lon="6.77261">
        <ele>135</ele>
        <time>2011-03-20T11:02:55+01:00</time>
      </trkpt>
      <trkpt lat="43.50826" lon="6.77271">
        <ele>142</ele>
        <time>2011-03-20T11:03:02+01:00</time>
      </trkpt>
      <trkpt lat="43.50814" lon="6.77278">
        <ele>143</ele>
        <time>2011-03-20T11:03:10+01:00</time>
      </trkpt>
      <trkpt lat="43.50811" lon="6.77279">
        <ele>144</ele>
        <time>2011-03-20T11:03:12+01:00</time>
      </trkpt>
      <trkpt lat="43.50802" lon="6.77269">
        <ele>143</ele>
        <time>2011-03-20T11:03:19+01:00</time>
      </trkpt>
      <trkpt lat="43.50794" lon="6.77264">
        <ele>143</ele>
        <time>2011-03-20T11:03:25+01:00</time>
      </trkpt>
      <trkpt lat="43.50779" lon="6.77261">
        <ele>143</ele>
        <time>2011-03-20T11:03:34+01:00</time>
      </trkpt>
      <trkpt lat="43.50763" lon="6.77268">
        <ele>143</ele>
        <time>2011-03-20T11:03:44+01:00</time>
      </trkpt>
      <trkpt lat="43.50752" lon="6.77276">
        <ele>144</ele>
        <time>2011-03-20T11:03:51+01:00</time>
      </trkpt>
      <trkpt lat="43.50741" lon="6.77285">
        <ele>147</ele>
        <time>2011-03-20T11:03:59+01:00</time>
      </trkpt>
      <trkpt lat="43.5073" lon="6.77295">
        <ele>148</ele>
        <time>2011-03-20T11:04:07+01:00</time>
      </trkpt>
      <trkpt lat="43.50721" lon="6.77303">
        <ele>149</ele>
        <time>2011-03-20T11:04:14+01:00</time>
      </trkpt>
      <trkpt lat="43.50712" lon="6.77314">
        <ele>150</ele>
        <time>2011-03-20T11:04:22+01:00</time>
      </trkpt>
      <trkpt lat="43.50708" lon="6.77329">
        <ele>151</ele>
        <time>2011-03-20T11:04:30+01:00</time>
      </trkpt>
      <trkpt lat="43.50709" lon="6.77342">
        <ele>160</ele>
        <time>2011-03-20T11:04:37+01:00</time>
      </trkpt>
      <trkpt lat="43.5071" lon="6.77357">
        <ele>161</ele>
        <time>2011-03-20T11:04:45+01:00</time>
      </trkpt>
      <trkpt lat="43.50712" lon="6.77371">
        <ele>162</ele>
        <time>2011-03-20T11:04:52+01:00</time>
      </trkpt>
      <trkpt lat="43.50712" lon="6.77382">
        <ele>163</ele>
        <time>2011-03-20T11:04:58+01:00</time>
      </trkpt>
      <trkpt lat="43.50711" lon="6.77397">
        <ele>163</ele>
        <time>2011-03-20T11:05:05+01:00</time>
      </trkpt>
      <trkpt lat="43.50708" lon="6.77413">
        <ele>164</ele>
        <time>2011-03-20T11:05:13+01:00</time>
      </trkpt>
      <trkpt lat="43.50703" lon="6.77426">
        <ele>170</ele>
        <time>2011-03-20T11:05:20+01:00</time>
      </trkpt>
      <trkpt lat="43.50698" lon="6.77438">
        <ele>170</ele>
        <time>2011-03-20T11:05:27+01:00</time>
      </trkpt>
      <trkpt lat="43.50693" lon="6.7745">
        <ele>171</ele>
        <time>2011-03-20T11:05:34+01:00</time>
      </trkpt>
      <trkpt lat="43.50694" lon="6.77464">
        <ele>171</ele>
        <time>2011-03-20T11:05:42+01:00</time>
      </trkpt>
      <trkpt lat="43.50699" lon="6.7747">
        <ele>171</ele>
        <time>2011-03-20T11:05:47+01:00</time>
      </trkpt>
      <trkpt lat="43.50701" lon="6.7747">
        <ele>171</ele>
        <time>2011-03-20T11:05:54+01:00</time>
      </trkpt>
      <trkpt lat="43.50702" lon="6.77472">
        <ele>171</ele>
        <time>2011-03-20T11:06:04+01:00</time>
      </trkpt>
      <trkpt lat="43.50707" lon="6.77469">
        <ele>171</ele>
        <time>2011-03-20T11:06:09+01:00</time>
      </trkpt>
      <trkpt lat="43.50711" lon="6.77464">
        <ele>171</ele>
        <time>2011-03-20T11:06:12+01:00</time>
      </trkpt>
      <trkpt lat="43.5071" lon="6.7746">
        <ele>171</ele>
        <time>2011-03-20T11:06:18+01:00</time>
      </trkpt>
      <trkpt lat="43.5071" lon="6.77463">
        <ele>171</ele>
        <time>2011-03-20T11:06:27+01:00</time>
      </trkpt>
      <trkpt lat="43.50703" lon="6.77468">
        <ele>171</ele>
        <time>2011-03-20T11:06:32+01:00</time>
      </trkpt>
      <trkpt lat="43.50703" lon="6.7747">
        <ele>171</ele>
        <time>2011-03-20T11:06:38+01:00</time>
      </trkpt>
      <trkpt lat="43.50704" lon="6.77469">
        <ele>171</ele>
        <time>2011-03-20T11:06:52+01:00</time>
      </trkpt>
      <trkpt lat="43.50704" lon="6.7747">
        <ele>171</ele>
        <time>2011-03-20T11:06:57+01:00</time>
      </trkpt>
      <trkpt lat="43.50704" lon="6.77471">
        <ele>171</ele>
        <time>2011-03-20T11:06:58+01:00</time>
      </trkpt>
      <trkpt lat="43.50703" lon="6.77491">
        <ele>172</ele>
        <time>2011-03-20T11:07:06+01:00</time>
      </trkpt>
      <trkpt lat="43.50701" lon="6.77514">
        <ele>176</ele>
        <time>2011-03-20T11:07:13+01:00</time>
      </trkpt>
      <trkpt lat="43.50695" lon="6.77544">
        <ele>177</ele>
        <time>2011-03-20T11:07:21+01:00</time>
      </trkpt>
      <trkpt lat="43.50688" lon="6.77569">
        <ele>178</ele>
        <time>2011-03-20T11:07:28+01:00</time>
      </trkpt>
      <trkpt lat="43.50688" lon="6.77599">
        <ele>183</ele>
        <time>2011-03-20T11:07:36+01:00</time>
      </trkpt>
      <trkpt lat="43.50697" lon="6.77622">
        <ele>184</ele>
        <time>2011-03-20T11:07:43+01:00</time>
      </trkpt>
      <trkpt lat="43.50712" lon="6.77645">
        <ele>185</ele>
        <time>2011-03-20T11:07:52+01:00</time>
      </trkpt>
      <trkpt lat="43.50726" lon="6.77657">
        <ele>185</ele>
        <time>2011-03-20T11:07:59+01:00</time>
      </trkpt>
      <trkpt lat="43.50746" lon="6.77671">
        <ele>188</ele>
        <time>2011-03-20T11:08:08+01:00</time>
      </trkpt>
      <trkpt lat="43.50765" lon="6.77693">
        <ele>185</ele>
        <time>2011-03-20T11:08:17+01:00</time>
      </trkpt>
      <trkpt lat="43.50767" lon="6.77711">
        <ele>186</ele>
        <time>2011-03-20T11:08:22+01:00</time>
      </trkpt>
      <trkpt lat="43.5076" lon="6.77727">
        <ele>188</ele>
        <time>2011-03-20T11:08:27+01:00</time>
      </trkpt>
      <trkpt lat="43.50747" lon="6.77745">
        <ele>195</ele>
        <time>2011-03-20T11:08:34+01:00</time>
      </trkpt>
      <trkpt lat="43.50734" lon="6.77761">
        <ele>202</ele>
        <time>2011-03-20T11:08:42+01:00</time>
      </trkpt>
      <trkpt lat="43.50727" lon="6.77772">
        <ele>205</ele>
        <time>2011-03-20T11:08:49+01:00</time>
      </trkpt>
      <trkpt lat="43.50724" lon="6.77787">
        <ele>207</ele>
        <time>2011-03-20T11:08:56+01:00</time>
      </trkpt>
      <trkpt lat="43.50733" lon="6.77802">
        <ele>208</ele>
        <time>2011-03-20T11:09:03+01:00</time>
      </trkpt>
      <trkpt lat="43.50748" lon="6.7781">
        <ele>208</ele>
        <time>2011-03-20T11:09:10+01:00</time>
      </trkpt>
      <trkpt lat="43.50767" lon="6.77816">
        <ele>203</ele>
        <time>2011-03-20T11:09:19+01:00</time>
      </trkpt>
      <trkpt lat="43.50777" lon="6.77824">
        <ele>203</ele>
        <time>2011-03-20T11:09:25+01:00</time>
      </trkpt>
      <trkpt lat="43.5079" lon="6.7783">
        <ele>202</ele>
        <time>2011-03-20T11:09:33+01:00</time>
      </trkpt>
      <trkpt lat="43.50802" lon="6.77832">
        <ele>202</ele>
        <time>2011-03-20T11:09:40+01:00</time>
      </trkpt>
      <trkpt lat="43.50819" lon="6.77833">
        <ele>214</ele>
        <time>2011-03-20T11:09:48+01:00</time>
      </trkpt>
      <trkpt lat="43.50835" lon="6.77835">
        <ele>209</ele>
        <time>2011-03-20T11:09:55+01:00</time>
      </trkpt>
      <trkpt lat="43.50853" lon="6.77839">
        <ele>217</ele>
        <time>2011-03-20T11:10:03+01:00</time>
      </trkpt>
      <trkpt lat="43.50878" lon="6.77845">
        <ele>221</ele>
        <time>2011-03-20T11:10:14+01:00</time>
      </trkpt>
      <trkpt lat="43.50901" lon="6.77848">
        <ele>219</ele>
        <time>2011-03-20T11:10:23+01:00</time>
      </trkpt>
      <trkpt lat="43.50922" lon="6.77853">
        <ele>220</ele>
        <time>2011-03-20T11:10:32+01:00</time>
      </trkpt>
      <trkpt lat="43.50937" lon="6.77859">
        <ele>224</ele>
        <time>2011-03-20T11:10:39+01:00</time>
      </trkpt>
      <trkpt lat="43.5095" lon="6.77866">
        <ele>226</ele>
        <time>2011-03-20T11:10:45+01:00</time>
      </trkpt>
      <trkpt lat="43.50967" lon="6.77874">
        <ele>228</ele>
        <time>2011-03-20T11:10:53+01:00</time>
      </trkpt>
      <trkpt lat="43.50988" lon="6.7787">
        <ele>227</ele>
        <time>2011-03-20T11:11:02+01:00</time>
      </trkpt>
      <trkpt lat="43.51008" lon="6.77862">
        <ele>227</ele>
        <time>2011-03-20T11:11:11+01:00</time>
      </trkpt>
      <trkpt lat="43.51024" lon="6.77857">
        <ele>227</ele>
        <time>2011-03-20T11:11:18+01:00</time>
      </trkpt>
      <trkpt lat="43.51041" lon="6.77852">
        <ele>227</ele>
        <time>2011-03-20T11:11:25+01:00</time>
      </trkpt>
      <trkpt lat="43.51057" lon="6.77851">
        <ele>228</ele>
        <time>2011-03-20T11:11:32+01:00</time>
      </trkpt>
      <trkpt lat="43.51068" lon="6.77851">
        <ele>227</ele>
        <time>2011-03-20T11:11:37+01:00</time>
      </trkpt>
      <trkpt lat="43.51084" lon="6.77852">
        <ele>221</ele>
        <time>2011-03-20T11:11:44+01:00</time>
      </trkpt>
      <trkpt lat="43.51097" lon="6.77854">
        <ele>220</ele>
        <time>2011-03-20T11:11:50+01:00</time>
      </trkpt>
      <trkpt lat="43.51111" lon="6.77862">
        <ele>219</ele>
        <time>2011-03-20T11:11:57+01:00</time>
      </trkpt>
      <trkpt lat="43.51124" lon="6.77877">
        <ele>218</ele>
        <time>2011-03-20T11:12:05+01:00</time>
      </trkpt>
      <trkpt lat="43.51127" lon="6.77894">
        <ele>219</ele>
        <time>2011-03-20T11:12:11+01:00</time>
      </trkpt>
      <trkpt lat="43.51121" lon="6.77915">
        <ele>223</ele>
        <time>2011-03-20T11:12:18+01:00</time>
      </trkpt>
      <trkpt lat="43.51116" lon="6.77929">
        <ele>230</ele>
        <time>2011-03-20T11:12:23+01:00</time>
      </trkpt>
      <trkpt lat="43.51111" lon="6.77948">
        <ele>231</ele>
        <time>2011-03-20T11:12:29+01:00</time>
      </trkpt>
      <trkpt lat="43.51106" lon="6.77977">
        <ele>234</ele>
        <time>2011-03-20T11:12:37+01:00</time>
      </trkpt>
      <trkpt lat="43.51106" lon="6.78005">
        <ele>235</ele>
        <time>2011-03-20T11:12:44+01:00</time>
      </trkpt>
      <trkpt lat="43.51103" lon="6.78028">
        <ele>232</ele>
        <time>2011-03-20T11:12:50+01:00</time>
      </trkpt>
      <trkpt lat="43.51095" lon="6.78056">
        <ele>233</ele>
        <time>2011-03-20T11:12:57+01:00</time>
      </trkpt>
      <trkpt lat="43.51086" lon="6.78085">
        <ele>243</ele>
        <time>2011-03-20T11:13:04+01:00</time>
      </trkpt>
      <trkpt lat="43.51078" lon="6.78123">
        <ele>251</ele>
        <time>2011-03-20T11:13:12+01:00</time>
      </trkpt>
      <trkpt lat="43.51072" lon="6.7816">
        <ele>239</ele>
        <time>2011-03-20T11:13:19+01:00</time>
      </trkpt>
      <trkpt lat="43.51058" lon="6.78181">
        <ele>232</ele>
        <time>2011-03-20T11:13:24+01:00</time>
      </trkpt>
      <trkpt lat="43.51034" lon="6.78197">
        <ele>236</ele>
        <time>2011-03-20T11:13:31+01:00</time>
      </trkpt>
      <trkpt lat="43.51003" lon="6.78209">
        <ele>238</ele>
        <time>2011-03-20T11:13:40+01:00</time>
      </trkpt>
      <trkpt lat="43.50977" lon="6.78225">
        <ele>255</ele>
        <time>2011-03-20T11:13:48+01:00</time>
      </trkpt>
      <trkpt lat="43.50951" lon="6.78244">
        <ele>259</ele>
        <time>2011-03-20T11:13:56+01:00</time>
      </trkpt>
      <trkpt lat="43.50934" lon="6.78263">
        <ele>247</ele>
        <time>2011-03-20T11:14:02+01:00</time>
      </trkpt>
      <trkpt lat="43.50918" lon="6.78287">
        <ele>243</ele>
        <time>2011-03-20T11:14:09+01:00</time>
      </trkpt>
      <trkpt lat="43.50901" lon="6.78309">
        <ele>260</ele>
        <time>2011-03-20T11:14:16+01:00</time>
      </trkpt>
      <trkpt lat="43.50885" lon="6.78332">
        <ele>262</ele>
        <time>2011-03-20T11:14:23+01:00</time>
      </trkpt>
      <trkpt lat="43.50864" lon="6.7836">
        <ele>260</ele>
        <time>2011-03-20T11:14:32+01:00</time>
      </trkpt>
      <trkpt lat="43.50853" lon="6.7838">
        <ele>261</ele>
        <time>2011-03-20T11:14:38+01:00</time>
      </trkpt>
      <trkpt lat="43.50859" lon="6.78404">
        <ele>260</ele>
        <time>2011-03-20T11:14:44+01:00</time>
      </trkpt>
      <trkpt lat="43.5086" lon="6.78407">
        <ele>260</ele>
        <time>2011-03-20T11:14:45+01:00</time>
      </trkpt>
      <trkpt lat="43.50875" lon="6.78437">
        <ele>258</ele>
        <time>2011-03-20T11:14:53+01:00</time>
      </trkpt>
      <trkpt lat="43.5089" lon="6.78459">
        <ele>257</ele>
        <time>2011-03-20T11:15:00+01:00</time>
      </trkpt>
      <trkpt lat="43.50907" lon="6.7848">
        <ele>257</ele>
        <time>2011-03-20T11:15:07+01:00</time>
      </trkpt>
      <trkpt lat="43.50918" lon="6.78494">
        <ele>251</ele>
        <time>2011-03-20T11:15:12+01:00</time>
      </trkpt>
      <trkpt lat="43.50926" lon="6.78517">
        <ele>250</ele>
        <time>2011-03-20T11:15:19+01:00</time>
      </trkpt>
      <trkpt lat="43.50934" lon="6.78527">
        <ele>249</ele>
        <time>2011-03-20T11:15:24+01:00</time>
      </trkpt>
      <trkpt lat="43.5095" lon="6.78537">
        <ele>247</ele>
        <time>2011-03-20T11:15:31+01:00</time>
      </trkpt>
      <trkpt lat="43.50954" lon="6.78538">
        <ele>247</ele>
        <time>2011-03-20T11:15:36+01:00</time>
      </trkpt>
      <trkpt lat="43.50959" lon="6.78541">
        <ele>246</ele>
        <time>2011-03-20T11:15:41+01:00</time>
      </trkpt>
      <trkpt lat="43.50962" lon="6.78543">
        <ele>246</ele>
        <time>2011-03-20T11:15:42+01:00</time>
      </trkpt>
      <trkpt lat="43.50964" lon="6.7856">
        <ele>246</ele>
        <time>2011-03-20T11:15:46+01:00</time>
      </trkpt>
      <trkpt lat="43.50957" lon="6.78574">
        <ele>247</ele>
        <time>2011-03-20T11:15:50+01:00</time>
      </trkpt>
      <trkpt lat="43.50956" lon="6.78576">
        <ele>247</ele>
        <time>2011-03-20T11:15:55+01:00</time>
      </trkpt>
      <trkpt lat="43.50958" lon="6.78573">
        <ele>246</ele>
        <time>2011-03-20T11:16:02+01:00</time>
      </trkpt>
      <trkpt lat="43.50962" lon="6.78565">
        <ele>246</ele>
        <time>2011-03-20T11:16:06+01:00</time>
      </trkpt>
      <trkpt lat="43.50967" lon="6.78552">
        <ele>246</ele>
        <time>2011-03-20T11:16:09+01:00</time>
      </trkpt>
      <trkpt lat="43.50963" lon="6.7854">
        <ele>246</ele>
        <time>2011-03-20T11:16:12+01:00</time>
      </trkpt>
      <trkpt lat="43.50947" lon="6.78533">
        <ele>247</ele>
        <time>2011-03-20T11:16:16+01:00</time>
      </trkpt>
      <trkpt lat="43.50924" lon="6.78525">
        <ele>249</ele>
        <time>2011-03-20T11:16:21+01:00</time>
      </trkpt>
      <trkpt lat="43.50889" lon="6.78538">
        <ele>256</ele>
        <time>2011-03-20T11:16:29+01:00</time>
      </trkpt>
      <trkpt lat="43.50867" lon="6.78545">
        <ele>257</ele>
        <time>2011-03-20T11:16:34+01:00</time>
      </trkpt>
      <trkpt lat="43.50846" lon="6.78551">
        <ele>258</ele>
        <time>2011-03-20T11:16:40+01:00</time>
      </trkpt>
      <trkpt lat="43.50823" lon="6.78561">
        <ele>266</ele>
        <time>2011-03-20T11:16:47+01:00</time>
      </trkpt>
      <trkpt lat="43.508" lon="6.78578">
        <ele>268</ele>
        <time>2011-03-20T11:16:54+01:00</time>
      </trkpt>
      <trkpt lat="43.50782" lon="6.78595">
        <ele>255</ele>
        <time>2011-03-20T11:17:00+01:00</time>
      </trkpt>
      <trkpt lat="43.50765" lon="6.78608">
        <ele>256</ele>
        <time>2011-03-20T11:17:06+01:00</time>
      </trkpt>
      <trkpt lat="43.50748" lon="6.78611">
        <ele>262</ele>
        <time>2011-03-20T11:17:11+01:00</time>
      </trkpt>
      <trkpt lat="43.50727" lon="6.78605">
        <ele>263</ele>
        <time>2011-03-20T11:17:17+01:00</time>
      </trkpt>
      <trkpt lat="43.50706" lon="6.78591">
        <ele>264</ele>
        <time>2011-03-20T11:17:23+01:00</time>
      </trkpt>
      <trkpt lat="43.50685" lon="6.78591">
        <ele>266</ele>
        <time>2011-03-20T11:17:28+01:00</time>
      </trkpt>
      <trkpt lat="43.50664" lon="6.78586">
        <ele>272</ele>
        <time>2011-03-20T11:17:34+01:00</time>
      </trkpt>
      <trkpt lat="43.50641" lon="6.78587">
        <ele>269</ele>
        <time>2011-03-20T11:17:40+01:00</time>
      </trkpt>
      <trkpt lat="43.50616" lon="6.7859">
        <ele>269</ele>
        <time>2011-03-20T11:17:46+01:00</time>
      </trkpt>
      <trkpt lat="43.50597" lon="6.78583">
        <ele>279</ele>
        <time>2011-03-20T11:17:51+01:00</time>
      </trkpt>
      <trkpt lat="43.50573" lon="6.78564">
        <ele>285</ele>
        <time>2011-03-20T11:17:58+01:00</time>
      </trkpt>
      <trkpt lat="43.50555" lon="6.78554">
        <ele>290</ele>
        <time>2011-03-20T11:18:04+01:00</time>
      </trkpt>
      <trkpt lat="43.5055" lon="6.78552">
        <ele>291</ele>
        <time>2011-03-20T11:18:06+01:00</time>
      </trkpt>
      <trkpt lat="43.50541" lon="6.78563">
        <ele>291</ele>
        <time>2011-03-20T11:18:11+01:00</time>
      </trkpt>
      <trkpt lat="43.50542" lon="6.78578">
        <ele>290</ele>
        <time>2011-03-20T11:18:15+01:00</time>
      </trkpt>
      <trkpt lat="43.50543" lon="6.78583">
        <ele>289</ele>
        <time>2011-03-20T11:18:16+01:00</time>
      </trkpt>
      <trkpt lat="43.50546" lon="6.78616">
        <ele>284</ele>
        <time>2011-03-20T11:18:22+01:00</time>
      </trkpt>
      <trkpt lat="43.50556" lon="6.78651">
        <ele>281</ele>
        <time>2011-03-20T11:18:28+01:00</time>
      </trkpt>
      <trkpt lat="43.5057" lon="6.78683">
        <ele>278</ele>
        <time>2011-03-20T11:18:35+01:00</time>
      </trkpt>
      <trkpt lat="43.50576" lon="6.78713">
        <ele>280</ele>
        <time>2011-03-20T11:18:41+01:00</time>
      </trkpt>
      <trkpt lat="43.50574" lon="6.78752">
        <ele>275</ele>
        <time>2011-03-20T11:18:49+01:00</time>
      </trkpt>
      <trkpt lat="43.50567" lon="6.78768">
        <ele>279</ele>
        <time>2011-03-20T11:18:54+01:00</time>
      </trkpt>
      <trkpt lat="43.50558" lon="6.7878">
        <ele>281</ele>
        <time>2011-03-20T11:19:00+01:00</time>
      </trkpt>
      <trkpt lat="43.50547" lon="6.78788">
        <ele>283</ele>
        <time>2011-03-20T11:19:06+01:00</time>
      </trkpt>
      <trkpt lat="43.50536" lon="6.78803">
        <ele>285</ele>
        <time>2011-03-20T11:19:13+01:00</time>
      </trkpt>
      <trkpt lat="43.50529" lon="6.78823">
        <ele>287</ele>
        <time>2011-03-20T11:19:19+01:00</time>
      </trkpt>
      <trkpt lat="43.50525" lon="6.78848">
        <ele>288</ele>
        <time>2011-03-20T11:19:26+01:00</time>
      </trkpt>
      <trkpt lat="43.50526" lon="6.78872">
        <ele>287</ele>
        <time>2011-03-20T11:19:32+01:00</time>
      </trkpt>
      <trkpt lat="43.50536" lon="6.78886">
        <ele>286</ele>
        <time>2011-03-20T11:19:37+01:00</time>
      </trkpt>
      <trkpt lat="43.50555" lon="6.78904">
        <ele>283</ele>
        <time>2011-03-20T11:19:45+01:00</time>
      </trkpt>
      <trkpt lat="43.50567" lon="6.78919">
        <ele>282</ele>
        <time>2011-03-20T11:19:51+01:00</time>
      </trkpt>
      <trkpt lat="43.50569" lon="6.78935">
        <ele>283</ele>
        <time>2011-03-20T11:19:56+01:00</time>
      </trkpt>
      <trkpt lat="43.50569" lon="6.78938">
        <ele>284</ele>
        <time>2011-03-20T11:19:58+01:00</time>
      </trkpt>
      <trkpt lat="43.5057" lon="6.78941">
        <ele>284</ele>
        <time>2011-03-20T11:20:07+01:00</time>
      </trkpt>
      <trkpt lat="43.5057" lon="6.78942">
        <ele>284</ele>
        <time>2011-03-20T11:20:17+01:00</time>
      </trkpt>
      <trkpt lat="43.50569" lon="6.78939">
        <ele>284</ele>
        <time>2011-03-20T11:20:20+01:00</time>
      </trkpt>
      <trkpt lat="43.50568" lon="6.78925">
        <ele>283</ele>
        <time>2011-03-20T11:20:26+01:00</time>
      </trkpt>
      <trkpt lat="43.50564" lon="6.78923">
        <ele>283</ele>
        <time>2011-03-20T11:20:31+01:00</time>
      </trkpt>
      <trkpt lat="43.50564" lon="6.78928">
        <ele>284</ele>
        <time>2011-03-20T11:20:35+01:00</time>
      </trkpt>
      <trkpt lat="43.5056" lon="6.7894">
        <ele>285</ele>
        <time>2011-03-20T11:20:42+01:00</time>
      </trkpt>
      <trkpt lat="43.50555" lon="6.78939">
        <ele>286</ele>
        <time>2011-03-20T11:20:46+01:00</time>
      </trkpt>
      <trkpt lat="43.5055" lon="6.78937">
        <ele>286</ele>
        <time>2011-03-20T11:20:51+01:00</time>
      </trkpt>
      <trkpt lat="43.50546" lon="6.78942">
        <ele>287</ele>
        <time>2011-03-20T11:20:58+01:00</time>
      </trkpt>
      <trkpt lat="43.50546" lon="6.78944">
        <ele>287</ele>
        <time>2011-03-20T11:21:06+01:00</time>
      </trkpt>
      <trkpt lat="43.50546" lon="6.78947">
        <ele>287</ele>
        <time>2011-03-20T11:21:12+01:00</time>
      </trkpt>
      <trkpt lat="43.50544" lon="6.7895">
        <ele>287</ele>
        <time>2011-03-20T11:21:20+01:00</time>
      </trkpt>
      <trkpt lat="43.5054" lon="6.78965">
        <ele>288</ele>
        <time>2011-03-20T11:21:26+01:00</time>
      </trkpt>
      <trkpt lat="43.50534" lon="6.78982">
        <ele>289</ele>
        <time>2011-03-20T11:21:32+01:00</time>
      </trkpt>
      <trkpt lat="43.50524" lon="6.79002">
        <ele>288</ele>
        <time>2011-03-20T11:21:39+01:00</time>
      </trkpt>
      <trkpt lat="43.50512" lon="6.79017">
        <ele>289</ele>
        <time>2011-03-20T11:21:46+01:00</time>
      </trkpt>
      <trkpt lat="43.50498" lon="6.7903">
        <ele>295</ele>
        <time>2011-03-20T11:21:53+01:00</time>
      </trkpt>
      <trkpt lat="43.50483" lon="6.79035">
        <ele>296</ele>
        <time>2011-03-20T11:22:00+01:00</time>
      </trkpt>
      <trkpt lat="43.5047" lon="6.79032">
        <ele>296</ele>
        <time>2011-03-20T11:22:07+01:00</time>
      </trkpt>
      <trkpt lat="43.5046" lon="6.79021">
        <ele>297</ele>
        <time>2011-03-20T11:22:14+01:00</time>
      </trkpt>
      <trkpt lat="43.50462" lon="6.79008">
        <ele>298</ele>
        <time>2011-03-20T11:22:19+01:00</time>
      </trkpt>
      <trkpt lat="43.50468" lon="6.79">
        <ele>298</ele>
        <time>2011-03-20T11:22:24+01:00</time>
      </trkpt>
      <trkpt lat="43.50473" lon="6.78979">
        <ele>303</ele>
        <time>2011-03-20T11:22:33+01:00</time>
      </trkpt>
      <trkpt lat="43.50472" lon="6.78959">
        <ele>304</ele>
        <time>2011-03-20T11:22:41+01:00</time>
      </trkpt>
      <trkpt lat="43.50469" lon="6.78941">
        <ele>304</ele>
        <time>2011-03-20T11:22:48+01:00</time>
      </trkpt>
      <trkpt lat="43.50462" lon="6.78918">
        <ele>305</ele>
        <time>2011-03-20T11:22:57+01:00</time>
      </trkpt>
      <trkpt lat="43.50456" lon="6.78897">
        <ele>308</ele>
        <time>2011-03-20T11:23:05+01:00</time>
      </trkpt>
      <trkpt lat="43.50452" lon="6.78877">
        <ele>309</ele>
        <time>2011-03-20T11:23:13+01:00</time>
      </trkpt>
      <trkpt lat="43.5045" lon="6.78852">
        <ele>309</ele>
        <time>2011-03-20T11:23:23+01:00</time>
      </trkpt>
      <trkpt lat="43.50448" lon="6.78833">
        <ele>310</ele>
        <time>2011-03-20T11:23:30+01:00</time>
      </trkpt>
      <trkpt lat="43.50445" lon="6.78814">
        <ele>310</ele>
        <time>2011-03-20T11:23:37+01:00</time>
      </trkpt>
      <trkpt lat="43.50439" lon="6.78792">
        <ele>311</ele>
        <time>2011-03-20T11:23:45+01:00</time>
      </trkpt>
      <trkpt lat="43.50428" lon="6.78768">
        <ele>313</ele>
        <time>2011-03-20T11:23:54+01:00</time>
      </trkpt>
      <trkpt lat="43.50415" lon="6.78756">
        <ele>317</ele>
        <time>2011-03-20T11:24:01+01:00</time>
      </trkpt>
      <trkpt lat="43.50414" lon="6.78738">
        <ele>314</ele>
        <time>2011-03-20T11:24:06+01:00</time>
      </trkpt>
      <trkpt lat="43.50418" lon="6.78714">
        <ele>311</ele>
        <time>2011-03-20T11:24:12+01:00</time>
      </trkpt>
      <trkpt lat="43.50419" lon="6.78687">
        <ele>311</ele>
        <time>2011-03-20T11:24:19+01:00</time>
      </trkpt>
      <trkpt lat="43.50424" lon="6.78665">
        <ele>312</ele>
        <time>2011-03-20T11:24:25+01:00</time>
      </trkpt>
      <trkpt lat="43.50424" lon="6.78637">
        <ele>309</ele>
        <time>2011-03-20T11:24:31+01:00</time>
      </trkpt>
      <trkpt lat="43.50423" lon="6.78603">
        <ele>309</ele>
        <time>2011-03-20T11:24:37+01:00</time>
      </trkpt>
      <trkpt lat="43.50428" lon="6.78578">
        <ele>311</ele>
        <time>2011-03-20T11:24:42+01:00</time>
      </trkpt>
      <trkpt lat="43.50432" lon="6.78555">
        <ele>311</ele>
        <time>2011-03-20T11:24:46+01:00</time>
      </trkpt>
      <trkpt lat="43.50434" lon="6.78544">
        <ele>311</ele>
        <time>2011-03-20T11:24:48+01:00</time>
      </trkpt>
      <trkpt lat="43.50439" lon="6.78515">
        <ele>313</ele>
        <time>2011-03-20T11:24:54+01:00</time>
      </trkpt>
      <trkpt lat="43.50444" lon="6.78482">
        <ele>322</ele>
        <time>2011-03-20T11:25:01+01:00</time>
      </trkpt>
      <trkpt lat="43.50449" lon="6.78465">
        <ele>323</ele>
        <time>2011-03-20T11:25:06+01:00</time>
      </trkpt>
      <trkpt lat="43.50455" lon="6.7845">
        <ele>324</ele>
        <time>2011-03-20T11:25:11+01:00</time>
      </trkpt>
      <trkpt lat="43.50466" lon="6.78434">
        <ele>325</ele>
        <time>2011-03-20T11:25:15+01:00</time>
      </trkpt>
      <trkpt lat="43.50482" lon="6.78424">
        <ele>325</ele>
        <time>2011-03-20T11:25:19+01:00</time>
      </trkpt>
      <trkpt lat="43.50497" lon="6.78416">
        <ele>329</ele>
        <time>2011-03-20T11:25:24+01:00</time>
      </trkpt>
      <trkpt lat="43.50519" lon="6.78397">
        <ele>335</ele>
        <time>2011-03-20T11:25:30+01:00</time>
      </trkpt>
      <trkpt lat="43.50523" lon="6.78393">
        <ele>336</ele>
        <time>2011-03-20T11:25:31+01:00</time>
      </trkpt>
      <trkpt lat="43.50542" lon="6.78385">
        <ele>337</ele>
        <time>2011-03-20T11:25:35+01:00</time>
      </trkpt>
      <trkpt lat="43.50556" lon="6.78391">
        <ele>336</ele>
        <time>2011-03-20T11:25:38+01:00</time>
      </trkpt>
      <trkpt lat="43.50562" lon="6.78401">
        <ele>333</ele>
        <time>2011-03-20T11:25:40+01:00</time>
      </trkpt>
      <trkpt lat="43.50577" lon="6.78424">
        <ele>319</ele>
        <time>2011-03-20T11:25:45+01:00</time>
      </trkpt>
      <trkpt lat="43.50595" lon="6.78448">
        <ele>313</ele>
        <time>2011-03-20T11:25:49+01:00</time>
      </trkpt>
      <trkpt lat="43.50607" lon="6.78458">
        <ele>311</ele>
        <time>2011-03-20T11:25:51+01:00</time>
      </trkpt>
      <trkpt lat="43.50635" lon="6.7847">
        <ele>309</ele>
        <time>2011-03-20T11:25:55+01:00</time>
      </trkpt>
      <trkpt lat="43.50673" lon="6.78471">
        <ele>306</ele>
        <time>2011-03-20T11:26:00+01:00</time>
      </trkpt>
      <trkpt lat="43.50689" lon="6.78468">
        <ele>306</ele>
        <time>2011-03-20T11:26:02+01:00</time>
      </trkpt>
      <trkpt lat="43.5071" lon="6.78458">
        <ele>305</ele>
        <time>2011-03-20T11:26:05+01:00</time>
      </trkpt>
      <trkpt lat="43.50733" lon="6.78427">
        <ele>304</ele>
        <time>2011-03-20T11:26:10+01:00</time>
      </trkpt>
      <trkpt lat="43.50735" lon="6.78419">
        <ele>304</ele>
        <time>2011-03-20T11:26:11+01:00</time>
      </trkpt>
      <trkpt lat="43.5074" lon="6.78392">
        <ele>312</ele>
        <time>2011-03-20T11:26:14+01:00</time>
      </trkpt>
      <trkpt lat="43.50742" lon="6.78356">
        <ele>314</ele>
        <time>2011-03-20T11:26:18+01:00</time>
      </trkpt>
      <trkpt lat="43.50754" lon="6.78331">
        <ele>307</ele>
        <time>2011-03-20T11:26:22+01:00</time>
      </trkpt>
      <trkpt lat="43.50756" lon="6.78326">
        <ele>306</ele>
        <time>2011-03-20T11:26:23+01:00</time>
      </trkpt>
      <trkpt lat="43.50776" lon="6.78305">
        <ele>304</ele>
        <time>2011-03-20T11:26:28+01:00</time>
      </trkpt>
      <trkpt lat="43.50802" lon="6.78282">
        <ele>303</ele>
        <time>2011-03-20T11:26:33+01:00</time>
      </trkpt>
      <trkpt lat="43.50829" lon="6.78258">
        <ele>301</ele>
        <time>2011-03-20T11:26:38+01:00</time>
      </trkpt>
      <trkpt lat="43.50845" lon="6.78242">
        <ele>297</ele>
        <time>2011-03-20T11:26:43+01:00</time>
      </trkpt>
      <trkpt lat="43.50853" lon="6.78238">
        <ele>295</ele>
        <time>2011-03-20T11:26:46+01:00</time>
      </trkpt>
      <trkpt lat="43.50857" lon="6.78229">
        <ele>295</ele>
        <time>2011-03-20T11:26:50+01:00</time>
      </trkpt>
      <trkpt lat="43.5086" lon="6.78222">
        <ele>295</ele>
        <time>2011-03-20T11:26:52+01:00</time>
      </trkpt>
      <trkpt lat="43.5087" lon="6.78207">
        <ele>295</ele>
        <time>2011-03-20T11:26:58+01:00</time>
      </trkpt>
      <trkpt lat="43.5088" lon="6.78194">
        <ele>294</ele>
        <time>2011-03-20T11:27:02+01:00</time>
      </trkpt>
      <trkpt lat="43.50892" lon="6.78181">
        <ele>293</ele>
        <time>2011-03-20T11:27:06+01:00</time>
      </trkpt>
      <trkpt lat="43.50902" lon="6.78168">
        <ele>292</ele>
        <time>2011-03-20T11:27:10+01:00</time>
      </trkpt>
      <trkpt lat="43.50917" lon="6.78155">
        <ele>289</ele>
        <time>2011-03-20T11:27:14+01:00</time>
      </trkpt>
      <trkpt lat="43.5094" lon="6.78141">
        <ele>289</ele>
        <time>2011-03-20T11:27:19+01:00</time>
      </trkpt>
      <trkpt lat="43.50948" lon="6.78136">
        <ele>288</ele>
        <time>2011-03-20T11:27:21+01:00</time>
      </trkpt>
      <trkpt lat="43.50959" lon="6.78128">
        <ele>288</ele>
        <time>2011-03-20T11:27:25+01:00</time>
      </trkpt>
      <trkpt lat="43.50966" lon="6.78119">
        <ele>288</ele>
        <time>2011-03-20T11:27:28+01:00</time>
      </trkpt>
      <trkpt lat="43.50976" lon="6.7811">
        <ele>288</ele>
        <time>2011-03-20T11:27:33+01:00</time>
      </trkpt>
      <trkpt lat="43.50978" lon="6.78108">
        <ele>288</ele>
        <time>2011-03-20T11:27:35+01:00</time>
      </trkpt>
      <trkpt lat="43.50982" lon="6.78104">
        <ele>288</ele>
        <time>2011-03-20T11:27:40+01:00</time>
      </trkpt>
      <trkpt lat="43.50983" lon="6.78103">
        <ele>288</ele>
        <time>2011-03-20T11:27:41+01:00</time>
      </trkpt>
      <trkpt lat="43.50985" lon="6.78102">
        <ele>288</ele>
        <time>2011-03-20T11:27:44+01:00</time>
      </trkpt>
      <trkpt lat="43.50993" lon="6.78099">
        <ele>288</ele>
        <time>2011-03-20T11:27:48+01:00</time>
      </trkpt>
      <trkpt lat="43.50999" lon="6.78088">
        <ele>290</ele>
        <time>2011-03-20T11:27:53+01:00</time>
      </trkpt>
      <trkpt lat="43.51001" lon="6.78087">
        <ele>285</ele>
        <time>2011-03-20T11:27:55+01:00</time>
      </trkpt>
      <trkpt lat="43.51011" lon="6.78082">
        <ele>282</ele>
        <time>2011-03-20T11:28:00+01:00</time>
      </trkpt>
      <trkpt lat="43.51018" lon="6.78076">
        <ele>278</ele>
        <time>2011-03-20T11:28:03+01:00</time>
      </trkpt>
      <trkpt lat="43.51022" lon="6.78068">
        <ele>275</ele>
        <time>2011-03-20T11:28:08+01:00</time>
      </trkpt>
      <trkpt lat="43.51031" lon="6.78054">
        <ele>271</ele>
        <time>2011-03-20T11:28:14+01:00</time>
      </trkpt>
      <trkpt lat="43.51031" lon="6.78051">
        <ele>271</ele>
        <time>2011-03-20T11:28:15+01:00</time>
      </trkpt>
      <trkpt lat="43.51035" lon="6.78035">
        <ele>270</ele>
        <time>2011-03-20T11:28:20+01:00</time>
      </trkpt>
      <trkpt lat="43.51035" lon="6.78033">
        <ele>270</ele>
        <time>2011-03-20T11:28:26+01:00</time>
      </trkpt>
      <trkpt lat="43.51037" lon="6.78032">
        <ele>270</ele>
        <time>2011-03-20T11:28:31+01:00</time>
      </trkpt>
      <trkpt lat="43.51035" lon="6.78032">
        <ele>270</ele>
        <time>2011-03-20T11:28:34+01:00</time>
      </trkpt>
      <trkpt lat="43.51036" lon="6.78036">
        <ele>270</ele>
        <time>2011-03-20T11:28:39+01:00</time>
      </trkpt>
      <trkpt lat="43.51036" lon="6.78036">
        <ele>270</ele>
        <time>2011-03-20T11:28:41+01:00</time>
      </trkpt>
      <trkpt lat="43.51032" lon="6.78046">
        <ele>271</ele>
        <time>2011-03-20T11:28:45+01:00</time>
      </trkpt>
      <trkpt lat="43.51026" lon="6.78059">
        <ele>273</ele>
        <time>2011-03-20T11:28:50+01:00</time>
      </trkpt>
      <trkpt lat="43.51021" lon="6.78072">
        <ele>276</ele>
        <time>2011-03-20T11:28:55+01:00</time>
      </trkpt>
      <trkpt lat="43.5101" lon="6.78082">
        <ele>283</ele>
        <time>2011-03-20T11:29:01+01:00</time>
      </trkpt>
      <trkpt lat="43.51009" lon="6.78082">
        <ele>283</ele>
        <time>2011-03-20T11:29:03+01:00</time>
      </trkpt>
      <trkpt lat="43.51005" lon="6.78084">
        <ele>284</ele>
        <time>2011-03-20T11:29:09+01:00</time>
      </trkpt>
      <trkpt lat="43.51001" lon="6.78084">
        <ele>289</ele>
        <time>2011-03-20T11:29:11+01:00</time>
      </trkpt>
      <trkpt lat="43.50993" lon="6.78093">
        <ele>289</ele>
        <time>2011-03-20T11:29:16+01:00</time>
      </trkpt>
      <trkpt lat="43.50991" lon="6.78094">
        <ele>289</ele>
        <time>2011-03-20T11:29:19+01:00</time>
      </trkpt>
      <trkpt lat="43.50986" lon="6.78097">
        <ele>289</ele>
        <time>2011-03-20T11:29:25+01:00</time>
      </trkpt>
      <trkpt lat="43.50983" lon="6.781">
        <ele>289</ele>
        <time>2011-03-20T11:29:30+01:00</time>
      </trkpt>
      <trkpt lat="43.50979" lon="6.78104">
        <ele>288</ele>
        <time>2011-03-20T11:29:36+01:00</time>
      </trkpt>
      <trkpt lat="43.50975" lon="6.78106">
        <ele>288</ele>
        <time>2011-03-20T11:29:41+01:00</time>
      </trkpt>
      <trkpt lat="43.50974" lon="6.78107">
        <ele>288</ele>
        <time>2011-03-20T11:29:42+01:00</time>
      </trkpt>
      <trkpt lat="43.50965" lon="6.78118">
        <ele>288</ele>
        <time>2011-03-20T11:29:47+01:00</time>
      </trkpt>
      <trkpt lat="43.5095" lon="6.78131">
        <ele>288</ele>
        <time>2011-03-20T11:29:52+01:00</time>
      </trkpt>
      <trkpt lat="43.50943" lon="6.78135">
        <ele>289</ele>
        <time>2011-03-20T11:29:56+01:00</time>
      </trkpt>
      <trkpt lat="43.5093" lon="6.78146">
        <ele>289</ele>
        <time>2011-03-20T11:30:02+01:00</time>
      </trkpt>
      <trkpt lat="43.50916" lon="6.78154">
        <ele>298</ele>
        <time>2011-03-20T11:30:09+01:00</time>
      </trkpt>
      <trkpt lat="43.509" lon="6.78168">
        <ele>292</ele>
        <time>2011-03-20T11:30:16+01:00</time>
      </trkpt>
      <trkpt lat="43.50888" lon="6.78182">
        <ele>294</ele>
        <time>2011-03-20T11:30:22+01:00</time>
      </trkpt>
      <trkpt lat="43.50879" lon="6.78193">
        <ele>295</ele>
        <time>2011-03-20T11:30:27+01:00</time>
      </trkpt>
      <trkpt lat="43.50869" lon="6.78205">
        <ele>295</ele>
        <time>2011-03-20T11:30:32+01:00</time>
      </trkpt>
      <trkpt lat="43.50861" lon="6.78217">
        <ele>295</ele>
        <time>2011-03-20T11:30:38+01:00</time>
      </trkpt>
      <trkpt lat="43.50857" lon="6.78226">
        <ele>295</ele>
        <time>2011-03-20T11:30:43+01:00</time>
      </trkpt>
      <trkpt lat="43.50851" lon="6.78237">
        <ele>296</ele>
        <time>2011-03-20T11:30:48+01:00</time>
      </trkpt>
      <trkpt lat="43.50846" lon="6.78239">
        <ele>297</ele>
        <time>2011-03-20T11:30:51+01:00</time>
      </trkpt>
      <trkpt lat="43.50843" lon="6.78241">
        <ele>297</ele>
        <time>2011-03-20T11:30:56+01:00</time>
      </trkpt>
      <trkpt lat="43.50841" lon="6.78243">
        <ele>298</ele>
        <time>2011-03-20T11:31:00+01:00</time>
      </trkpt>
      <trkpt lat="43.5083" lon="6.78253">
        <ele>301</ele>
        <time>2011-03-20T11:31:05+01:00</time>
      </trkpt>
      <trkpt lat="43.50815" lon="6.78267">
        <ele>302</ele>
        <time>2011-03-20T11:31:12+01:00</time>
      </trkpt>
      <trkpt lat="43.508" lon="6.78282">
        <ele>303</ele>
        <time>2011-03-20T11:31:19+01:00</time>
      </trkpt>
      <trkpt lat="43.50789" lon="6.78293">
        <ele>303</ele>
        <time>2011-03-20T11:31:25+01:00</time>
      </trkpt>
      <trkpt lat="43.50781" lon="6.78302">
        <ele>304</ele>
        <time>2011-03-20T11:31:30+01:00</time>
      </trkpt>
      <trkpt lat="43.50769" lon="6.78315">
        <ele>305</ele>
        <time>2011-03-20T11:31:36+01:00</time>
      </trkpt>
      <trkpt lat="43.50755" lon="6.78328">
        <ele>307</ele>
        <time>2011-03-20T11:31:43+01:00</time>
      </trkpt>
      <trkpt lat="43.50744" lon="6.78344">
        <ele>312</ele>
        <time>2011-03-20T11:31:50+01:00</time>
      </trkpt>
      <trkpt lat="43.50736" lon="6.78356">
        <ele>315</ele>
        <time>2011-03-20T11:31:54+01:00</time>
      </trkpt>
      <trkpt lat="43.50735" lon="6.7837">
        <ele>315</ele>
        <time>2011-03-20T11:31:59+01:00</time>
      </trkpt>
      <trkpt lat="43.50735" lon="6.7839">
        <ele>313</ele>
        <time>2011-03-20T11:32:05+01:00</time>
      </trkpt>
      <trkpt lat="43.50731" lon="6.78417">
        <ele>305</ele>
        <time>2011-03-20T11:32:12+01:00</time>
      </trkpt>
      <trkpt lat="43.50725" lon="6.78434">
        <ele>305</ele>
        <time>2011-03-20T11:32:18+01:00</time>
      </trkpt>
      <trkpt lat="43.50714" lon="6.78447">
        <ele>306</ele>
        <time>2011-03-20T11:32:25+01:00</time>
      </trkpt>
      <trkpt lat="43.50703" lon="6.78454">
        <ele>306</ele>
        <time>2011-03-20T11:32:32+01:00</time>
      </trkpt>
      <trkpt lat="43.50692" lon="6.78459">
        <ele>306</ele>
        <time>2011-03-20T11:32:37+01:00</time>
      </trkpt>
      <trkpt lat="43.50675" lon="6.78463">
        <ele>307</ele>
        <time>2011-03-20T11:32:45+01:00</time>
      </trkpt>
      <trkpt lat="43.50664" lon="6.78465">
        <ele>310</ele>
        <time>2011-03-20T11:32:51+01:00</time>
      </trkpt>
      <trkpt lat="43.50652" lon="6.78465">
        <ele>310</ele>
        <time>2011-03-20T11:32:57+01:00</time>
      </trkpt>
      <trkpt lat="43.50639" lon="6.78464">
        <ele>310</ele>
        <time>2011-03-20T11:33:03+01:00</time>
      </trkpt>
      <trkpt lat="43.50624" lon="6.7846">
        <ele>311</ele>
        <time>2011-03-20T11:33:10+01:00</time>
      </trkpt>
      <trkpt lat="43.50613" lon="6.78453">
        <ele>312</ele>
        <time>2011-03-20T11:33:16+01:00</time>
      </trkpt>
      <trkpt lat="43.50601" lon="6.78444">
        <ele>313</ele>
        <time>2011-03-20T11:33:23+01:00</time>
      </trkpt>
      <trkpt lat="43.50591" lon="6.78434">
        <ele>316</ele>
        <time>2011-03-20T11:33:30+01:00</time>
      </trkpt>
      <trkpt lat="43.50582" lon="6.78426">
        <ele>320</ele>
        <time>2011-03-20T11:33:36+01:00</time>
      </trkpt>
      <trkpt lat="43.50574" lon="6.78412">
        <ele>328</ele>
        <time>2011-03-20T11:33:44+01:00</time>
      </trkpt>
      <trkpt lat="43.50567" lon="6.78401">
        <ele>332</ele>
        <time>2011-03-20T11:33:50+01:00</time>
      </trkpt>
      <trkpt lat="43.50561" lon="6.78389">
        <ele>335</ele>
        <time>2011-03-20T11:33:56+01:00</time>
      </trkpt>
      <trkpt lat="43.50554" lon="6.78381">
        <ele>337</ele>
        <time>2011-03-20T11:34:01+01:00</time>
      </trkpt>
      <trkpt lat="43.50544" lon="6.78383">
        <ele>337</ele>
        <time>2011-03-20T11:34:05+01:00</time>
      </trkpt>
      <trkpt lat="43.50525" lon="6.78395">
        <ele>336</ele>
        <time>2011-03-20T11:34:13+01:00</time>
      </trkpt>
      <trkpt lat="43.50509" lon="6.7841">
        <ele>331</ele>
        <time>2011-03-20T11:34:18+01:00</time>
      </trkpt>
      <trkpt lat="43.50487" lon="6.78424">
        <ele>325</ele>
        <time>2011-03-20T11:34:25+01:00</time>
      </trkpt>
      <trkpt lat="43.50469" lon="6.7843">
        <ele>325</ele>
        <time>2011-03-20T11:34:29+01:00</time>
      </trkpt>
      <trkpt lat="43.50454" lon="6.78452">
        <ele>324</ele>
        <time>2011-03-20T11:34:34+01:00</time>
      </trkpt>
      <trkpt lat="43.50447" lon="6.78473">
        <ele>322</ele>
        <time>2011-03-20T11:34:38+01:00</time>
      </trkpt>
      <trkpt lat="43.50444" lon="6.78491">
        <ele>321</ele>
        <time>2011-03-20T11:34:41+01:00</time>
      </trkpt>
      <trkpt lat="43.50435" lon="6.78532">
        <ele>312</ele>
        <time>2011-03-20T11:34:48+01:00</time>
      </trkpt>
      <trkpt lat="43.50427" lon="6.78579">
        <ele>311</ele>
        <time>2011-03-20T11:34:55+01:00</time>
      </trkpt>
      <trkpt lat="43.50425" lon="6.78587">
        <ele>311</ele>
        <time>2011-03-20T11:34:56+01:00</time>
      </trkpt>
      <trkpt lat="43.50421" lon="6.786">
        <ele>310</ele>
        <time>2011-03-20T11:34:58+01:00</time>
      </trkpt>
      <trkpt lat="43.50421" lon="6.78617">
        <ele>308</ele>
        <time>2011-03-20T11:35:02+01:00</time>
      </trkpt>
      <trkpt lat="43.50423" lon="6.78633">
        <ele>309</ele>
        <time>2011-03-20T11:35:07+01:00</time>
      </trkpt>
      <trkpt lat="43.50423" lon="6.78653">
        <ele>310</ele>
        <time>2011-03-20T11:35:14+01:00</time>
      </trkpt>
      <trkpt lat="43.50423" lon="6.7867">
        <ele>313</ele>
        <time>2011-03-20T11:35:20+01:00</time>
      </trkpt>
      <trkpt lat="43.50417" lon="6.78691">
        <ele>311</ele>
        <time>2011-03-20T11:35:26+01:00</time>
      </trkpt>
      <trkpt lat="43.50417" lon="6.78714">
        <ele>311</ele>
        <time>2011-03-20T11:35:30+01:00</time>
      </trkpt>
      <trkpt lat="43.50412" lon="6.7874">
        <ele>315</ele>
        <time>2011-03-20T11:35:34+01:00</time>
      </trkpt>
      <trkpt lat="43.50411" lon="6.78751">
        <ele>317</ele>
        <time>2011-03-20T11:35:36+01:00</time>
      </trkpt>
      <trkpt lat="43.50406" lon="6.78772">
        <ele>316</ele>
        <time>2011-03-20T11:35:40+01:00</time>
      </trkpt>
      <trkpt lat="43.50386" lon="6.78813">
        <ele>315</ele>
        <time>2011-03-20T11:35:48+01:00</time>
      </trkpt>
      <trkpt lat="43.50383" lon="6.78818">
        <ele>315</ele>
        <time>2011-03-20T11:35:49+01:00</time>
      </trkpt>
      <trkpt lat="43.50362" lon="6.78848">
        <ele>318</ele>
        <time>2011-03-20T11:35:57+01:00</time>
      </trkpt>
      <trkpt lat="43.50338" lon="6.78886">
        <ele>319</ele>
        <time>2011-03-20T11:36:06+01:00</time>
      </trkpt>
      <trkpt lat="43.50325" lon="6.78911">
        <ele>320</ele>
        <time>2011-03-20T11:36:11+01:00</time>
      </trkpt>
      <trkpt lat="43.50316" lon="6.78921">
        <ele>322</ele>
        <time>2011-03-20T11:36:14+01:00</time>
      </trkpt>
      <trkpt lat="43.50299" lon="6.78928">
        <ele>322</ele>
        <time>2011-03-20T11:36:20+01:00</time>
      </trkpt>
      <trkpt lat="43.50289" lon="6.7893">
        <ele>322</ele>
        <time>2011-03-20T11:36:25+01:00</time>
      </trkpt>
      <trkpt lat="43.50277" lon="6.78932">
        <ele>322</ele>
        <time>2011-03-20T11:36:30+01:00</time>
      </trkpt>
      <trkpt lat="43.50258" lon="6.78938">
        <ele>323</ele>
        <time>2011-03-20T11:36:38+01:00</time>
      </trkpt>
      <trkpt lat="43.50245" lon="6.78946">
        <ele>320</ele>
        <time>2011-03-20T11:36:44+01:00</time>
      </trkpt>
      <trkpt lat="43.50235" lon="6.78959">
        <ele>320</ele>
        <time>2011-03-20T11:36:50+01:00</time>
      </trkpt>
      <trkpt lat="43.50223" lon="6.78977">
        <ele>320</ele>
        <time>2011-03-20T11:36:58+01:00</time>
      </trkpt>
      <trkpt lat="43.50216" lon="6.78994">
        <ele>320</ele>
        <time>2011-03-20T11:37:05+01:00</time>
      </trkpt>
      <trkpt lat="43.50212" lon="6.79011">
        <ele>321</ele>
        <time>2011-03-20T11:37:11+01:00</time>
      </trkpt>
      <trkpt lat="43.50206" lon="6.79037">
        <ele>321</ele>
        <time>2011-03-20T11:37:18+01:00</time>
      </trkpt>
      <trkpt lat="43.50203" lon="6.79057">
        <ele>321</ele>
        <time>2011-03-20T11:37:23+01:00</time>
      </trkpt>
      <trkpt lat="43.502" lon="6.79094">
        <ele>321</ele>
        <time>2011-03-20T11:37:28+01:00</time>
      </trkpt>
      <trkpt lat="43.50199" lon="6.79103">
        <ele>321</ele>
        <time>2011-03-20T11:37:29+01:00</time>
      </trkpt>
      <trkpt lat="43.50186" lon="6.79146">
        <ele>320</ele>
        <time>2011-03-20T11:37:35+01:00</time>
      </trkpt>
      <trkpt lat="43.50178" lon="6.79167">
        <ele>318</ele>
        <time>2011-03-20T11:37:38+01:00</time>
      </trkpt>
      <trkpt lat="43.5017" lon="6.7922">
        <ele>317</ele>
        <time>2011-03-20T11:37:44+01:00</time>
      </trkpt>
      <trkpt lat="43.50163" lon="6.79249">
        <ele>312</ele>
        <time>2011-03-20T11:37:47+01:00</time>
      </trkpt>
      <trkpt lat="43.50164" lon="6.79293">
        <ele>303</ele>
        <time>2011-03-20T11:37:51+01:00</time>
      </trkpt>
      <trkpt lat="43.50177" lon="6.79317">
        <ele>309</ele>
        <time>2011-03-20T11:37:55+01:00</time>
      </trkpt>
      <trkpt lat="43.5019" lon="6.79312">
        <ele>309</ele>
        <time>2011-03-20T11:37:58+01:00</time>
      </trkpt>
      <trkpt lat="43.50205" lon="6.79309">
        <ele>310</ele>
        <time>2011-03-20T11:38:02+01:00</time>
      </trkpt>
      <trkpt lat="43.50209" lon="6.79323">
        <ele>309</ele>
        <time>2011-03-20T11:38:05+01:00</time>
      </trkpt>
      <trkpt lat="43.50213" lon="6.79331">
        <ele>309</ele>
        <time>2011-03-20T11:38:08+01:00</time>
      </trkpt>
      <trkpt lat="43.50217" lon="6.79347">
        <ele>305</ele>
        <time>2011-03-20T11:38:14+01:00</time>
      </trkpt>
      <trkpt lat="43.50218" lon="6.7935">
        <ele>305</ele>
        <time>2011-03-20T11:38:15+01:00</time>
      </trkpt>
      <trkpt lat="43.50219" lon="6.79369">
        <ele>304</ele>
        <time>2011-03-20T11:38:19+01:00</time>
      </trkpt>
      <trkpt lat="43.50207" lon="6.79397">
        <ele>304</ele>
        <time>2011-03-20T11:38:23+01:00</time>
      </trkpt>
      <trkpt lat="43.50209" lon="6.79429">
        <ele>304</ele>
        <time>2011-03-20T11:38:27+01:00</time>
      </trkpt>
      <trkpt lat="43.50215" lon="6.79459">
        <ele>304</ele>
        <time>2011-03-20T11:38:30+01:00</time>
      </trkpt>
      <trkpt lat="43.50216" lon="6.7947">
        <ele>305</ele>
        <time>2011-03-20T11:38:31+01:00</time>
      </trkpt>
      <trkpt lat="43.50226" lon="6.79524">
        <ele>307</ele>
        <time>2011-03-20T11:38:36+01:00</time>
      </trkpt>
      <trkpt lat="43.50247" lon="6.79542">
        <ele>307</ele>
        <time>2011-03-20T11:38:39+01:00</time>
      </trkpt>
      <trkpt lat="43.5026" lon="6.7954">
        <ele>294</ele>
        <time>2011-03-20T11:38:41+01:00</time>
      </trkpt>
      <trkpt lat="43.50289" lon="6.79529">
        <ele>291</ele>
        <time>2011-03-20T11:38:45+01:00</time>
      </trkpt>
      <trkpt lat="43.50311" lon="6.79536">
        <ele>288</ele>
        <time>2011-03-20T11:38:48+01:00</time>
      </trkpt>
      <trkpt lat="43.50325" lon="6.79561">
        <ele>287</ele>
        <time>2011-03-20T11:38:51+01:00</time>
      </trkpt>
      <trkpt lat="43.50335" lon="6.79571">
        <ele>277</ele>
        <time>2011-03-20T11:38:54+01:00</time>
      </trkpt>
      <trkpt lat="43.5034" lon="6.79561">
        <ele>275</ele>
        <time>2011-03-20T11:38:56+01:00</time>
      </trkpt>
      <trkpt lat="43.50335" lon="6.79535">
        <ele>274</ele>
        <time>2011-03-20T11:38:59+01:00</time>
      </trkpt>
      <trkpt lat="43.50331" lon="6.79516">
        <ele>284</ele>
        <time>2011-03-20T11:39:02+01:00</time>
      </trkpt>
      <trkpt lat="43.5034" lon="6.79514">
        <ele>276</ele>
        <time>2011-03-20T11:39:04+01:00</time>
      </trkpt>
      <trkpt lat="43.50355" lon="6.79533">
        <ele>273</ele>
        <time>2011-03-20T11:39:07+01:00</time>
      </trkpt>
      <trkpt lat="43.50363" lon="6.79561">
        <ele>273</ele>
        <time>2011-03-20T11:39:10+01:00</time>
      </trkpt>
      <trkpt lat="43.50358" lon="6.7958">
        <ele>274</ele>
        <time>2011-03-20T11:39:12+01:00</time>
      </trkpt>
      <trkpt lat="43.50356" lon="6.79601">
        <ele>273</ele>
        <time>2011-03-20T11:39:16+01:00</time>
      </trkpt>
      <trkpt lat="43.50367" lon="6.79591">
        <ele>272</ele>
        <time>2011-03-20T11:39:19+01:00</time>
      </trkpt>
      <trkpt lat="43.504" lon="6.79549">
        <ele>268</ele>
        <time>2011-03-20T11:39:25+01:00</time>
      </trkpt>
      <trkpt lat="43.50426" lon="6.79519">
        <ele>259</ele>
        <time>2011-03-20T11:39:30+01:00</time>
      </trkpt>
      <trkpt lat="43.50436" lon="6.79502">
        <ele>259</ele>
        <time>2011-03-20T11:39:33+01:00</time>
      </trkpt>
      <trkpt lat="43.50445" lon="6.79506">
        <ele>258</ele>
        <time>2011-03-20T11:39:35+01:00</time>
      </trkpt>
      <trkpt lat="43.50447" lon="6.7952">
        <ele>257</ele>
        <time>2011-03-20T11:39:37+01:00</time>
      </trkpt>
      <trkpt lat="43.5044" lon="6.79534">
        <ele>257</ele>
        <time>2011-03-20T11:39:39+01:00</time>
      </trkpt>
      <trkpt lat="43.50433" lon="6.79556">
        <ele>257</ele>
        <time>2011-03-20T11:39:43+01:00</time>
      </trkpt>
      <trkpt lat="43.50444" lon="6.79554">
        <ele>256</ele>
        <time>2011-03-20T11:39:46+01:00</time>
      </trkpt>
      <trkpt lat="43.50486" lon="6.79515">
        <ele>253</ele>
        <time>2011-03-20T11:39:53+01:00</time>
      </trkpt>
      <trkpt lat="43.50493" lon="6.7951">
        <ele>252</ele>
        <time>2011-03-20T11:39:54+01:00</time>
      </trkpt>
      <trkpt lat="43.50512" lon="6.79475">
        <ele>246</ele>
        <time>2011-03-20T11:39:58+01:00</time>
      </trkpt>
      <trkpt lat="43.50537" lon="6.79437">
        <ele>244</ele>
        <time>2011-03-20T11:40:02+01:00</time>
      </trkpt>
      <trkpt lat="43.50564" lon="6.79421">
        <ele>243</ele>
        <time>2011-03-20T11:40:05+01:00</time>
      </trkpt>
      <trkpt lat="43.50605" lon="6.79422">
        <ele>241</ele>
        <time>2011-03-20T11:40:10+01:00</time>
      </trkpt>
      <trkpt lat="43.50623" lon="6.79445">
        <ele>241</ele>
        <time>2011-03-20T11:40:13+01:00</time>
      </trkpt>
      <trkpt lat="43.50627" lon="6.79455">
        <ele>240</ele>
        <time>2011-03-20T11:40:14+01:00</time>
      </trkpt>
      <trkpt lat="43.50639" lon="6.79487">
        <ele>239</ele>
        <time>2011-03-20T11:40:17+01:00</time>
      </trkpt>
      <trkpt lat="43.50663" lon="6.79526">
        <ele>233</ele>
        <time>2011-03-20T11:40:21+01:00</time>
      </trkpt>
      <trkpt lat="43.50694" lon="6.79551">
        <ele>226</ele>
        <time>2011-03-20T11:40:25+01:00</time>
      </trkpt>
      <trkpt lat="43.50722" lon="6.79552">
        <ele>224</ele>
        <time>2011-03-20T11:40:29+01:00</time>
      </trkpt>
      <trkpt lat="43.50738" lon="6.79528">
        <ele>226</ele>
        <time>2011-03-20T11:40:32+01:00</time>
      </trkpt>
      <trkpt lat="43.50746" lon="6.79507">
        <ele>227</ele>
        <time>2011-03-20T11:40:34+01:00</time>
      </trkpt>
      <trkpt lat="43.50757" lon="6.79488">
        <ele>223</ele>
        <time>2011-03-20T11:40:36+01:00</time>
      </trkpt>
      <trkpt lat="43.50773" lon="6.79441">
        <ele>220</ele>
        <time>2011-03-20T11:40:40+01:00</time>
      </trkpt>
      <trkpt lat="43.5077" lon="6.79402">
        <ele>220</ele>
        <time>2011-03-20T11:40:43+01:00</time>
      </trkpt>
      <trkpt lat="43.50767" lon="6.79391">
        <ele>219</ele>
        <time>2011-03-20T11:40:44+01:00</time>
      </trkpt>
      <trkpt lat="43.50758" lon="6.79368">
        <ele>219</ele>
        <time>2011-03-20T11:40:46+01:00</time>
      </trkpt>
      <trkpt lat="43.50758" lon="6.79347">
        <ele>220</ele>
        <time>2011-03-20T11:40:50+01:00</time>
      </trkpt>
      <trkpt lat="43.50776" lon="6.79328">
        <ele>215</ele>
        <time>2011-03-20T11:40:56+01:00</time>
      </trkpt>
      <trkpt lat="43.50784" lon="6.79318">
        <ele>213</ele>
        <time>2011-03-20T11:40:58+01:00</time>
      </trkpt>
      <trkpt lat="43.50796" lon="6.79266">
        <ele>210</ele>
        <time>2011-03-20T11:41:03+01:00</time>
      </trkpt>
      <trkpt lat="43.50795" lon="6.79254">
        <ele>210</ele>
        <time>2011-03-20T11:41:04+01:00</time>
      </trkpt>
      <trkpt lat="43.50772" lon="6.79206">
        <ele>213</ele>
        <time>2011-03-20T11:41:09+01:00</time>
      </trkpt>
      <trkpt lat="43.50753" lon="6.79184">
        <ele>215</ele>
        <time>2011-03-20T11:41:14+01:00</time>
      </trkpt>
      <trkpt lat="43.50753" lon="6.79183">
        <ele>215</ele>
        <time>2011-03-20T11:41:18+01:00</time>
      </trkpt>
      <trkpt lat="43.50753" lon="6.79183">
        <ele>215</ele>
        <time>2011-03-20T11:41:24+01:00</time>
      </trkpt>
      <trkpt lat="43.50745" lon="6.7919">
        <ele>220</ele>
        <time>2011-03-20T11:41:29+01:00</time>
      </trkpt>
      <trkpt lat="43.50746" lon="6.79192">
        <ele>220</ele>
        <time>2011-03-20T11:41:34+01:00</time>
      </trkpt>
      <trkpt lat="43.50744" lon="6.7919">
        <ele>220</ele>
        <time>2011-03-20T11:41:36+01:00</time>
      </trkpt>
      <trkpt lat="43.50752" lon="6.79184">
        <ele>215</ele>
        <time>2011-03-20T11:41:40+01:00</time>
      </trkpt>
      <trkpt lat="43.50758" lon="6.79182">
        <ele>215</ele>
        <time>2011-03-20T11:41:44+01:00</time>
      </trkpt>
      <trkpt lat="43.50763" lon="6.79182">
        <ele>214</ele>
        <time>2011-03-20T11:41:46+01:00</time>
      </trkpt>
      <trkpt lat="43.50783" lon="6.79183">
        <ele>214</ele>
        <time>2011-03-20T11:41:51+01:00</time>
      </trkpt>
      <trkpt lat="43.50815" lon="6.79198">
        <ele>212</ele>
        <time>2011-03-20T11:41:58+01:00</time>
      </trkpt>
      <trkpt lat="43.50826" lon="6.79205">
        <ele>211</ele>
        <time>2011-03-20T11:42:00+01:00</time>
      </trkpt>
      <trkpt lat="43.50845" lon="6.7923">
        <ele>207</ele>
        <time>2011-03-20T11:42:04+01:00</time>
      </trkpt>
      <trkpt lat="43.50854" lon="6.79258">
        <ele>201</ele>
        <time>2011-03-20T11:42:07+01:00</time>
      </trkpt>
      <trkpt lat="43.50877" lon="6.79301">
        <ele>199</ele>
        <time>2011-03-20T11:42:12+01:00</time>
      </trkpt>
      <trkpt lat="43.50889" lon="6.79314">
        <ele>198</ele>
        <time>2011-03-20T11:42:14+01:00</time>
      </trkpt>
      <trkpt lat="43.50914" lon="6.79319">
        <ele>195</ele>
        <time>2011-03-20T11:42:18+01:00</time>
      </trkpt>
      <trkpt lat="43.50942" lon="6.79308">
        <ele>193</ele>
        <time>2011-03-20T11:42:23+01:00</time>
      </trkpt>
      <trkpt lat="43.50949" lon="6.79313">
        <ele>193</ele>
        <time>2011-03-20T11:42:26+01:00</time>
      </trkpt>
      <trkpt lat="43.50947" lon="6.79319">
        <ele>193</ele>
        <time>2011-03-20T11:42:28+01:00</time>
      </trkpt>
      <trkpt lat="43.50945" lon="6.79323">
        <ele>193</ele>
        <time>2011-03-20T11:42:33+01:00</time>
      </trkpt>
      <trkpt lat="43.5094" lon="6.79323">
        <ele>193</ele>
        <time>2011-03-20T11:42:35+01:00</time>
      </trkpt>
      <trkpt lat="43.50939" lon="6.79335">
        <ele>192</ele>
        <time>2011-03-20T11:42:39+01:00</time>
      </trkpt>
      <trkpt lat="43.50943" lon="6.79336">
        <ele>192</ele>
        <time>2011-03-20T11:42:40+01:00</time>
      </trkpt>
      <trkpt lat="43.50976" lon="6.79342">
        <ele>192</ele>
        <time>2011-03-20T11:42:45+01:00</time>
      </trkpt>
      <trkpt lat="43.50989" lon="6.79345">
        <ele>191</ele>
        <time>2011-03-20T11:42:47+01:00</time>
      </trkpt>
      <trkpt lat="43.51007" lon="6.79342">
        <ele>193</ele>
        <time>2011-03-20T11:42:51+01:00</time>
      </trkpt>
      <trkpt lat="43.51012" lon="6.79317">
        <ele>190</ele>
        <time>2011-03-20T11:42:55+01:00</time>
      </trkpt>
      <trkpt lat="43.51028" lon="6.7928">
        <ele>189</ele>
        <time>2011-03-20T11:43:00+01:00</time>
      </trkpt>
      <trkpt lat="43.5104" lon="6.79268">
        <ele>189</ele>
        <time>2011-03-20T11:43:02+01:00</time>
      </trkpt>
      <trkpt lat="43.51074" lon="6.79231">
        <ele>185</ele>
        <time>2011-03-20T11:43:07+01:00</time>
      </trkpt>
      <trkpt lat="43.51121" lon="6.79211">
        <ele>178</ele>
        <time>2011-03-20T11:43:12+01:00</time>
      </trkpt>
      <trkpt lat="43.51154" lon="6.79208">
        <ele>177</ele>
        <time>2011-03-20T11:43:16+01:00</time>
      </trkpt>
      <trkpt lat="43.51166" lon="6.79226">
        <ele>177</ele>
        <time>2011-03-20T11:43:19+01:00</time>
      </trkpt>
      <trkpt lat="43.51168" lon="6.79244">
        <ele>177</ele>
        <time>2011-03-20T11:43:21+01:00</time>
      </trkpt>
      <trkpt lat="43.51167" lon="6.79301">
        <ele>180</ele>
        <time>2011-03-20T11:43:28+01:00</time>
      </trkpt>
      <trkpt lat="43.51163" lon="6.79343">
        <ele>184</ele>
        <time>2011-03-20T11:43:33+01:00</time>
      </trkpt>
      <trkpt lat="43.51159" lon="6.79394">
        <ele>187</ele>
        <time>2011-03-20T11:43:40+01:00</time>
      </trkpt>
      <trkpt lat="43.51148" lon="6.79438">
        <ele>187</ele>
        <time>2011-03-20T11:43:47+01:00</time>
      </trkpt>
      <trkpt lat="43.51147" lon="6.79445">
        <ele>187</ele>
        <time>2011-03-20T11:43:48+01:00</time>
      </trkpt>
      <trkpt lat="43.51137" lon="6.79491">
        <ele>187</ele>
        <time>2011-03-20T11:43:55+01:00</time>
      </trkpt>
      <trkpt lat="43.51135" lon="6.79497">
        <ele>188</ele>
        <time>2011-03-20T11:43:56+01:00</time>
      </trkpt>
      <trkpt lat="43.51125" lon="6.79529">
        <ele>185</ele>
        <time>2011-03-20T11:44:01+01:00</time>
      </trkpt>
      <trkpt lat="43.51111" lon="6.7957">
        <ele>185</ele>
        <time>2011-03-20T11:44:08+01:00</time>
      </trkpt>
      <trkpt lat="43.51107" lon="6.79582">
        <ele>186</ele>
        <time>2011-03-20T11:44:10+01:00</time>
      </trkpt>
      <trkpt lat="43.5109" lon="6.79627">
        <ele>181</ele>
        <time>2011-03-20T11:44:18+01:00</time>
      </trkpt>
      <trkpt lat="43.51069" lon="6.79667">
        <ele>182</ele>
        <time>2011-03-20T11:44:25+01:00</time>
      </trkpt>
      <trkpt lat="43.51061" lon="6.79679">
        <ele>184</ele>
        <time>2011-03-20T11:44:27+01:00</time>
      </trkpt>
      <trkpt lat="43.51054" lon="6.79707">
        <ele>185</ele>
        <time>2011-03-20T11:44:31+01:00</time>
      </trkpt>
      <trkpt lat="43.51061" lon="6.7972">
        <ele>184</ele>
        <time>2011-03-20T11:44:34+01:00</time>
      </trkpt>
      <trkpt lat="43.51076" lon="6.79715">
        <ele>183</ele>
        <time>2011-03-20T11:44:38+01:00</time>
      </trkpt>
      <trkpt lat="43.51081" lon="6.79714">
        <ele>183</ele>
        <time>2011-03-20T11:44:39+01:00</time>
      </trkpt>
      <trkpt lat="43.51098" lon="6.79715">
        <ele>178</ele>
        <time>2011-03-20T11:44:44+01:00</time>
      </trkpt>
      <trkpt lat="43.51106" lon="6.79724">
        <ele>178</ele>
        <time>2011-03-20T11:44:49+01:00</time>
      </trkpt>
      <trkpt lat="43.51109" lon="6.79727">
        <ele>178</ele>
        <time>2011-03-20T11:44:54+01:00</time>
      </trkpt>
      <trkpt lat="43.5111" lon="6.79729">
        <ele>178</ele>
        <time>2011-03-20T11:44:59+01:00</time>
      </trkpt>
      <trkpt lat="43.51112" lon="6.79734">
        <ele>178</ele>
        <time>2011-03-20T11:45:04+01:00</time>
      </trkpt>
      <trkpt lat="43.51118" lon="6.79747">
        <ele>178</ele>
        <time>2011-03-20T11:45:10+01:00</time>
      </trkpt>
      <trkpt lat="43.51124" lon="6.79762">
        <ele>181</ele>
        <time>2011-03-20T11:45:16+01:00</time>
      </trkpt>
      <trkpt lat="43.51128" lon="6.7978">
        <ele>181</ele>
        <time>2011-03-20T11:45:22+01:00</time>
      </trkpt>
      <trkpt lat="43.51128" lon="6.798">
        <ele>182</ele>
        <time>2011-03-20T11:45:29+01:00</time>
      </trkpt>
      <trkpt lat="43.51124" lon="6.7982">
        <ele>182</ele>
        <time>2011-03-20T11:45:36+01:00</time>
      </trkpt>
      <trkpt lat="43.51119" lon="6.79838">
        <ele>188</ele>
        <time>2011-03-20T11:45:43+01:00</time>
      </trkpt>
      <trkpt lat="43.51114" lon="6.79857">
        <ele>188</ele>
        <time>2011-03-20T11:45:50+01:00</time>
      </trkpt>
      <trkpt lat="43.51107" lon="6.79879">
        <ele>190</ele>
        <time>2011-03-20T11:45:57+01:00</time>
      </trkpt>
      <trkpt lat="43.51102" lon="6.79893">
        <ele>190</ele>
        <time>2011-03-20T11:46:01+01:00</time>
      </trkpt>
      <trkpt lat="43.51089" lon="6.79908">
        <ele>190</ele>
        <time>2011-03-20T11:46:06+01:00</time>
      </trkpt>
      <trkpt lat="43.51068" lon="6.79921">
        <ele>190</ele>
        <time>2011-03-20T11:46:13+01:00</time>
      </trkpt>
      <trkpt lat="43.51059" lon="6.79935">
        <ele>190</ele>
        <time>2011-03-20T11:46:19+01:00</time>
      </trkpt>
      <trkpt lat="43.51057" lon="6.79956">
        <ele>191</ele>
        <time>2011-03-20T11:46:27+01:00</time>
      </trkpt>
      <trkpt lat="43.51062" lon="6.79972">
        <ele>192</ele>
        <time>2011-03-20T11:46:34+01:00</time>
      </trkpt>
      <trkpt lat="43.51069" lon="6.79986">
        <ele>194</ele>
        <time>2011-03-20T11:46:41+01:00</time>
      </trkpt>
      <trkpt lat="43.51076" lon="6.8">
        <ele>198</ele>
        <time>2011-03-20T11:46:48+01:00</time>
      </trkpt>
      <trkpt lat="43.51083" lon="6.80017">
        <ele>199</ele>
        <time>2011-03-20T11:46:56+01:00</time>
      </trkpt>
      <trkpt lat="43.51086" lon="6.80032">
        <ele>205</ele>
        <time>2011-03-20T11:47:03+01:00</time>
      </trkpt>
      <trkpt lat="43.51085" lon="6.80051">
        <ele>207</ele>
        <time>2011-03-20T11:47:11+01:00</time>
      </trkpt>
      <trkpt lat="43.51083" lon="6.80064">
        <ele>203</ele>
        <time>2011-03-20T11:47:17+01:00</time>
      </trkpt>
      <trkpt lat="43.51076" lon="6.80082">
        <ele>206</ele>
        <time>2011-03-20T11:47:26+01:00</time>
      </trkpt>
      <trkpt lat="43.5107" lon="6.80096">
        <ele>208</ele>
        <time>2011-03-20T11:47:33+01:00</time>
      </trkpt>
      <trkpt lat="43.51065" lon="6.80113">
        <ele>209</ele>
        <time>2011-03-20T11:47:41+01:00</time>
      </trkpt>
      <trkpt lat="43.51062" lon="6.80127">
        <ele>210</ele>
        <time>2011-03-20T11:47:48+01:00</time>
      </trkpt>
      <trkpt lat="43.5106" lon="6.80147">
        <ele>211</ele>
        <time>2011-03-20T11:47:57+01:00</time>
      </trkpt>
      <trkpt lat="43.51059" lon="6.80163">
        <ele>213</ele>
        <time>2011-03-20T11:48:04+01:00</time>
      </trkpt>
      <trkpt lat="43.51058" lon="6.80179">
        <ele>216</ele>
        <time>2011-03-20T11:48:11+01:00</time>
      </trkpt>
      <trkpt lat="43.51057" lon="6.80189">
        <ele>216</ele>
        <time>2011-03-20T11:48:16+01:00</time>
      </trkpt>
      <trkpt lat="43.51059" lon="6.80205">
        <ele>216</ele>
        <time>2011-03-20T11:48:23+01:00</time>
      </trkpt>
      <trkpt lat="43.51064" lon="6.80226">
        <ele>218</ele>
        <time>2011-03-20T11:48:33+01:00</time>
      </trkpt>
      <trkpt lat="43.51068" lon="6.80242">
        <ele>220</ele>
        <time>2011-03-20T11:48:40+01:00</time>
      </trkpt>
      <trkpt lat="43.51073" lon="6.80259">
        <ele>223</ele>
        <time>2011-03-20T11:48:48+01:00</time>
      </trkpt>
      <trkpt lat="43.51078" lon="6.80273">
        <ele>222</ele>
        <time>2011-03-20T11:48:55+01:00</time>
      </trkpt>
      <trkpt lat="43.51084" lon="6.80288">
        <ele>232</ele>
        <time>2011-03-20T11:49:03+01:00</time>
      </trkpt>
      <trkpt lat="43.5109" lon="6.80303">
        <ele>232</ele>
        <time>2011-03-20T11:49:11+01:00</time>
      </trkpt>
      <trkpt lat="43.51088" lon="6.80313">
        <ele>232</ele>
        <time>2011-03-20T11:49:16+01:00</time>
      </trkpt>
      <trkpt lat="43.51081" lon="6.80325">
        <ele>227</ele>
        <time>2011-03-20T11:49:23+01:00</time>
      </trkpt>
      <trkpt lat="43.51078" lon="6.80337">
        <ele>229</ele>
        <time>2011-03-20T11:49:29+01:00</time>
      </trkpt>
      <trkpt lat="43.51079" lon="6.80351">
        <ele>228</ele>
        <time>2011-03-20T11:49:36+01:00</time>
      </trkpt>
      <trkpt lat="43.51087" lon="6.80365">
        <ele>237</ele>
        <time>2011-03-20T11:49:44+01:00</time>
      </trkpt>
      <trkpt lat="43.51097" lon="6.80372">
        <ele>238</ele>
        <time>2011-03-20T11:49:51+01:00</time>
      </trkpt>
      <trkpt lat="43.51106" lon="6.80378">
        <ele>239</ele>
        <time>2011-03-20T11:49:57+01:00</time>
      </trkpt>
      <trkpt lat="43.51117" lon="6.80386">
        <ele>240</ele>
        <time>2011-03-20T11:50:04+01:00</time>
      </trkpt>
      <trkpt lat="43.51131" lon="6.80397">
        <ele>242</ele>
        <time>2011-03-20T11:50:13+01:00</time>
      </trkpt>
      <trkpt lat="43.5114" lon="6.80409">
        <ele>244</ele>
        <time>2011-03-20T11:50:20+01:00</time>
      </trkpt>
      <trkpt lat="43.51149" lon="6.80421">
        <ele>249</ele>
        <time>2011-03-20T11:50:27+01:00</time>
      </trkpt>
      <trkpt lat="43.51159" lon="6.80435">
        <ele>250</ele>
        <time>2011-03-20T11:50:35+01:00</time>
      </trkpt>
      <trkpt lat="43.51168" lon="6.80454">
        <ele>258</ele>
        <time>2011-03-20T11:50:44+01:00</time>
      </trkpt>
      <trkpt lat="43.51174" lon="6.8047">
        <ele>259</ele>
        <time>2011-03-20T11:50:51+01:00</time>
      </trkpt>
      <trkpt lat="43.5118" lon="6.80483">
        <ele>259</ele>
        <time>2011-03-20T11:50:57+01:00</time>
      </trkpt>
      <trkpt lat="43.51185" lon="6.80498">
        <ele>259</ele>
        <time>2011-03-20T11:51:03+01:00</time>
      </trkpt>
      <trkpt lat="43.51183" lon="6.80504">
        <ele>264</ele>
        <time>2011-03-20T11:51:05+01:00</time>
      </trkpt>
      <trkpt lat="43.51172" lon="6.80507">
        <ele>261</ele>
        <time>2011-03-20T11:51:11+01:00</time>
      </trkpt>
      <trkpt lat="43.5117" lon="6.80506">
        <ele>260</ele>
        <time>2011-03-20T11:51:12+01:00</time>
      </trkpt>
      <trkpt lat="43.51152" lon="6.80498">
        <ele>253</ele>
        <time>2011-03-20T11:51:22+01:00</time>
      </trkpt>
      <trkpt lat="43.51144" lon="6.80509">
        <ele>258</ele>
        <time>2011-03-20T11:51:28+01:00</time>
      </trkpt>
      <trkpt lat="43.51142" lon="6.8053">
        <ele>260</ele>
        <time>2011-03-20T11:51:36+01:00</time>
      </trkpt>
      <trkpt lat="43.51144" lon="6.80553">
        <ele>262</ele>
        <time>2011-03-20T11:51:44+01:00</time>
      </trkpt>
      <trkpt lat="43.51137" lon="6.80561">
        <ele>262</ele>
        <time>2011-03-20T11:51:49+01:00</time>
      </trkpt>
      <trkpt lat="43.51123" lon="6.80561">
        <ele>261</ele>
        <time>2011-03-20T11:51:56+01:00</time>
      </trkpt>
      <trkpt lat="43.51112" lon="6.80564">
        <ele>261</ele>
        <time>2011-03-20T11:52:02+01:00</time>
      </trkpt>
      <trkpt lat="43.51099" lon="6.80572">
        <ele>261</ele>
        <time>2011-03-20T11:52:10+01:00</time>
      </trkpt>
      <trkpt lat="43.51092" lon="6.80585">
        <ele>264</ele>
        <time>2011-03-20T11:52:17+01:00</time>
      </trkpt>
      <trkpt lat="43.51087" lon="6.80601">
        <ele>265</ele>
        <time>2011-03-20T11:52:24+01:00</time>
      </trkpt>
      <trkpt lat="43.51086" lon="6.80624">
        <ele>267</ele>
        <time>2011-03-20T11:52:33+01:00</time>
      </trkpt>
      <trkpt lat="43.51089" lon="6.80641">
        <ele>268</ele>
        <time>2011-03-20T11:52:40+01:00</time>
      </trkpt>
      <trkpt lat="43.51094" lon="6.80661">
        <ele>267</ele>
        <time>2011-03-20T11:52:48+01:00</time>
      </trkpt>
      <trkpt lat="43.511" lon="6.80675">
        <ele>268</ele>
        <time>2011-03-20T11:52:55+01:00</time>
      </trkpt>
      <trkpt lat="43.51109" lon="6.80692">
        <ele>270</ele>
        <time>2011-03-20T11:53:03+01:00</time>
      </trkpt>
      <trkpt lat="43.51121" lon="6.80708">
        <ele>271</ele>
        <time>2011-03-20T11:53:12+01:00</time>
      </trkpt>
      <trkpt lat="43.51132" lon="6.80714">
        <ele>272</ele>
        <time>2011-03-20T11:53:19+01:00</time>
      </trkpt>
      <trkpt lat="43.51147" lon="6.80711">
        <ele>273</ele>
        <time>2011-03-20T11:53:27+01:00</time>
      </trkpt>
      <trkpt lat="43.51159" lon="6.80704">
        <ele>275</ele>
        <time>2011-03-20T11:53:34+01:00</time>
      </trkpt>
      <trkpt lat="43.51171" lon="6.807">
        <ele>286</ele>
        <time>2011-03-20T11:53:41+01:00</time>
      </trkpt>
      <trkpt lat="43.51183" lon="6.80709">
        <ele>286</ele>
        <time>2011-03-20T11:53:48+01:00</time>
      </trkpt>
      <trkpt lat="43.51193" lon="6.80723">
        <ele>286</ele>
        <time>2011-03-20T11:53:56+01:00</time>
      </trkpt>
      <trkpt lat="43.51201" lon="6.80738">
        <ele>286</ele>
        <time>2011-03-20T11:54:04+01:00</time>
      </trkpt>
      <trkpt lat="43.51213" lon="6.80753">
        <ele>286</ele>
        <time>2011-03-20T11:54:13+01:00</time>
      </trkpt>
      <trkpt lat="43.51224" lon="6.80767">
        <ele>287</ele>
        <time>2011-03-20T11:54:22+01:00</time>
      </trkpt>
      <trkpt lat="43.51234" lon="6.80779">
        <ele>287</ele>
        <time>2011-03-20T11:54:30+01:00</time>
      </trkpt>
      <trkpt lat="43.51244" lon="6.80793">
        <ele>287</ele>
        <time>2011-03-20T11:54:38+01:00</time>
      </trkpt>
      <trkpt lat="43.51254" lon="6.80807">
        <ele>297</ele>
        <time>2011-03-20T11:54:46+01:00</time>
      </trkpt>
      <trkpt lat="43.51263" lon="6.80821">
        <ele>297</ele>
        <time>2011-03-20T11:54:54+01:00</time>
      </trkpt>
      <trkpt lat="43.51272" lon="6.8083">
        <ele>298</ele>
        <time>2011-03-20T11:55:01+01:00</time>
      </trkpt>
      <trkpt lat="43.51281" lon="6.80838">
        <ele>300</ele>
        <time>2011-03-20T11:55:08+01:00</time>
      </trkpt>
      <trkpt lat="43.51285" lon="6.80846">
        <ele>301</ele>
        <time>2011-03-20T11:55:13+01:00</time>
      </trkpt>
      <trkpt lat="43.51286" lon="6.80847">
        <ele>301</ele>
        <time>2011-03-20T11:55:15+01:00</time>
      </trkpt>
      <trkpt lat="43.51289" lon="6.80846">
        <ele>302</ele>
        <time>2011-03-20T11:55:21+01:00</time>
      </trkpt>
      <trkpt lat="43.51294" lon="6.80845">
        <ele>303</ele>
        <time>2011-03-20T11:55:26+01:00</time>
      </trkpt>
      <trkpt lat="43.51297" lon="6.80842">
        <ele>303</ele>
        <time>2011-03-20T11:55:32+01:00</time>
      </trkpt>
      <trkpt lat="43.51297" lon="6.80841">
        <ele>303</ele>
        <time>2011-03-20T11:55:35+01:00</time>
      </trkpt>
      <trkpt lat="43.51294" lon="6.80825">
        <ele>301</ele>
        <time>2011-03-20T11:55:40+01:00</time>
      </trkpt>
      <trkpt lat="43.51292" lon="6.80801">
        <ele>300</ele>
        <time>2011-03-20T11:55:45+01:00</time>
      </trkpt>
      <trkpt lat="43.51297" lon="6.80763">
        <ele>300</ele>
        <time>2011-03-20T11:55:52+01:00</time>
      </trkpt>
      <trkpt lat="43.51304" lon="6.80738">
        <ele>298</ele>
        <time>2011-03-20T11:55:57+01:00</time>
      </trkpt>
      <trkpt lat="43.51318" lon="6.80702">
        <ele>298</ele>
        <time>2011-03-20T11:56:05+01:00</time>
      </trkpt>
      <trkpt lat="43.51333" lon="6.80677">
        <ele>298</ele>
        <time>2011-03-20T11:56:11+01:00</time>
      </trkpt>
      <trkpt lat="43.51349" lon="6.80656">
        <ele>297</ele>
        <time>2011-03-20T11:56:16+01:00</time>
      </trkpt>
      <trkpt lat="43.5137" lon="6.80624">
        <ele>296</ele>
        <time>2011-03-20T11:56:21+01:00</time>
      </trkpt>
      <trkpt lat="43.51375" lon="6.80618">
        <ele>296</ele>
        <time>2011-03-20T11:56:22+01:00</time>
      </trkpt>
      <trkpt lat="43.51407" lon="6.8059">
        <ele>297</ele>
        <time>2011-03-20T11:56:29+01:00</time>
      </trkpt>
      <trkpt lat="43.51416" lon="6.80585">
        <ele>298</ele>
        <time>2011-03-20T11:56:31+01:00</time>
      </trkpt>
      <trkpt lat="43.51442" lon="6.80578">
        <ele>296</ele>
        <time>2011-03-20T11:56:37+01:00</time>
      </trkpt>
      <trkpt lat="43.51473" lon="6.8057">
        <ele>296</ele>
        <time>2011-03-20T11:56:43+01:00</time>
      </trkpt>
      <trkpt lat="43.51485" lon="6.80565">
        <ele>296</ele>
        <time>2011-03-20T11:56:45+01:00</time>
      </trkpt>
      <trkpt lat="43.51497" lon="6.80548">
        <ele>296</ele>
        <time>2011-03-20T11:56:49+01:00</time>
      </trkpt>
      <trkpt lat="43.51492" lon="6.80519">
        <ele>295</ele>
        <time>2011-03-20T11:56:53+01:00</time>
      </trkpt>
      <trkpt lat="43.51485" lon="6.80501">
        <ele>294</ele>
        <time>2011-03-20T11:56:56+01:00</time>
      </trkpt>
      <trkpt lat="43.51482" lon="6.80487">
        <ele>290</ele>
        <time>2011-03-20T11:56:58+01:00</time>
      </trkpt>
      <trkpt lat="43.5148" lon="6.80467">
        <ele>288</ele>
        <time>2011-03-20T11:57:01+01:00</time>
      </trkpt>
      <trkpt lat="43.51468" lon="6.80448">
        <ele>287</ele>
        <time>2011-03-20T11:57:05+01:00</time>
      </trkpt>
      <trkpt lat="43.51449" lon="6.80439">
        <ele>286</ele>
        <time>2011-03-20T11:57:09+01:00</time>
      </trkpt>
      <trkpt lat="43.51445" lon="6.8043">
        <ele>285</ele>
        <time>2011-03-20T11:57:12+01:00</time>
      </trkpt>
      <trkpt lat="43.51443" lon="6.8043">
        <ele>285</ele>
        <time>2011-03-20T11:57:15+01:00</time>
      </trkpt>
      <trkpt lat="43.51442" lon="6.80429">
        <ele>285</ele>
        <time>2011-03-20T11:57:22+01:00</time>
      </trkpt>
      <trkpt lat="43.51443" lon="6.80428">
        <ele>285</ele>
        <time>2011-03-20T11:57:25+01:00</time>
      </trkpt>
      <trkpt lat="43.51446" lon="6.80411">
        <ele>280</ele>
        <time>2011-03-20T11:57:29+01:00</time>
      </trkpt>
      <trkpt lat="43.51448" lon="6.80376">
        <ele>279</ele>
        <time>2011-03-20T11:57:33+01:00</time>
      </trkpt>
      <trkpt lat="43.51457" lon="6.80332">
        <ele>275</ele>
        <time>2011-03-20T11:57:38+01:00</time>
      </trkpt>
      <trkpt lat="43.51457" lon="6.80305">
        <ele>275</ele>
        <time>2011-03-20T11:57:41+01:00</time>
      </trkpt>
      <trkpt lat="43.51464" lon="6.8028">
        <ele>275</ele>
        <time>2011-03-20T11:57:45+01:00</time>
      </trkpt>
      <trkpt lat="43.51477" lon="6.80258">
        <ele>276</ele>
        <time>2011-03-20T11:57:49+01:00</time>
      </trkpt>
      <trkpt lat="43.51483" lon="6.80229">
        <ele>275</ele>
        <time>2011-03-20T11:57:53+01:00</time>
      </trkpt>
      <trkpt lat="43.51483" lon="6.8022">
        <ele>275</ele>
        <time>2011-03-20T11:57:54+01:00</time>
      </trkpt>
      <trkpt lat="43.51489" lon="6.80194">
        <ele>275</ele>
        <time>2011-03-20T11:57:57+01:00</time>
      </trkpt>
      <trkpt lat="43.51506" lon="6.80162">
        <ele>276</ele>
        <time>2011-03-20T11:58:02+01:00</time>
      </trkpt>
      <trkpt lat="43.51509" lon="6.80155">
        <ele>275</ele>
        <time>2011-03-20T11:58:03+01:00</time>
      </trkpt>
      <trkpt lat="43.5152" lon="6.80136">
        <ele>272</ele>
        <time>2011-03-20T11:58:06+01:00</time>
      </trkpt>
      <trkpt lat="43.51544" lon="6.80095">
        <ele>270</ele>
        <time>2011-03-20T11:58:11+01:00</time>
      </trkpt>
      <trkpt lat="43.51554" lon="6.80075">
        <ele>268</ele>
        <time>2011-03-20T11:58:13+01:00</time>
      </trkpt>
      <trkpt lat="43.51574" lon="6.80021">
        <ele>268</ele>
        <time>2011-03-20T11:58:18+01:00</time>
      </trkpt>
      <trkpt lat="43.51584" lon="6.79993">
        <ele>266</ele>
        <time>2011-03-20T11:58:21+01:00</time>
      </trkpt>
      <trkpt lat="43.51593" lon="6.79979">
        <ele>262</ele>
        <time>2011-03-20T11:58:23+01:00</time>
      </trkpt>
      <trkpt lat="43.516" lon="6.79967">
        <ele>260</ele>
        <time>2011-03-20T11:58:25+01:00</time>
      </trkpt>
      <trkpt lat="43.51608" lon="6.7994">
        <ele>259</ele>
        <time>2011-03-20T11:58:29+01:00</time>
      </trkpt>
      <trkpt lat="43.51609" lon="6.79927">
        <ele>259</ele>
        <time>2011-03-20T11:58:31+01:00</time>
      </trkpt>
      <trkpt lat="43.51608" lon="6.79908">
        <ele>257</ele>
        <time>2011-03-20T11:58:34+01:00</time>
      </trkpt>
      <trkpt lat="43.51606" lon="6.79885">
        <ele>254</ele>
        <time>2011-03-20T11:58:38+01:00</time>
      </trkpt>
      <trkpt lat="43.51604" lon="6.79872">
        <ele>253</ele>
        <time>2011-03-20T11:58:40+01:00</time>
      </trkpt>
      <trkpt lat="43.51603" lon="6.79861">
        <ele>253</ele>
        <time>2011-03-20T11:58:42+01:00</time>
      </trkpt>
      <trkpt lat="43.51606" lon="6.79844">
        <ele>252</ele>
        <time>2011-03-20T11:58:47+01:00</time>
      </trkpt>
      <trkpt lat="43.51605" lon="6.79823">
        <ele>244</ele>
        <time>2011-03-20T11:58:52+01:00</time>
      </trkpt>
      <trkpt lat="43.51603" lon="6.79813">
        <ele>243</ele>
        <time>2011-03-20T11:58:54+01:00</time>
      </trkpt>
      <trkpt lat="43.51593" lon="6.798">
        <ele>242</ele>
        <time>2011-03-20T11:58:58+01:00</time>
      </trkpt>
      <trkpt lat="43.51587" lon="6.79796">
        <ele>242</ele>
        <time>2011-03-20T11:59:00+01:00</time>
      </trkpt>
      <trkpt lat="43.51578" lon="6.79782">
        <ele>242</ele>
        <time>2011-03-20T11:59:04+01:00</time>
      </trkpt>
      <trkpt lat="43.51571" lon="6.79743">
        <ele>235</ele>
        <time>2011-03-20T11:59:10+01:00</time>
      </trkpt>
      <trkpt lat="43.51579" lon="6.79707">
        <ele>231</ele>
        <time>2011-03-20T11:59:15+01:00</time>
      </trkpt>
      <trkpt lat="43.51585" lon="6.79694">
        <ele>229</ele>
        <time>2011-03-20T11:59:17+01:00</time>
      </trkpt>
      <trkpt lat="43.51588" lon="6.79689">
        <ele>229</ele>
        <time>2011-03-20T11:59:21+01:00</time>
      </trkpt>
      <trkpt lat="43.51588" lon="6.79687">
        <ele>229</ele>
        <time>2011-03-20T11:59:28+01:00</time>
      </trkpt>
      <trkpt lat="43.51579" lon="6.7967">
        <ele>230</ele>
        <time>2011-03-20T11:59:32+01:00</time>
      </trkpt>
      <trkpt lat="43.51575" lon="6.79668">
        <ele>230</ele>
        <time>2011-03-20T11:59:33+01:00</time>
      </trkpt>
      <trkpt lat="43.51565" lon="6.79664">
        <ele>223</ele>
        <time>2011-03-20T11:59:36+01:00</time>
      </trkpt>
      <trkpt lat="43.5156" lon="6.7965">
        <ele>220</ele>
        <time>2011-03-20T11:59:40+01:00</time>
      </trkpt>
      <trkpt lat="43.51555" lon="6.79631">
        <ele>218</ele>
        <time>2011-03-20T11:59:44+01:00</time>
      </trkpt>
      <trkpt lat="43.51551" lon="6.79616">
        <ele>216</ele>
        <time>2011-03-20T11:59:47+01:00</time>
      </trkpt>
      <trkpt lat="43.51537" lon="6.79611">
        <ele>214</ele>
        <time>2011-03-20T11:59:52+01:00</time>
      </trkpt>
      <trkpt lat="43.51521" lon="6.79608">
        <ele>213</ele>
        <time>2011-03-20T11:59:55+01:00</time>
      </trkpt>
      <trkpt lat="43.51515" lon="6.79607">
        <ele>212</ele>
        <time>2011-03-20T11:59:56+01:00</time>
      </trkpt>
      <trkpt lat="43.515" lon="6.79607">
        <ele>205</ele>
        <time>2011-03-20T11:59:59+01:00</time>
      </trkpt>
      <trkpt lat="43.51485" lon="6.796">
        <ele>204</ele>
        <time>2011-03-20T12:00:03+01:00</time>
      </trkpt>
      <trkpt lat="43.51468" lon="6.79597">
        <ele>204</ele>
        <time>2011-03-20T12:00:07+01:00</time>
      </trkpt>
      <trkpt lat="43.51458" lon="6.79598">
        <ele>203</ele>
        <time>2011-03-20T12:00:09+01:00</time>
      </trkpt>
      <trkpt lat="43.51438" lon="6.79598">
        <ele>201</ele>
        <time>2011-03-20T12:00:13+01:00</time>
      </trkpt>
      <trkpt lat="43.51422" lon="6.79594">
        <ele>198</ele>
        <time>2011-03-20T12:00:18+01:00</time>
      </trkpt>
      <trkpt lat="43.51421" lon="6.79587">
        <ele>197</ele>
        <time>2011-03-20T12:00:21+01:00</time>
      </trkpt>
      <trkpt lat="43.51422" lon="6.79585">
        <ele>197</ele>
        <time>2011-03-20T12:00:22+01:00</time>
      </trkpt>
      <trkpt lat="43.51435" lon="6.79568">
        <ele>198</ele>
        <time>2011-03-20T12:00:29+01:00</time>
      </trkpt>
      <trkpt lat="43.51442" lon="6.79549">
        <ele>198</ele>
        <time>2011-03-20T12:00:34+01:00</time>
      </trkpt>
      <trkpt lat="43.51442" lon="6.79546">
        <ele>199</ele>
        <time>2011-03-20T12:00:41+01:00</time>
      </trkpt>
      <trkpt lat="43.51445" lon="6.79544">
        <ele>199</ele>
        <time>2011-03-20T12:00:54+01:00</time>
      </trkpt>
      <trkpt lat="43.51448" lon="6.79547">
        <ele>199</ele>
        <time>2011-03-20T12:00:56+01:00</time>
      </trkpt>
      <trkpt lat="43.51454" lon="6.79541">
        <ele>199</ele>
        <time>2011-03-20T12:01:00+01:00</time>
      </trkpt>
      <trkpt lat="43.51459" lon="6.79535">
        <ele>199</ele>
        <time>2011-03-20T12:01:02+01:00</time>
      </trkpt>
      <trkpt lat="43.51471" lon="6.79516">
        <ele>198</ele>
        <time>2011-03-20T12:01:07+01:00</time>
      </trkpt>
      <trkpt lat="43.51475" lon="6.79507">
        <ele>198</ele>
        <time>2011-03-20T12:01:13+01:00</time>
      </trkpt>
      <trkpt lat="43.51475" lon="6.79504">
        <ele>198</ele>
        <time>2011-03-20T12:01:15+01:00</time>
      </trkpt>
      <trkpt lat="43.5148" lon="6.79497">
        <ele>196</ele>
        <time>2011-03-20T12:01:20+01:00</time>
      </trkpt>
      <trkpt lat="43.51487" lon="6.7947">
        <ele>195</ele>
        <time>2011-03-20T12:01:25+01:00</time>
      </trkpt>
      <trkpt lat="43.51492" lon="6.79441">
        <ele>192</ele>
        <time>2011-03-20T12:01:30+01:00</time>
      </trkpt>
      <trkpt lat="43.51494" lon="6.79435">
        <ele>191</ele>
        <time>2011-03-20T12:01:32+01:00</time>
      </trkpt>
      <trkpt lat="43.51495" lon="6.7942">
        <ele>188</ele>
        <time>2011-03-20T12:01:38+01:00</time>
      </trkpt>
      <trkpt lat="43.51496" lon="6.79408">
        <ele>186</ele>
        <time>2011-03-20T12:01:41+01:00</time>
      </trkpt>
      <trkpt lat="43.51499" lon="6.79404">
        <ele>186</ele>
        <time>2011-03-20T12:01:45+01:00</time>
      </trkpt>
      <trkpt lat="43.51502" lon="6.794">
        <ele>183</ele>
        <time>2011-03-20T12:01:47+01:00</time>
      </trkpt>
      <trkpt lat="43.51507" lon="6.79396">
        <ele>183</ele>
        <time>2011-03-20T12:01:52+01:00</time>
      </trkpt>
      <trkpt lat="43.51508" lon="6.79396">
        <ele>183</ele>
        <time>2011-03-20T12:01:57+01:00</time>
      </trkpt>
      <trkpt lat="43.51519" lon="6.79392">
        <ele>182</ele>
        <time>2011-03-20T12:02:01+01:00</time>
      </trkpt>
      <trkpt lat="43.51537" lon="6.79364">
        <ele>181</ele>
        <time>2011-03-20T12:02:07+01:00</time>
      </trkpt>
      <trkpt lat="43.51541" lon="6.79346">
        <ele>181</ele>
        <time>2011-03-20T12:02:12+01:00</time>
      </trkpt>
      <trkpt lat="43.51544" lon="6.79331">
        <ele>179</ele>
        <time>2011-03-20T12:02:17+01:00</time>
      </trkpt>
      <trkpt lat="43.51549" lon="6.79308">
        <ele>179</ele>
        <time>2011-03-20T12:02:22+01:00</time>
      </trkpt>
      <trkpt lat="43.51556" lon="6.79287">
        <ele>179</ele>
        <time>2011-03-20T12:02:28+01:00</time>
      </trkpt>
      <trkpt lat="43.51565" lon="6.79271">
        <ele>179</ele>
        <time>2011-03-20T12:02:33+01:00</time>
      </trkpt>
      <trkpt lat="43.51568" lon="6.79269">
        <ele>179</ele>
        <time>2011-03-20T12:02:38+01:00</time>
      </trkpt>
      <trkpt lat="43.51564" lon="6.79284">
        <ele>179</ele>
        <time>2011-03-20T12:02:44+01:00</time>
      </trkpt>
      <trkpt lat="43.51562" lon="6.79289">
        <ele>179</ele>
        <time>2011-03-20T12:02:46+01:00</time>
      </trkpt>
      <trkpt lat="43.51565" lon="6.79304">
        <ele>179</ele>
        <time>2011-03-20T12:02:52+01:00</time>
      </trkpt>
      <trkpt lat="43.51562" lon="6.79304">
        <ele>179</ele>
        <time>2011-03-20T12:02:56+01:00</time>
      </trkpt>
      <trkpt lat="43.51564" lon="6.79302">
        <ele>179</ele>
        <time>2011-03-20T12:03:00+01:00</time>
      </trkpt>
      <trkpt lat="43.5156" lon="6.79288">
        <ele>179</ele>
        <time>2011-03-20T12:03:05+01:00</time>
      </trkpt>
      <trkpt lat="43.51566" lon="6.79266">
        <ele>179</ele>
        <time>2011-03-20T12:03:09+01:00</time>
      </trkpt>
      <trkpt lat="43.51572" lon="6.79237">
        <ele>181</ele>
        <time>2011-03-20T12:03:13+01:00</time>
      </trkpt>
      <trkpt lat="43.51566" lon="6.79216">
        <ele>181</ele>
        <time>2011-03-20T12:03:17+01:00</time>
      </trkpt>
      <trkpt lat="43.51554" lon="6.79222">
        <ele>181</ele>
        <time>2011-03-20T12:03:20+01:00</time>
      </trkpt>
      <trkpt lat="43.51535" lon="6.79219">
        <ele>181</ele>
        <time>2011-03-20T12:03:23+01:00</time>
      </trkpt>
      <trkpt lat="43.51514" lon="6.79217">
        <ele>180</ele>
        <time>2011-03-20T12:03:26+01:00</time>
      </trkpt>
      <trkpt lat="43.51498" lon="6.79232">
        <ele>178</ele>
        <time>2011-03-20T12:03:29+01:00</time>
      </trkpt>
      <trkpt lat="43.51481" lon="6.79234">
        <ele>178</ele>
        <time>2011-03-20T12:03:32+01:00</time>
      </trkpt>
      <trkpt lat="43.51466" lon="6.79231">
        <ele>179</ele>
        <time>2011-03-20T12:03:35+01:00</time>
      </trkpt>
      <trkpt lat="43.51456" lon="6.79226">
        <ele>179</ele>
        <time>2011-03-20T12:03:37+01:00</time>
      </trkpt>
      <trkpt lat="43.51445" lon="6.79222">
        <ele>179</ele>
        <time>2011-03-20T12:03:39+01:00</time>
      </trkpt>
      <trkpt lat="43.51418" lon="6.79212">
        <ele>180</ele>
        <time>2011-03-20T12:03:45+01:00</time>
      </trkpt>
      <trkpt lat="43.5139" lon="6.79189">
        <ele>180</ele>
        <time>2011-03-20T12:03:52+01:00</time>
      </trkpt>
      <trkpt lat="43.51371" lon="6.79167">
        <ele>179</ele>
        <time>2011-03-20T12:03:57+01:00</time>
      </trkpt>
      <trkpt lat="43.51345" lon="6.79143">
        <ele>183</ele>
        <time>2011-03-20T12:04:03+01:00</time>
      </trkpt>
      <trkpt lat="43.51341" lon="6.79139">
        <ele>184</ele>
        <time>2011-03-20T12:04:04+01:00</time>
      </trkpt>
      <trkpt lat="43.51317" lon="6.79125">
        <ele>179</ele>
        <time>2011-03-20T12:04:09+01:00</time>
      </trkpt>
      <trkpt lat="43.51291" lon="6.79104">
        <ele>179</ele>
        <time>2011-03-20T12:04:14+01:00</time>
      </trkpt>
      <trkpt lat="43.51256" lon="6.79066">
        <ele>181</ele>
        <time>2011-03-20T12:04:21+01:00</time>
      </trkpt>
      <trkpt lat="43.51252" lon="6.7906">
        <ele>181</ele>
        <time>2011-03-20T12:04:22+01:00</time>
      </trkpt>
      <trkpt lat="43.51235" lon="6.79034">
        <ele>175</ele>
        <time>2011-03-20T12:04:27+01:00</time>
      </trkpt>
      <trkpt lat="43.51221" lon="6.79013">
        <ele>174</ele>
        <time>2011-03-20T12:04:32+01:00</time>
      </trkpt>
      <trkpt lat="43.51218" lon="6.78998">
        <ele>172</ele>
        <time>2011-03-20T12:04:35+01:00</time>
      </trkpt>
      <trkpt lat="43.51217" lon="6.78991">
        <ele>172</ele>
        <time>2011-03-20T12:04:39+01:00</time>
      </trkpt>
      <trkpt lat="43.51216" lon="6.78989">
        <ele>172</ele>
        <time>2011-03-20T12:04:40+01:00</time>
      </trkpt>
      <trkpt lat="43.51211" lon="6.78972">
        <ele>171</ele>
        <time>2011-03-20T12:04:46+01:00</time>
      </trkpt>
      <trkpt lat="43.51211" lon="6.78965">
        <ele>171</ele>
        <time>2011-03-20T12:04:50+01:00</time>
      </trkpt>
      <trkpt lat="43.51211" lon="6.78965">
        <ele>171</ele>
        <time>2011-03-20T12:05:07+01:00</time>
      </trkpt>
      <trkpt lat="43.51212" lon="6.78969">
        <ele>171</ele>
        <time>2011-03-20T12:05:10+01:00</time>
      </trkpt>
      <trkpt lat="43.51215" lon="6.78977">
        <ele>172</ele>
        <time>2011-03-20T12:05:15+01:00</time>
      </trkpt>
      <trkpt lat="43.51218" lon="6.78978">
        <ele>172</ele>
        <time>2011-03-20T12:05:20+01:00</time>
      </trkpt>
      <trkpt lat="43.51217" lon="6.78976">
        <ele>172</ele>
        <time>2011-03-20T12:05:27+01:00</time>
      </trkpt>
      <trkpt lat="43.51216" lon="6.78975">
        <ele>172</ele>
        <time>2011-03-20T12:05:42+01:00</time>
      </trkpt>
      <trkpt lat="43.51216" lon="6.78973">
        <ele>172</ele>
        <time>2011-03-20T12:05:43+01:00</time>
      </trkpt>
      <trkpt lat="43.51216" lon="6.78962">
        <ele>171</ele>
        <time>2011-03-20T12:05:50+01:00</time>
      </trkpt>
      <trkpt lat="43.51217" lon="6.78957">
        <ele>171</ele>
        <time>2011-03-20T12:05:56+01:00</time>
      </trkpt>
      <trkpt lat="43.51217" lon="6.78956">
        <ele>171</ele>
        <time>2011-03-20T12:06:01+01:00</time>
      </trkpt>
      <trkpt lat="43.51215" lon="6.78956">
        <ele>171</ele>
        <time>2011-03-20T12:06:07+01:00</time>
      </trkpt>
      <trkpt lat="43.51215" lon="6.78951">
        <ele>171</ele>
        <time>2011-03-20T12:06:13+01:00</time>
      </trkpt>
      <trkpt lat="43.51217" lon="6.78951">
        <ele>171</ele>
        <time>2011-03-20T12:06:20+01:00</time>
      </trkpt>
      <trkpt lat="43.51218" lon="6.78946">
        <ele>171</ele>
        <time>2011-03-20T12:06:26+01:00</time>
      </trkpt>
      <trkpt lat="43.51219" lon="6.78943">
        <ele>171</ele>
        <time>2011-03-20T12:06:32+01:00</time>
      </trkpt>
      <trkpt lat="43.51221" lon="6.78939">
        <ele>172</ele>
        <time>2011-03-20T12:06:36+01:00</time>
      </trkpt>
      <trkpt lat="43.51222" lon="6.78936">
        <ele>172</ele>
        <time>2011-03-20T12:06:44+01:00</time>
      </trkpt>
      <trkpt lat="43.51224" lon="6.78929">
        <ele>172</ele>
        <time>2011-03-20T12:06:51+01:00</time>
      </trkpt>
      <trkpt lat="43.51225" lon="6.7892">
        <ele>172</ele>
        <time>2011-03-20T12:06:55+01:00</time>
      </trkpt>
      <trkpt lat="43.51223" lon="6.78916">
        <ele>171</ele>
        <time>2011-03-20T12:07:00+01:00</time>
      </trkpt>
      <trkpt lat="43.5122" lon="6.78909">
        <ele>170</ele>
        <time>2011-03-20T12:07:05+01:00</time>
      </trkpt>
      <trkpt lat="43.51218" lon="6.78903">
        <ele>170</ele>
        <time>2011-03-20T12:07:10+01:00</time>
      </trkpt>
      <trkpt lat="43.5122" lon="6.78895">
        <ele>170</ele>
        <time>2011-03-20T12:07:15+01:00</time>
      </trkpt>
      <trkpt lat="43.51216" lon="6.78886">
        <ele>169</ele>
        <time>2011-03-20T12:07:21+01:00</time>
      </trkpt>
      <trkpt lat="43.51216" lon="6.78871">
        <ele>169</ele>
        <time>2011-03-20T12:07:30+01:00</time>
      </trkpt>
      <trkpt lat="43.51215" lon="6.78868">
        <ele>169</ele>
        <time>2011-03-20T12:07:33+01:00</time>
      </trkpt>
      <trkpt lat="43.51211" lon="6.78863">
        <ele>169</ele>
        <time>2011-03-20T12:07:39+01:00</time>
      </trkpt>
      <trkpt lat="43.51209" lon="6.78859">
        <ele>168</ele>
        <time>2011-03-20T12:07:42+01:00</time>
      </trkpt>
      <trkpt lat="43.51205" lon="6.7885">
        <ele>167</ele>
        <time>2011-03-20T12:07:48+01:00</time>
      </trkpt>
      <trkpt lat="43.51203" lon="6.78842">
        <ele>167</ele>
        <time>2011-03-20T12:07:52+01:00</time>
      </trkpt>
      <trkpt lat="43.51201" lon="6.78835">
        <ele>166</ele>
        <time>2011-03-20T12:07:56+01:00</time>
      </trkpt>
      <trkpt lat="43.512" lon="6.78828">
        <ele>165</ele>
        <time>2011-03-20T12:08:01+01:00</time>
      </trkpt>
      <trkpt lat="43.51199" lon="6.78827">
        <ele>165</ele>
        <time>2011-03-20T12:08:03+01:00</time>
      </trkpt>
      <trkpt lat="43.51197" lon="6.78819">
        <ele>164</ele>
        <time>2011-03-20T12:08:09+01:00</time>
      </trkpt>
      <trkpt lat="43.51199" lon="6.78805">
        <ele>165</ele>
        <time>2011-03-20T12:08:13+01:00</time>
      </trkpt>
      <trkpt lat="43.51198" lon="6.78784">
        <ele>164</ele>
        <time>2011-03-20T12:08:20+01:00</time>
      </trkpt>
      <trkpt lat="43.51196" lon="6.78772">
        <ele>164</ele>
        <time>2011-03-20T12:08:24+01:00</time>
      </trkpt>
      <trkpt lat="43.51198" lon="6.78769">
        <ele>164</ele>
        <time>2011-03-20T12:08:29+01:00</time>
      </trkpt>
      <trkpt lat="43.51196" lon="6.78761">
        <ele>163</ele>
        <time>2011-03-20T12:08:35+01:00</time>
      </trkpt>
      <trkpt lat="43.51195" lon="6.78749">
        <ele>162</ele>
        <time>2011-03-20T12:08:40+01:00</time>
      </trkpt>
      <trkpt lat="43.51195" lon="6.78747">
        <ele>161</ele>
        <time>2011-03-20T12:08:41+01:00</time>
      </trkpt>
      <trkpt lat="43.51195" lon="6.78741">
        <ele>162</ele>
        <time>2011-03-20T12:08:45+01:00</time>
      </trkpt>
      <trkpt lat="43.51192" lon="6.78733">
        <ele>161</ele>
        <time>2011-03-20T12:08:50+01:00</time>
      </trkpt>
      <trkpt lat="43.51195" lon="6.78716">
        <ele>162</ele>
        <time>2011-03-20T12:08:56+01:00</time>
      </trkpt>
      <trkpt lat="43.51203" lon="6.78697">
        <ele>162</ele>
        <time>2011-03-20T12:09:01+01:00</time>
      </trkpt>
      <trkpt lat="43.51208" lon="6.78679">
        <ele>162</ele>
        <time>2011-03-20T12:09:06+01:00</time>
      </trkpt>
      <trkpt lat="43.51216" lon="6.78662">
        <ele>160</ele>
        <time>2011-03-20T12:09:10+01:00</time>
      </trkpt>
      <trkpt lat="43.51226" lon="6.78641">
        <ele>159</ele>
        <time>2011-03-20T12:09:15+01:00</time>
      </trkpt>
      <trkpt lat="43.51228" lon="6.78637">
        <ele>159</ele>
        <time>2011-03-20T12:09:19+01:00</time>
      </trkpt>
      <trkpt lat="43.51229" lon="6.78634">
        <ele>159</ele>
        <time>2011-03-20T12:09:24+01:00</time>
      </trkpt>
      <trkpt lat="43.51228" lon="6.78628">
        <ele>159</ele>
        <time>2011-03-20T12:09:30+01:00</time>
      </trkpt>
      <trkpt lat="43.5123" lon="6.78619">
        <ele>158</ele>
        <time>2011-03-20T12:09:35+01:00</time>
      </trkpt>
      <trkpt lat="43.51232" lon="6.78607">
        <ele>156</ele>
        <time>2011-03-20T12:09:41+01:00</time>
      </trkpt>
      <trkpt lat="43.51232" lon="6.78606">
        <ele>156</ele>
        <time>2011-03-20T12:09:42+01:00</time>
      </trkpt>
      <trkpt lat="43.51233" lon="6.78603">
        <ele>156</ele>
        <time>2011-03-20T12:09:49+01:00</time>
      </trkpt>
      <trkpt lat="43.51233" lon="6.78603">
        <ele>156</ele>
        <time>2011-03-20T12:10:00+01:00</time>
      </trkpt>
      <trkpt lat="43.51234" lon="6.78604">
        <ele>156</ele>
        <time>2011-03-20T12:10:11+01:00</time>
      </trkpt>
      <trkpt lat="43.51233" lon="6.78603">
        <ele>156</ele>
        <time>2011-03-20T12:10:20+01:00</time>
      </trkpt>
      <trkpt lat="43.51233" lon="6.78603">
        <ele>156</ele>
        <time>2011-03-20T12:10:28+01:00</time>
      </trkpt>
      <trkpt lat="43.51233" lon="6.78602">
        <ele>156</ele>
        <time>2011-03-20T12:10:33+01:00</time>
      </trkpt>
      <trkpt lat="43.51234" lon="6.78603">
        <ele>156</ele>
        <time>2011-03-20T12:10:44+01:00</time>
      </trkpt>
      <trkpt lat="43.51235" lon="6.78603">
        <ele>155</ele>
        <time>2011-03-20T12:10:53+01:00</time>
      </trkpt>
      <trkpt lat="43.51236" lon="6.78606">
        <ele>156</ele>
        <time>2011-03-20T12:11:11+01:00</time>
      </trkpt>
      <trkpt lat="43.51238" lon="6.78606">
        <ele>156</ele>
        <time>2011-03-20T12:11:31+01:00</time>
      </trkpt>
      <trkpt lat="43.51238" lon="6.78604">
        <ele>155</ele>
        <time>2011-03-20T12:11:37+01:00</time>
      </trkpt>
      <trkpt lat="43.51238" lon="6.786">
        <ele>155</ele>
        <time>2011-03-20T12:11:45+01:00</time>
      </trkpt>
      <trkpt lat="43.51239" lon="6.7859">
        <ele>153</ele>
        <time>2011-03-20T12:11:50+01:00</time>
      </trkpt>
      <trkpt lat="43.51239" lon="6.78581">
        <ele>150</ele>
        <time>2011-03-20T12:11:57+01:00</time>
      </trkpt>
      <trkpt lat="43.51239" lon="6.78579">
        <ele>151</ele>
        <time>2011-03-20T12:11:58+01:00</time>
      </trkpt>
      <trkpt lat="43.51241" lon="6.78574">
        <ele>151</ele>
        <time>2011-03-20T12:12:02+01:00</time>
      </trkpt>
      <trkpt lat="43.51247" lon="6.78564">
        <ele>151</ele>
        <time>2011-03-20T12:12:08+01:00</time>
      </trkpt>
      <trkpt lat="43.51248" lon="6.78563">
        <ele>151</ele>
        <time>2011-03-20T12:12:09+01:00</time>
      </trkpt>
      <trkpt lat="43.5125" lon="6.78559">
        <ele>152</ele>
        <time>2011-03-20T12:12:18+01:00</time>
      </trkpt>
      <trkpt lat="43.51254" lon="6.78555">
        <ele>157</ele>
        <time>2011-03-20T12:12:25+01:00</time>
      </trkpt>
      <trkpt lat="43.51255" lon="6.78547">
        <ele>158</ele>
        <time>2011-03-20T12:12:31+01:00</time>
      </trkpt>
      <trkpt lat="43.51255" lon="6.78545">
        <ele>158</ele>
        <time>2011-03-20T12:12:32+01:00</time>
      </trkpt>
      <trkpt lat="43.51256" lon="6.7854">
        <ele>158</ele>
        <time>2011-03-20T12:12:39+01:00</time>
      </trkpt>
      <trkpt lat="43.51255" lon="6.78539">
        <ele>158</ele>
        <time>2011-03-20T12:12:46+01:00</time>
      </trkpt>
      <trkpt lat="43.51255" lon="6.78537">
        <ele>157</ele>
        <time>2011-03-20T12:12:53+01:00</time>
      </trkpt>
      <trkpt lat="43.51254" lon="6.78526">
        <ele>156</ele>
        <time>2011-03-20T12:13:00+01:00</time>
      </trkpt>
      <trkpt lat="43.51255" lon="6.78521">
        <ele>155</ele>
        <time>2011-03-20T12:13:05+01:00</time>
      </trkpt>
      <trkpt lat="43.51253" lon="6.78516">
        <ele>153</ele>
        <time>2011-03-20T12:13:11+01:00</time>
      </trkpt>
      <trkpt lat="43.51253" lon="6.78514">
        <ele>152</ele>
        <time>2011-03-20T12:13:16+01:00</time>
      </trkpt>
      <trkpt lat="43.51251" lon="6.78506">
        <ele>147</ele>
        <time>2011-03-20T12:13:23+01:00</time>
      </trkpt>
      <trkpt lat="43.51248" lon="6.78501">
        <ele>144</ele>
        <time>2011-03-20T12:13:29+01:00</time>
      </trkpt>
      <trkpt lat="43.51243" lon="6.78496">
        <ele>146</ele>
        <time>2011-03-20T12:13:35+01:00</time>
      </trkpt>
      <trkpt lat="43.51242" lon="6.78491">
        <ele>147</ele>
        <time>2011-03-20T12:13:38+01:00</time>
      </trkpt>
      <trkpt lat="43.51241" lon="6.78488">
        <ele>147</ele>
        <time>2011-03-20T12:13:44+01:00</time>
      </trkpt>
      <trkpt lat="43.51241" lon="6.78488">
        <ele>147</ele>
        <time>2011-03-20T12:13:51+01:00</time>
      </trkpt>
      <trkpt lat="43.51241" lon="6.78485">
        <ele>148</ele>
        <time>2011-03-20T12:13:56+01:00</time>
      </trkpt>
      <trkpt lat="43.51239" lon="6.78481">
        <ele>148</ele>
        <time>2011-03-20T12:14:04+01:00</time>
      </trkpt>
      <trkpt lat="43.51237" lon="6.78471">
        <ele>149</ele>
        <time>2011-03-20T12:14:10+01:00</time>
      </trkpt>
      <trkpt lat="43.51237" lon="6.78466">
        <ele>150</ele>
        <time>2011-03-20T12:14:13+01:00</time>
      </trkpt>
      <trkpt lat="43.51232" lon="6.78455">
        <ele>150</ele>
        <time>2011-03-20T12:14:20+01:00</time>
      </trkpt>
      <trkpt lat="43.51232" lon="6.7845">
        <ele>150</ele>
        <time>2011-03-20T12:14:24+01:00</time>
      </trkpt>
      <trkpt lat="43.51229" lon="6.78446">
        <ele>150</ele>
        <time>2011-03-20T12:14:28+01:00</time>
      </trkpt>
      <trkpt lat="43.51226" lon="6.78434">
        <ele>150</ele>
        <time>2011-03-20T12:14:35+01:00</time>
      </trkpt>
      <trkpt lat="43.51222" lon="6.78416">
        <ele>148</ele>
        <time>2011-03-20T12:14:42+01:00</time>
      </trkpt>
      <trkpt lat="43.51221" lon="6.78396">
        <ele>148</ele>
        <time>2011-03-20T12:14:48+01:00</time>
      </trkpt>
      <trkpt lat="43.5122" lon="6.78387">
        <ele>147</ele>
        <time>2011-03-20T12:14:51+01:00</time>
      </trkpt>
      <trkpt lat="43.5122" lon="6.78387">
        <ele>147</ele>
        <time>2011-03-20T12:14:58+01:00</time>
      </trkpt>
      <trkpt lat="43.5122" lon="6.78385">
        <ele>147</ele>
        <time>2011-03-20T12:15:00+01:00</time>
      </trkpt>
      <trkpt lat="43.51219" lon="6.78365">
        <ele>147</ele>
        <time>2011-03-20T12:15:05+01:00</time>
      </trkpt>
      <trkpt lat="43.5122" lon="6.78331">
        <ele>144</ele>
        <time>2011-03-20T12:15:11+01:00</time>
      </trkpt>
      <trkpt lat="43.51227" lon="6.78312">
        <ele>143</ele>
        <time>2011-03-20T12:15:15+01:00</time>
      </trkpt>
      <trkpt lat="43.51229" lon="6.78308">
        <ele>143</ele>
        <time>2011-03-20T12:15:16+01:00</time>
      </trkpt>
      <trkpt lat="43.51237" lon="6.78277">
        <ele>140</ele>
        <time>2011-03-20T12:15:21+01:00</time>
      </trkpt>
      <trkpt lat="43.51236" lon="6.7826">
        <ele>138</ele>
        <time>2011-03-20T12:15:24+01:00</time>
      </trkpt>
      <trkpt lat="43.51237" lon="6.78237">
        <ele>137</ele>
        <time>2011-03-20T12:15:30+01:00</time>
      </trkpt>
      <trkpt lat="43.51239" lon="6.78233">
        <ele>137</ele>
        <time>2011-03-20T12:15:31+01:00</time>
      </trkpt>
      <trkpt lat="43.51255" lon="6.78208">
        <ele>131</ele>
        <time>2011-03-20T12:15:36+01:00</time>
      </trkpt>
      <trkpt lat="43.5127" lon="6.78183">
        <ele>130</ele>
        <time>2011-03-20T12:15:40+01:00</time>
      </trkpt>
      <trkpt lat="43.5128" lon="6.78147">
        <ele>127</ele>
        <time>2011-03-20T12:15:45+01:00</time>
      </trkpt>
      <trkpt lat="43.51281" lon="6.78119">
        <ele>127</ele>
        <time>2011-03-20T12:15:49+01:00</time>
      </trkpt>
      <trkpt lat="43.5129" lon="6.7811">
        <ele>127</ele>
        <time>2011-03-20T12:15:52+01:00</time>
      </trkpt>
      <trkpt lat="43.51303" lon="6.78102">
        <ele>127</ele>
        <time>2011-03-20T12:15:57+01:00</time>
      </trkpt>
      <trkpt lat="43.5132" lon="6.78093">
        <ele>125</ele>
        <time>2011-03-20T12:16:04+01:00</time>
      </trkpt>
      <trkpt lat="43.51321" lon="6.7809">
        <ele>125</ele>
        <time>2011-03-20T12:16:08+01:00</time>
      </trkpt>
      <trkpt lat="43.51329" lon="6.78076">
        <ele>125</ele>
        <time>2011-03-20T12:16:14+01:00</time>
      </trkpt>
      <trkpt lat="43.51334" lon="6.78056">
        <ele>136</ele>
        <time>2011-03-20T12:16:19+01:00</time>
      </trkpt>
      <trkpt lat="43.51331" lon="6.78034">
        <ele>127</ele>
        <time>2011-03-20T12:16:23+01:00</time>
      </trkpt>
      <trkpt lat="43.51325" lon="6.78009">
        <ele>126</ele>
        <time>2011-03-20T12:16:27+01:00</time>
      </trkpt>
      <trkpt lat="43.51321" lon="6.77991">
        <ele>126</ele>
        <time>2011-03-20T12:16:30+01:00</time>
      </trkpt>
      <trkpt lat="43.51312" lon="6.77957">
        <ele>127</ele>
        <time>2011-03-20T12:16:36+01:00</time>
      </trkpt>
      <trkpt lat="43.51311" lon="6.77945">
        <ele>126</ele>
        <time>2011-03-20T12:16:38+01:00</time>
      </trkpt>
      <trkpt lat="43.5132" lon="6.77915">
        <ele>119</ele>
        <time>2011-03-20T12:16:43+01:00</time>
      </trkpt>
      <trkpt lat="43.51326" lon="6.77905">
        <ele>119</ele>
        <time>2011-03-20T12:16:45+01:00</time>
      </trkpt>
      <trkpt lat="43.5134" lon="6.77879">
        <ele>121</ele>
        <time>2011-03-20T12:16:51+01:00</time>
      </trkpt>
      <trkpt lat="43.51345" lon="6.77869">
        <ele>121</ele>
        <time>2011-03-20T12:16:53+01:00</time>
      </trkpt>
      <trkpt lat="43.5135" lon="6.7786">
        <ele>121</ele>
        <time>2011-03-20T12:16:55+01:00</time>
      </trkpt>
      <trkpt lat="43.51354" lon="6.77832">
        <ele>113</ele>
        <time>2011-03-20T12:17:00+01:00</time>
      </trkpt>
      <trkpt lat="43.51362" lon="6.77804">
        <ele>115</ele>
        <time>2011-03-20T12:17:06+01:00</time>
      </trkpt>
      <trkpt lat="43.51366" lon="6.778">
        <ele>115</ele>
        <time>2011-03-20T12:17:07+01:00</time>
      </trkpt>
      <trkpt lat="43.51395" lon="6.77768">
        <ele>114</ele>
        <time>2011-03-20T12:17:14+01:00</time>
      </trkpt>
      <trkpt lat="43.51403" lon="6.77762">
        <ele>113</ele>
        <time>2011-03-20T12:17:16+01:00</time>
      </trkpt>
      <trkpt lat="43.51408" lon="6.77758">
        <ele>113</ele>
        <time>2011-03-20T12:17:20+01:00</time>
      </trkpt>
      <trkpt lat="43.51405" lon="6.7776">
        <ele>113</ele>
        <time>2011-03-20T12:17:36+01:00</time>
      </trkpt>
      <trkpt lat="43.5141" lon="6.77756">
        <ele>112</ele>
        <time>2011-03-20T12:17:39+01:00</time>
      </trkpt>
      <trkpt lat="43.51414" lon="6.7775">
        <ele>110</ele>
        <time>2011-03-20T12:17:43+01:00</time>
      </trkpt>
      <trkpt lat="43.51418" lon="6.77732">
        <ele>115</ele>
        <time>2011-03-20T12:17:50+01:00</time>
      </trkpt>
      <trkpt lat="43.51421" lon="6.77714">
        <ele>116</ele>
        <time>2011-03-20T12:17:57+01:00</time>
      </trkpt>
      <trkpt lat="43.51422" lon="6.77711">
        <ele>116</ele>
        <time>2011-03-20T12:17:58+01:00</time>
      </trkpt>
      <trkpt lat="43.51417" lon="6.77689">
        <ele>112</ele>
        <time>2011-03-20T12:18:04+01:00</time>
      </trkpt>
      <trkpt lat="43.514" lon="6.77672">
        <ele>105</ele>
        <time>2011-03-20T12:18:09+01:00</time>
      </trkpt>
      <trkpt lat="43.51394" lon="6.77657">
        <ele>100</ele>
        <time>2011-03-20T12:18:12+01:00</time>
      </trkpt>
      <trkpt lat="43.51393" lon="6.77651">
        <ele>100</ele>
        <time>2011-03-20T12:18:15+01:00</time>
      </trkpt>
      <trkpt lat="43.51393" lon="6.77648">
        <ele>100</ele>
        <time>2011-03-20T12:18:28+01:00</time>
      </trkpt>
      <trkpt lat="43.51386" lon="6.77629">
        <ele>99</ele>
        <time>2011-03-20T12:18:32+01:00</time>
      </trkpt>
      <trkpt lat="43.51378" lon="6.77602">
        <ele>97</ele>
        <time>2011-03-20T12:18:37+01:00</time>
      </trkpt>
      <trkpt lat="43.51372" lon="6.77588">
        <ele>97</ele>
        <time>2011-03-20T12:18:42+01:00</time>
      </trkpt>
      <trkpt lat="43.5137" lon="6.77585">
        <ele>96</ele>
        <time>2011-03-20T12:18:46+01:00</time>
      </trkpt>
      <trkpt lat="43.51368" lon="6.7758">
        <ele>91</ele>
        <time>2011-03-20T12:18:50+01:00</time>
      </trkpt>
      <trkpt lat="43.51367" lon="6.77577">
        <ele>90</ele>
        <time>2011-03-20T12:18:56+01:00</time>
      </trkpt>
      <trkpt lat="43.51365" lon="6.77571">
        <ele>90</ele>
        <time>2011-03-20T12:19:02+01:00</time>
      </trkpt>
      <trkpt lat="43.51363" lon="6.77569">
        <ele>90</ele>
        <time>2011-03-20T12:19:08+01:00</time>
      </trkpt>
      <trkpt lat="43.51361" lon="6.7756">
        <ele>90</ele>
        <time>2011-03-20T12:19:13+01:00</time>
      </trkpt>
      <trkpt lat="43.51357" lon="6.77544">
        <ele>89</ele>
        <time>2011-03-20T12:19:17+01:00</time>
      </trkpt>
      <trkpt lat="43.51357" lon="6.77529">
        <ele>89</ele>
        <time>2011-03-20T12:19:21+01:00</time>
      </trkpt>
      <trkpt lat="43.51358" lon="6.77529">
        <ele>89</ele>
        <time>2011-03-20T12:19:26+01:00</time>
      </trkpt>
      <trkpt lat="43.51359" lon="6.77529">
        <ele>89</ele>
        <time>2011-03-20T12:19:31+01:00</time>
      </trkpt>
      <trkpt lat="43.51366" lon="6.77516">
        <ele>88</ele>
        <time>2011-03-20T12:19:35+01:00</time>
      </trkpt>
      <trkpt lat="43.51375" lon="6.77509">
        <ele>88</ele>
        <time>2011-03-20T12:19:37+01:00</time>
      </trkpt>
      <trkpt lat="43.51384" lon="6.77482">
        <ele>84</ele>
        <time>2011-03-20T12:19:41+01:00</time>
      </trkpt>
      <trkpt lat="43.51384" lon="6.77476">
        <ele>84</ele>
        <time>2011-03-20T12:19:42+01:00</time>
      </trkpt>
      <trkpt lat="43.51386" lon="6.77465">
        <ele>83</ele>
        <time>2011-03-20T12:19:44+01:00</time>
      </trkpt>
      <trkpt lat="43.51386" lon="6.7744">
        <ele>83</ele>
        <time>2011-03-20T12:19:50+01:00</time>
      </trkpt>
      <trkpt lat="43.51384" lon="6.77434">
        <ele>83</ele>
        <time>2011-03-20T12:19:52+01:00</time>
      </trkpt>
      <trkpt lat="43.51383" lon="6.77434">
        <ele>83</ele>
        <time>2011-03-20T12:19:57+01:00</time>
      </trkpt>
      <trkpt lat="43.51382" lon="6.77434">
        <ele>83</ele>
        <time>2011-03-20T12:20:15+01:00</time>
      </trkpt>
      <trkpt lat="43.51381" lon="6.77434">
        <ele>83</ele>
        <time>2011-03-20T12:20:23+01:00</time>
      </trkpt>
      <trkpt lat="43.5138" lon="6.7743">
        <ele>83</ele>
        <time>2011-03-20T12:20:27+01:00</time>
      </trkpt>
      <trkpt lat="43.51376" lon="6.77424">
        <ele>83</ele>
        <time>2011-03-20T12:20:31+01:00</time>
      </trkpt>
      <trkpt lat="43.5137" lon="6.77404">
        <ele>81</ele>
        <time>2011-03-20T12:20:36+01:00</time>
      </trkpt>
      <trkpt lat="43.51362" lon="6.77381">
        <ele>81</ele>
        <time>2011-03-20T12:20:41+01:00</time>
      </trkpt>
      <trkpt lat="43.51344" lon="6.77357">
        <ele>81</ele>
        <time>2011-03-20T12:20:47+01:00</time>
      </trkpt>
      <trkpt lat="43.51338" lon="6.77348">
        <ele>82</ele>
        <time>2011-03-20T12:20:49+01:00</time>
      </trkpt>
      <trkpt lat="43.5132" lon="6.77313">
        <ele>81</ele>
        <time>2011-03-20T12:20:56+01:00</time>
      </trkpt>
      <trkpt lat="43.51318" lon="6.77308">
        <ele>81</ele>
        <time>2011-03-20T12:20:57+01:00</time>
      </trkpt>
      <trkpt lat="43.51301" lon="6.77295">
        <ele>81</ele>
        <time>2011-03-20T12:21:02+01:00</time>
      </trkpt>
      <trkpt lat="43.51287" lon="6.77302">
        <ele>81</ele>
        <time>2011-03-20T12:21:06+01:00</time>
      </trkpt>
      <trkpt lat="43.51279" lon="6.77319">
        <ele>82</ele>
        <time>2011-03-20T12:21:10+01:00</time>
      </trkpt>
      <trkpt lat="43.51271" lon="6.77363">
        <ele>86</ele>
        <time>2011-03-20T12:21:18+01:00</time>
      </trkpt>
      <trkpt lat="43.51264" lon="6.77397">
        <ele>88</ele>
        <time>2011-03-20T12:21:25+01:00</time>
      </trkpt>
      <trkpt lat="43.51251" lon="6.77397">
        <ele>89</ele>
        <time>2011-03-20T12:21:29+01:00</time>
      </trkpt>
      <trkpt lat="43.51237" lon="6.77378">
        <ele>90</ele>
        <time>2011-03-20T12:21:33+01:00</time>
      </trkpt>
      <trkpt lat="43.51232" lon="6.77365">
        <ele>90</ele>
        <time>2011-03-20T12:21:35+01:00</time>
      </trkpt>
      <trkpt lat="43.51221" lon="6.77316">
        <ele>84</ele>
        <time>2011-03-20T12:21:41+01:00</time>
      </trkpt>
      <trkpt lat="43.51206" lon="6.77287">
        <ele>84</ele>
        <time>2011-03-20T12:21:45+01:00</time>
      </trkpt>
      <trkpt lat="43.51187" lon="6.77284">
        <ele>85</ele>
        <time>2011-03-20T12:21:48+01:00</time>
      </trkpt>
      <trkpt lat="43.51171" lon="6.7728">
        <ele>85</ele>
        <time>2011-03-20T12:21:51+01:00</time>
      </trkpt>
      <trkpt lat="43.51168" lon="6.7727">
        <ele>84</ele>
        <time>2011-03-20T12:21:53+01:00</time>
      </trkpt>
      <trkpt lat="43.51169" lon="6.77265">
        <ele>84</ele>
        <time>2011-03-20T12:21:54+01:00</time>
      </trkpt>
      <trkpt lat="43.51176" lon="6.77234">
        <ele>83</ele>
        <time>2011-03-20T12:22:00+01:00</time>
      </trkpt>
      <trkpt lat="43.5117" lon="6.77212">
        <ele>83</ele>
        <time>2011-03-20T12:22:04+01:00</time>
      </trkpt>
      <trkpt lat="43.51157" lon="6.77203">
        <ele>86</ele>
        <time>2011-03-20T12:22:07+01:00</time>
      </trkpt>
      <trkpt lat="43.51148" lon="6.77198">
        <ele>87</ele>
        <time>2011-03-20T12:22:09+01:00</time>
      </trkpt>
      <trkpt lat="43.51127" lon="6.77184">
        <ele>87</ele>
        <time>2011-03-20T12:22:14+01:00</time>
      </trkpt>
      <trkpt lat="43.51112" lon="6.77179">
        <ele>88</ele>
        <time>2011-03-20T12:22:17+01:00</time>
      </trkpt>
      <trkpt lat="43.5109" lon="6.77162">
        <ele>87</ele>
        <time>2011-03-20T12:22:21+01:00</time>
      </trkpt>
      <trkpt lat="43.51089" lon="6.77144">
        <ele>85</ele>
        <time>2011-03-20T12:22:23+01:00</time>
      </trkpt>
      <trkpt lat="43.51093" lon="6.77126">
        <ele>84</ele>
        <time>2011-03-20T12:22:26+01:00</time>
      </trkpt>
      <trkpt lat="43.51095" lon="6.77123">
        <ele>84</ele>
        <time>2011-03-20T12:22:27+01:00</time>
      </trkpt>
      <trkpt lat="43.51109" lon="6.77096">
        <ele>83</ele>
        <time>2011-03-20T12:22:33+01:00</time>
      </trkpt>
      <trkpt lat="43.51114" lon="6.77072">
        <ele>80</ele>
        <time>2011-03-20T12:22:36+01:00</time>
      </trkpt>
      <trkpt lat="43.51113" lon="6.77033">
        <ele>78</ele>
        <time>2011-03-20T12:22:40+01:00</time>
      </trkpt>
      <trkpt lat="43.51106" lon="6.7699">
        <ele>74</ele>
        <time>2011-03-20T12:22:45+01:00</time>
      </trkpt>
      <trkpt lat="43.51096" lon="6.76983">
        <ele>74</ele>
        <time>2011-03-20T12:22:47+01:00</time>
      </trkpt>
      <trkpt lat="43.51074" lon="6.76976">
        <ele>77</ele>
        <time>2011-03-20T12:22:50+01:00</time>
      </trkpt>
      <trkpt lat="43.51052" lon="6.7695">
        <ele>77</ele>
        <time>2011-03-20T12:22:54+01:00</time>
      </trkpt>
      <trkpt lat="43.51035" lon="6.7692">
        <ele>77</ele>
        <time>2011-03-20T12:22:59+01:00</time>
      </trkpt>
      <trkpt lat="43.51027" lon="6.76906">
        <ele>73</ele>
        <time>2011-03-20T12:23:03+01:00</time>
      </trkpt>
      <trkpt lat="43.5102" lon="6.76901">
        <ele>74</ele>
        <time>2011-03-20T12:23:05+01:00</time>
      </trkpt>
      <trkpt lat="43.51002" lon="6.76875">
        <ele>73</ele>
        <time>2011-03-20T12:23:10+01:00</time>
      </trkpt>
      <trkpt lat="43.50995" lon="6.76866">
        <ele>76</ele>
        <time>2011-03-20T12:23:12+01:00</time>
      </trkpt>
      <trkpt lat="43.50974" lon="6.76844">
        <ele>75</ele>
        <time>2011-03-20T12:23:16+01:00</time>
      </trkpt>
      <trkpt lat="43.5096" lon="6.76832">
        <ele>72</ele>
        <time>2011-03-20T12:23:18+01:00</time>
      </trkpt>
      <trkpt lat="43.5093" lon="6.768">
        <ele>72</ele>
        <time>2011-03-20T12:23:23+01:00</time>
      </trkpt>
      <trkpt lat="43.50919" lon="6.76783">
        <ele>71</ele>
        <time>2011-03-20T12:23:25+01:00</time>
      </trkpt>
      <trkpt lat="43.50897" lon="6.76772">
        <ele>72</ele>
        <time>2011-03-20T12:23:29+01:00</time>
      </trkpt>
      <trkpt lat="43.50893" lon="6.76772">
        <ele>72</ele>
        <time>2011-03-20T12:23:30+01:00</time>
      </trkpt>
      <trkpt lat="43.50877" lon="6.76774">
        <ele>73</ele>
        <time>2011-03-20T12:23:35+01:00</time>
      </trkpt>
      <trkpt lat="43.50859" lon="6.76776">
        <ele>73</ele>
        <time>2011-03-20T12:23:42+01:00</time>
      </trkpt>
      <trkpt lat="43.50843" lon="6.76773">
        <ele>73</ele>
        <time>2011-03-20T12:23:49+01:00</time>
      </trkpt>
      <trkpt lat="43.50824" lon="6.76769">
        <ele>74</ele>
        <time>2011-03-20T12:23:55+01:00</time>
      </trkpt>
      <trkpt lat="43.50809" lon="6.76754">
        <ele>74</ele>
        <time>2011-03-20T12:23:59+01:00</time>
      </trkpt>
      <trkpt lat="43.50806" lon="6.76737">
        <ele>70</ele>
        <time>2011-03-20T12:24:02+01:00</time>
      </trkpt>
      <trkpt lat="43.50804" lon="6.76725">
        <ele>69</ele>
        <time>2011-03-20T12:24:04+01:00</time>
      </trkpt>
      <trkpt lat="43.50788" lon="6.76697">
        <ele>68</ele>
        <time>2011-03-20T12:24:09+01:00</time>
      </trkpt>
      <trkpt lat="43.50782" lon="6.76694">
        <ele>68</ele>
        <time>2011-03-20T12:24:10+01:00</time>
      </trkpt>
      <trkpt lat="43.50764" lon="6.76697">
        <ele>68</ele>
        <time>2011-03-20T12:24:15+01:00</time>
      </trkpt>
      <trkpt lat="43.50766" lon="6.76712">
        <ele>69</ele>
        <time>2011-03-20T12:24:20+01:00</time>
      </trkpt>
      <trkpt lat="43.50771" lon="6.76723">
        <ele>69</ele>
        <time>2011-03-20T12:24:24+01:00</time>
      </trkpt>
      <trkpt lat="43.50775" lon="6.76738">
        <ele>70</ele>
        <time>2011-03-20T12:24:30+01:00</time>
      </trkpt>
      <trkpt lat="43.50776" lon="6.76752">
        <ele>74</ele>
        <time>2011-03-20T12:24:35+01:00</time>
      </trkpt>
      <trkpt lat="43.50773" lon="6.76768">
        <ele>74</ele>
        <time>2011-03-20T12:24:40+01:00</time>
      </trkpt>
      <trkpt lat="43.50767" lon="6.76792">
        <ele>75</ele>
        <time>2011-03-20T12:24:47+01:00</time>
      </trkpt>
      <trkpt lat="43.50758" lon="6.76817">
        <ele>77</ele>
        <time>2011-03-20T12:24:54+01:00</time>
      </trkpt>
      <trkpt lat="43.50744" lon="6.76837">
        <ele>78</ele>
        <time>2011-03-20T12:25:01+01:00</time>
      </trkpt>
      <trkpt lat="43.50732" lon="6.76856">
        <ele>78</ele>
        <time>2011-03-20T12:25:07+01:00</time>
      </trkpt>
      <trkpt lat="43.50726" lon="6.76887">
        <ele>80</ele>
        <time>2011-03-20T12:25:13+01:00</time>
      </trkpt>
      <trkpt lat="43.50727" lon="6.76922">
        <ele>85</ele>
        <time>2011-03-20T12:25:19+01:00</time>
      </trkpt>
      <trkpt lat="43.50717" lon="6.7694">
        <ele>85</ele>
        <time>2011-03-20T12:25:23+01:00</time>
      </trkpt>
      <trkpt lat="43.50709" lon="6.76931">
        <ele>84</ele>
        <time>2011-03-20T12:25:26+01:00</time>
      </trkpt>
      <trkpt lat="43.50708" lon="6.76919">
        <ele>83</ele>
        <time>2011-03-20T12:25:29+01:00</time>
      </trkpt>
      <trkpt lat="43.50701" lon="6.76897">
        <ele>79</ele>
        <time>2011-03-20T12:25:35+01:00</time>
      </trkpt>
      <trkpt lat="43.5069" lon="6.76898">
        <ele>78</ele>
        <time>2011-03-20T12:25:39+01:00</time>
      </trkpt>
      <trkpt lat="43.50684" lon="6.76912">
        <ele>78</ele>
        <time>2011-03-20T12:25:42+01:00</time>
      </trkpt>
      <trkpt lat="43.50676" lon="6.76942">
        <ele>82</ele>
        <time>2011-03-20T12:25:48+01:00</time>
      </trkpt>
      <trkpt lat="43.50666" lon="6.76978">
        <ele>83</ele>
        <time>2011-03-20T12:25:55+01:00</time>
      </trkpt>
      <trkpt lat="43.50657" lon="6.76986">
        <ele>84</ele>
        <time>2011-03-20T12:25:58+01:00</time>
      </trkpt>
      <trkpt lat="43.50645" lon="6.76976">
        <ele>83</ele>
        <time>2011-03-20T12:26:02+01:00</time>
      </trkpt>
      <trkpt lat="43.50631" lon="6.7695">
        <ele>81</ele>
        <time>2011-03-20T12:26:08+01:00</time>
      </trkpt>
      <trkpt lat="43.5062" lon="6.7694">
        <ele>80</ele>
        <time>2011-03-20T12:26:11+01:00</time>
      </trkpt>
      <trkpt lat="43.50602" lon="6.76938">
        <ele>80</ele>
        <time>2011-03-20T12:26:15+01:00</time>
      </trkpt>
      <trkpt lat="43.50583" lon="6.76944">
        <ele>78</ele>
        <time>2011-03-20T12:26:20+01:00</time>
      </trkpt>
      <trkpt lat="43.50575" lon="6.76948">
        <ele>78</ele>
        <time>2011-03-20T12:26:22+01:00</time>
      </trkpt>
      <trkpt lat="43.50555" lon="6.76945">
        <ele>77</ele>
        <time>2011-03-20T12:26:27+01:00</time>
      </trkpt>
      <trkpt lat="43.50551" lon="6.76924">
        <ele>76</ele>
        <time>2011-03-20T12:26:30+01:00</time>
      </trkpt>
      <trkpt lat="43.5055" lon="6.76913">
        <ele>71</ele>
        <time>2011-03-20T12:26:31+01:00</time>
      </trkpt>
      <trkpt lat="43.50545" lon="6.76878">
        <ele>70</ele>
        <time>2011-03-20T12:26:34+01:00</time>
      </trkpt>
      <trkpt lat="43.50522" lon="6.76803">
        <ele>64</ele>
        <time>2011-03-20T12:26:40+01:00</time>
      </trkpt>
      <trkpt lat="43.50519" lon="6.7679">
        <ele>64</ele>
        <time>2011-03-20T12:26:41+01:00</time>
      </trkpt>
      <trkpt lat="43.50515" lon="6.76724">
        <ele>60</ele>
        <time>2011-03-20T12:26:46+01:00</time>
      </trkpt>
      <trkpt lat="43.50513" lon="6.76697">
        <ele>59</ele>
        <time>2011-03-20T12:26:48+01:00</time>
      </trkpt>
      <trkpt lat="43.5051" lon="6.76655">
        <ele>57</ele>
        <time>2011-03-20T12:26:52+01:00</time>
      </trkpt>
      <trkpt lat="43.50507" lon="6.76629">
        <ele>56</ele>
        <time>2011-03-20T12:26:55+01:00</time>
      </trkpt>
      <trkpt lat="43.50508" lon="6.76601">
        <ele>55</ele>
        <time>2011-03-20T12:27:00+01:00</time>
      </trkpt>
      <trkpt lat="43.50509" lon="6.76593">
        <ele>55</ele>
        <time>2011-03-20T12:27:04+01:00</time>
      </trkpt>
      <trkpt lat="43.50507" lon="6.76585">
        <ele>55</ele>
        <time>2011-03-20T12:27:19+01:00</time>
      </trkpt>
      <trkpt lat="43.50505" lon="6.76571">
        <ele>54</ele>
        <time>2011-03-20T12:27:22+01:00</time>
      </trkpt>
      <trkpt lat="43.50508" lon="6.76542">
        <ele>53</ele>
        <time>2011-03-20T12:27:27+01:00</time>
      </trkpt>
      <trkpt lat="43.50508" lon="6.76515">
        <ele>52</ele>
        <time>2011-03-20T12:27:31+01:00</time>
      </trkpt>
      <trkpt lat="43.50505" lon="6.76504">
        <ele>52</ele>
        <time>2011-03-20T12:27:33+01:00</time>
      </trkpt>
      <trkpt lat="43.50502" lon="6.7648">
        <ele>52</ele>
        <time>2011-03-20T12:27:39+01:00</time>
      </trkpt>
      <trkpt lat="43.50502" lon="6.76472">
        <ele>52</ele>
        <time>2011-03-20T12:27:43+01:00</time>
      </trkpt>
      <trkpt lat="43.505" lon="6.76452">
        <ele>52</ele>
        <time>2011-03-20T12:27:48+01:00</time>
      </trkpt>
      <trkpt lat="43.505" lon="6.76439">
        <ele>54</ele>
        <time>2011-03-20T12:27:52+01:00</time>
      </trkpt>
      <trkpt lat="43.50504" lon="6.76419">
        <ele>51</ele>
        <time>2011-03-20T12:27:57+01:00</time>
      </trkpt>
      <trkpt lat="43.50507" lon="6.76412">
        <ele>52</ele>
        <time>2011-03-20T12:27:59+01:00</time>
      </trkpt>
      <trkpt lat="43.50503" lon="6.76402">
        <ele>53</ele>
        <time>2011-03-20T12:28:04+01:00</time>
      </trkpt>
      <trkpt lat="43.50503" lon="6.76401">
        <ele>53</ele>
        <time>2011-03-20T12:28:05+01:00</time>
      </trkpt>
      <trkpt lat="43.50501" lon="6.76393">
        <ele>54</ele>
        <time>2011-03-20T12:28:11+01:00</time>
      </trkpt>
      <trkpt lat="43.50499" lon="6.76389">
        <ele>54</ele>
        <time>2011-03-20T12:28:22+01:00</time>
      </trkpt>
      <trkpt lat="43.50499" lon="6.76387">
        <ele>54</ele>
        <time>2011-03-20T12:28:27+01:00</time>
      </trkpt>
      <trkpt lat="43.505" lon="6.76386">
        <ele>54</ele>
        <time>2011-03-20T12:28:32+01:00</time>
      </trkpt>
      <trkpt lat="43.50502" lon="6.76378">
        <ele>55</ele>
        <time>2011-03-20T12:28:40+01:00</time>
      </trkpt>
      <trkpt lat="43.50502" lon="6.7637">
        <ele>55</ele>
        <time>2011-03-20T12:28:47+01:00</time>
      </trkpt>
      <trkpt lat="43.50498" lon="6.7637">
        <ele>54</ele>
        <time>2011-03-20T12:28:51+01:00</time>
      </trkpt>
      <trkpt lat="43.50496" lon="6.76371">
        <ele>54</ele>
        <time>2011-03-20T12:28:57+01:00</time>
      </trkpt>
      <trkpt lat="43.50494" lon="6.76368">
        <ele>54</ele>
        <time>2011-03-20T12:29:20+01:00</time>
      </trkpt>
      <trkpt lat="43.50491" lon="6.76368">
        <ele>55</ele>
        <time>2011-03-20T12:29:25+01:00</time>
      </trkpt>
      <trkpt lat="43.5049" lon="6.76367">
        <ele>55</ele>
        <time>2011-03-20T12:29:29+01:00</time>
      </trkpt>
      <trkpt lat="43.50486" lon="6.76351">
        <ele>54</ele>
        <time>2011-03-20T12:29:35+01:00</time>
      </trkpt>
      <trkpt lat="43.50482" lon="6.76337">
        <ele>54</ele>
        <time>2011-03-20T12:29:41+01:00</time>
      </trkpt>
      <trkpt lat="43.5048" lon="6.76336">
        <ele>54</ele>
        <time>2011-03-20T12:29:49+01:00</time>
      </trkpt>
      <trkpt lat="43.50474" lon="6.76322">
        <ele>54</ele>
        <time>2011-03-20T12:29:54+01:00</time>
      </trkpt>
      <trkpt lat="43.50472" lon="6.76305">
        <ele>55</ele>
        <time>2011-03-20T12:29:59+01:00</time>
      </trkpt>
      <trkpt lat="43.50477" lon="6.76283">
        <ele>54</ele>
        <time>2011-03-20T12:30:04+01:00</time>
      </trkpt>
      <trkpt lat="43.5048" lon="6.76256">
        <ele>54</ele>
        <time>2011-03-20T12:30:09+01:00</time>
      </trkpt>
      <trkpt lat="43.50474" lon="6.76242">
        <ele>53</ele>
        <time>2011-03-20T12:30:12+01:00</time>
      </trkpt>
      <trkpt lat="43.50472" lon="6.76217">
        <ele>53</ele>
        <time>2011-03-20T12:30:17+01:00</time>
      </trkpt>
      <trkpt lat="43.50474" lon="6.762">
        <ele>52</ele>
        <time>2011-03-20T12:30:21+01:00</time>
      </trkpt>
      <trkpt lat="43.50476" lon="6.76176">
        <ele>52</ele>
        <time>2011-03-20T12:30:26+01:00</time>
      </trkpt>
      <trkpt lat="43.50476" lon="6.76151">
        <ele>50</ele>
        <time>2011-03-20T12:30:32+01:00</time>
      </trkpt>
      <trkpt lat="43.5047" lon="6.76126">
        <ele>50</ele>
        <time>2011-03-20T12:30:38+01:00</time>
      </trkpt>
      <trkpt lat="43.50464" lon="6.76111">
        <ele>50</ele>
        <time>2011-03-20T12:30:42+01:00</time>
      </trkpt>
      <trkpt lat="43.50449" lon="6.7609">
        <ele>49</ele>
        <time>2011-03-20T12:30:48+01:00</time>
      </trkpt>
      <trkpt lat="43.50438" lon="6.76075">
        <ele>47</ele>
        <time>2011-03-20T12:30:52+01:00</time>
      </trkpt>
      <trkpt lat="43.50429" lon="6.76054">
        <ele>47</ele>
        <time>2011-03-20T12:30:57+01:00</time>
      </trkpt>
      <trkpt lat="43.50426" lon="6.76031">
        <ele>46</ele>
        <time>2011-03-20T12:31:02+01:00</time>
      </trkpt>
      <trkpt lat="43.50424" lon="6.76004">
        <ele>44</ele>
        <time>2011-03-20T12:31:07+01:00</time>
      </trkpt>
      <trkpt lat="43.50421" lon="6.75986">
        <ele>43</ele>
        <time>2011-03-20T12:31:10+01:00</time>
      </trkpt>
      <trkpt lat="43.50417" lon="6.75974">
        <ele>43</ele>
        <time>2011-03-20T12:31:12+01:00</time>
      </trkpt>
      <trkpt lat="43.50413" lon="6.75958">
        <ele>43</ele>
        <time>2011-03-20T12:31:15+01:00</time>
      </trkpt>
      <trkpt lat="43.50416" lon="6.75936">
        <ele>42</ele>
        <time>2011-03-20T12:31:20+01:00</time>
      </trkpt>
      <trkpt lat="43.50428" lon="6.75921">
        <ele>41</ele>
        <time>2011-03-20T12:31:24+01:00</time>
      </trkpt>
      <trkpt lat="43.50435" lon="6.75903">
        <ele>41</ele>
        <time>2011-03-20T12:31:27+01:00</time>
      </trkpt>
      <trkpt lat="43.50444" lon="6.75883">
        <ele>42</ele>
        <time>2011-03-20T12:31:31+01:00</time>
      </trkpt>
      <trkpt lat="43.50447" lon="6.7588">
        <ele>42</ele>
        <time>2011-03-20T12:31:32+01:00</time>
      </trkpt>
      <trkpt lat="43.50451" lon="6.75871">
        <ele>42</ele>
        <time>2011-03-20T12:31:34+01:00</time>
      </trkpt>
      <trkpt lat="43.50454" lon="6.7585">
        <ele>42</ele>
        <time>2011-03-20T12:31:39+01:00</time>
      </trkpt>
      <trkpt lat="43.50442" lon="6.75838">
        <ele>42</ele>
        <time>2011-03-20T12:31:42+01:00</time>
      </trkpt>
      <trkpt lat="43.50413" lon="6.75818">
        <ele>40</ele>
        <time>2011-03-20T12:31:47+01:00</time>
      </trkpt>
      <trkpt lat="43.50401" lon="6.75808">
        <ele>40</ele>
        <time>2011-03-20T12:31:50+01:00</time>
      </trkpt>
      <trkpt lat="43.50387" lon="6.75797">
        <ele>40</ele>
        <time>2011-03-20T12:31:54+01:00</time>
      </trkpt>
      <trkpt lat="43.50371" lon="6.75792">
        <ele>40</ele>
        <time>2011-03-20T12:31:59+01:00</time>
      </trkpt>
      <trkpt lat="43.50368" lon="6.75779">
        <ele>40</ele>
        <time>2011-03-20T12:32:03+01:00</time>
      </trkpt>
      <trkpt lat="43.50376" lon="6.75778">
        <ele>40</ele>
        <time>2011-03-20T12:32:06+01:00</time>
      </trkpt>
      <trkpt lat="43.50394" lon="6.75787">
        <ele>41</ele>
        <time>2011-03-20T12:32:10+01:00</time>
      </trkpt>
      <trkpt lat="43.50408" lon="6.75775">
        <ele>41</ele>
        <time>2011-03-20T12:32:13+01:00</time>
      </trkpt>
      <trkpt lat="43.50418" lon="6.75755">
        <ele>43</ele>
        <time>2011-03-20T12:32:16+01:00</time>
      </trkpt>
      <trkpt lat="43.50434" lon="6.75725">
        <ele>43</ele>
        <time>2011-03-20T12:32:20+01:00</time>
      </trkpt>
      <trkpt lat="43.50456" lon="6.75675">
        <ele>42</ele>
        <time>2011-03-20T12:32:26+01:00</time>
      </trkpt>
      <trkpt lat="43.50463" lon="6.75653">
        <ele>42</ele>
        <time>2011-03-20T12:32:29+01:00</time>
      </trkpt>
      <trkpt lat="43.50464" lon="6.75652">
        <ele>42</ele>
        <time>2011-03-20T12:32:34+01:00</time>
      </trkpt>
      <trkpt lat="43.50464" lon="6.75653">
        <ele>42</ele>
        <time>2011-03-20T12:32:40+01:00</time>
      </trkpt>
      <trkpt lat="43.5046" lon="6.75653">
        <ele>42</ele>
        <time>2011-03-20T12:32:45+01:00</time>
      </trkpt>
      <trkpt lat="43.50459" lon="6.75653">
        <ele>42</ele>
        <time>2011-03-20T12:32:48+01:00</time>
      </trkpt>
      <trkpt lat="43.50458" lon="6.75653">
        <ele>42</ele>
        <time>2011-03-20T12:32:57+01:00</time>
      </trkpt>
      <trkpt lat="43.50459" lon="6.75653">
        <ele>42</ele>
        <time>2011-03-20T12:33:05+01:00</time>
      </trkpt>
      <trkpt lat="43.50459" lon="6.75653">
        <ele>42</ele>
        <time>2011-03-20T12:33:06+01:00</time>
      </trkpt>
      <trkpt lat="43.50458" lon="6.75653">
        <ele>42</ele>
        <time>2011-03-20T12:33:15+01:00</time>
      </trkpt>
      <trkpt lat="43.50458" lon="6.75651">
        <ele>42</ele>
        <time>2011-03-20T12:33:23+01:00</time>
      </trkpt>
      <trkpt lat="43.50458" lon="6.75651">
        <ele>42</ele>
        <time>2011-03-20T12:33:29+01:00</time>
      </trkpt>
      <trkpt lat="43.50461" lon="6.75651">
        <ele>42</ele>
        <time>2011-03-20T12:33:32+01:00</time>
      </trkpt>
      <trkpt lat="43.50461" lon="6.75651">
        <ele>42</ele>
        <time>2011-03-20T12:33:37+01:00</time>
      </trkpt>
      <trkpt lat="43.50459" lon="6.75652">
        <ele>42</ele>
        <time>2011-03-20T12:33:40+01:00</time>
      </trkpt>
      <trkpt lat="43.50458" lon="6.75651">
        <ele>42</ele>
        <time>2011-03-20T12:33:51+01:00</time>
      </trkpt>
      <trkpt lat="43.50458" lon="6.75651">
        <ele>42</ele>
        <time>2011-03-20T12:33:55+01:00</time>
      </trkpt>
      <trkpt lat="43.50458" lon="6.75651">
        <ele>42</ele>
        <time>2011-03-20T12:34:01+01:00</time>
      </trkpt>
      <trkpt lat="43.50458" lon="6.7565">
        <ele>42</ele>
        <time>2011-03-20T12:34:07+01:00</time>
      </trkpt>
      <trkpt lat="43.50458" lon="6.75654">
        <ele>42</ele>
        <time>2011-03-20T12:34:14+01:00</time>
      </trkpt>
      <trkpt lat="43.50461" lon="6.75657">
        <ele>42</ele>
        <time>2011-03-20T12:34:20+01:00</time>
      </trkpt>
      <trkpt lat="43.5046" lon="6.75658">
        <ele>42</ele>
        <time>2011-03-20T12:34:32+01:00</time>
      </trkpt>
      <trkpt lat="43.5046" lon="6.75661">
        <ele>42</ele>
        <time>2011-03-20T12:34:34+01:00</time>
      </trkpt>
      <trkpt lat="43.50454" lon="6.7568">
        <ele>42</ele>
        <time>2011-03-20T12:34:40+01:00</time>
      </trkpt>
      <trkpt lat="43.50452" lon="6.757">
        <ele>42</ele>
        <time>2011-03-20T12:34:46+01:00</time>
      </trkpt>
      <trkpt lat="43.50452" lon="6.75704">
        <ele>42</ele>
        <time>2011-03-20T12:34:50+01:00</time>
      </trkpt>
      <trkpt lat="43.50454" lon="6.75707">
        <ele>42</ele>
        <time>2011-03-20T12:34:53+01:00</time>
      </trkpt>
      <trkpt lat="43.5045" lon="6.75716">
        <ele>43</ele>
        <time>2011-03-20T12:34:58+01:00</time>
      </trkpt>
      <trkpt lat="43.50449" lon="6.75721">
        <ele>43</ele>
        <time>2011-03-20T12:35:03+01:00</time>
      </trkpt>
      <trkpt lat="43.50455" lon="6.75725">
        <ele>43</ele>
        <time>2011-03-20T12:35:08+01:00</time>
      </trkpt>
      <trkpt lat="43.50464" lon="6.7573">
        <ele>43</ele>
        <time>2011-03-20T12:35:12+01:00</time>
      </trkpt>
      <trkpt lat="43.50466" lon="6.7573">
        <ele>43</ele>
        <time>2011-03-20T12:35:13+01:00</time>
      </trkpt>
      <trkpt lat="43.50471" lon="6.75729">
        <ele>43</ele>
        <time>2011-03-20T12:35:18+01:00</time>
      </trkpt>
      <trkpt lat="43.50475" lon="6.7573">
        <ele>43</ele>
        <time>2011-03-20T12:35:22+01:00</time>
      </trkpt>
      <trkpt lat="43.50481" lon="6.75735">
        <ele>44</ele>
        <time>2011-03-20T12:35:28+01:00</time>
      </trkpt>
      <trkpt lat="43.50483" lon="6.75735">
        <ele>44</ele>
        <time>2011-03-20T12:35:33+01:00</time>
      </trkpt>
      <trkpt lat="43.50484" lon="6.75734">
        <ele>44</ele>
        <time>2011-03-20T12:35:35+01:00</time>
      </trkpt>
      <trkpt lat="43.50492" lon="6.75726">
        <ele>44</ele>
        <time>2011-03-20T12:35:41+01:00</time>
      </trkpt>
      <trkpt lat="43.50496" lon="6.75728">
        <ele>44</ele>
        <time>2011-03-20T12:35:45+01:00</time>
      </trkpt>
      <trkpt lat="43.505" lon="6.75731">
        <ele>44</ele>
        <time>2011-03-20T12:35:50+01:00</time>
      </trkpt>
      <trkpt lat="43.50505" lon="6.75734">
        <ele>47</ele>
        <time>2011-03-20T12:35:54+01:00</time>
      </trkpt>
      <trkpt lat="43.50508" lon="6.75736">
        <ele>48</ele>
        <time>2011-03-20T12:35:57+01:00</time>
      </trkpt>
      <trkpt lat="43.50512" lon="6.75737">
        <ele>48</ele>
        <time>2011-03-20T12:36:04+01:00</time>
      </trkpt>
      <trkpt lat="43.50514" lon="6.75739">
        <ele>48</ele>
        <time>2011-03-20T12:36:09+01:00</time>
      </trkpt>
      <trkpt lat="43.50516" lon="6.7574">
        <ele>48</ele>
        <time>2011-03-20T12:36:13+01:00</time>
      </trkpt>
      <trkpt lat="43.50521" lon="6.75741">
        <ele>48</ele>
        <time>2011-03-20T12:36:20+01:00</time>
      </trkpt>
      <trkpt lat="43.50522" lon="6.75742">
        <ele>49</ele>
        <time>2011-03-20T12:36:25+01:00</time>
      </trkpt>
      <trkpt lat="43.50525" lon="6.75742">
        <ele>49</ele>
        <time>2011-03-20T12:36:29+01:00</time>
      </trkpt>
      <trkpt lat="43.50527" lon="6.75743">
        <ele>49</ele>
        <time>2011-03-20T12:36:33+01:00</time>
      </trkpt>
      <trkpt lat="43.50532" lon="6.75743">
        <ele>50</ele>
        <time>2011-03-20T12:36:39+01:00</time>
      </trkpt>
      <trkpt lat="43.50533" lon="6.75747">
        <ele>50</ele>
        <time>2011-03-20T12:36:45+01:00</time>
      </trkpt>
      <trkpt lat="43.50535" lon="6.75747">
        <ele>50</ele>
        <time>2011-03-20T12:36:50+01:00</time>
      </trkpt>
      <trkpt lat="43.50535" lon="6.75748">
        <ele>50</ele>
        <time>2011-03-20T12:36:55+01:00</time>
      </trkpt>
      <trkpt lat="43.50536" lon="6.75749">
        <ele>50</ele>
        <time>2011-03-20T12:37:01+01:00</time>
      </trkpt>
      <trkpt lat="43.50534" lon="6.75754">
        <ele>54</ele>
        <time>2011-03-20T12:37:05+01:00</time>
      </trkpt>
      <trkpt lat="43.50536" lon="6.75772">
        <ele>54</ele>
        <time>2011-03-20T12:37:14+01:00</time>
      </trkpt>
      <trkpt lat="43.50539" lon="6.75777">
        <ele>55</ele>
        <time>2011-03-20T12:37:19+01:00</time>
      </trkpt>
      <trkpt lat="43.5054" lon="6.75777">
        <ele>55</ele>
        <time>2011-03-20T12:37:30+01:00</time>
      </trkpt>
      <trkpt lat="43.50543" lon="6.75776">
        <ele>55</ele>
        <time>2011-03-20T12:37:33+01:00</time>
      </trkpt>
      <trkpt lat="43.50549" lon="6.75774">
        <ele>56</ele>
        <time>2011-03-20T12:37:38+01:00</time>
      </trkpt>
      <trkpt lat="43.50554" lon="6.75774">
        <ele>56</ele>
        <time>2011-03-20T12:37:44+01:00</time>
      </trkpt>
      <trkpt lat="43.50563" lon="6.75774">
        <ele>57</ele>
        <time>2011-03-20T12:37:53+01:00</time>
      </trkpt>
      <trkpt lat="43.50575" lon="6.75774">
        <ele>58</ele>
        <time>2011-03-20T12:38:01+01:00</time>
      </trkpt>
      <trkpt lat="43.50585" lon="6.75773">
        <ele>68</ele>
        <time>2011-03-20T12:38:07+01:00</time>
      </trkpt>
      <trkpt lat="43.50594" lon="6.75773">
        <ele>69</ele>
        <time>2011-03-20T12:38:14+01:00</time>
      </trkpt>
      <trkpt lat="43.506" lon="6.75772">
        <ele>69</ele>
        <time>2011-03-20T12:38:20+01:00</time>
      </trkpt>
      <trkpt lat="43.50607" lon="6.75771">
        <ele>70</ele>
        <time>2011-03-20T12:38:27+01:00</time>
      </trkpt>
      <trkpt lat="43.50608" lon="6.75771">
        <ele>70</ele>
        <time>2011-03-20T12:38:29+01:00</time>
      </trkpt>
      <trkpt lat="43.50615" lon="6.75772">
        <ele>71</ele>
        <time>2011-03-20T12:38:34+01:00</time>
      </trkpt>
      <trkpt lat="43.50617" lon="6.75774">
        <ele>71</ele>
        <time>2011-03-20T12:38:39+01:00</time>
      </trkpt>
      <trkpt lat="43.50621" lon="6.75776">
        <ele>72</ele>
        <time>2011-03-20T12:38:45+01:00</time>
      </trkpt>
      <trkpt lat="43.5062" lon="6.75775">
        <ele>72</ele>
        <time>2011-03-20T12:38:50+01:00</time>
      </trkpt>
      <trkpt lat="43.50621" lon="6.75775">
        <ele>72</ele>
        <time>2011-03-20T12:38:53+01:00</time>
      </trkpt>
      <trkpt lat="43.50621" lon="6.75775">
        <ele>72</ele>
        <time>2011-03-20T12:38:57+01:00</time>
      </trkpt>
      <trkpt lat="43.50619" lon="6.75772">
        <ele>72</ele>
        <time>2011-03-20T12:39:01+01:00</time>
      </trkpt>
      <trkpt lat="43.50621" lon="6.75771">
        <ele>72</ele>
        <time>2011-03-20T12:39:08+01:00</time>
      </trkpt>
      <trkpt lat="43.50622" lon="6.75772">
        <ele>72</ele>
        <time>2011-03-20T12:39:13+01:00</time>
      </trkpt>
      <trkpt lat="43.50622" lon="6.75772">
        <ele>72</ele>
        <time>2011-03-20T12:39:17+01:00</time>
      </trkpt>
      <trkpt lat="43.50621" lon="6.75773">
        <ele>72</ele>
        <time>2011-03-20T12:39:22+01:00</time>
      </trkpt>
      <trkpt lat="43.50624" lon="6.75775">
        <ele>72</ele>
        <time>2011-03-20T12:39:26+01:00</time>
      </trkpt>
      <trkpt lat="43.50624" lon="6.75774">
        <ele>72</ele>
        <time>2011-03-20T12:39:31+01:00</time>
      </trkpt>
      <trkpt lat="43.50624" lon="6.75775">
        <ele>72</ele>
        <time>2011-03-20T12:39:42+01:00</time>
      </trkpt>
      <trkpt lat="43.50632" lon="6.75788">
        <ele>73</ele>
        <time>2011-03-20T12:39:48+01:00</time>
      </trkpt>
      <trkpt lat="43.50641" lon="6.75801">
        <ele>74</ele>
        <time>2011-03-20T12:39:52+01:00</time>
      </trkpt>
      <trkpt lat="43.50651" lon="6.75819">
        <ele>75</ele>
        <time>2011-03-20T12:39:58+01:00</time>
      </trkpt>
      <trkpt lat="43.50663" lon="6.75828">
        <ele>77</ele>
        <time>2011-03-20T12:40:03+01:00</time>
      </trkpt>
      <trkpt lat="43.50665" lon="6.75829">
        <ele>77</ele>
        <time>2011-03-20T12:40:04+01:00</time>
      </trkpt>
      <trkpt lat="43.50678" lon="6.75827">
        <ele>79</ele>
        <time>2011-03-20T12:40:09+01:00</time>
      </trkpt>
      <trkpt lat="43.50685" lon="6.75825">
        <ele>79</ele>
        <time>2011-03-20T12:40:13+01:00</time>
      </trkpt>
      <trkpt lat="43.50689" lon="6.75822">
        <ele>80</ele>
        <time>2011-03-20T12:40:19+01:00</time>
      </trkpt>
      <trkpt lat="43.5069" lon="6.75819">
        <ele>80</ele>
        <time>2011-03-20T12:40:25+01:00</time>
      </trkpt>
      <trkpt lat="43.50692" lon="6.75811">
        <ele>80</ele>
        <time>2011-03-20T12:40:30+01:00</time>
      </trkpt>
      <trkpt lat="43.50694" lon="6.75806">
        <ele>80</ele>
        <time>2011-03-20T12:40:35+01:00</time>
      </trkpt>
      <trkpt lat="43.50696" lon="6.75798">
        <ele>80</ele>
        <time>2011-03-20T12:40:42+01:00</time>
      </trkpt>
      <trkpt lat="43.50699" lon="6.75795">
        <ele>81</ele>
        <time>2011-03-20T12:40:47+01:00</time>
      </trkpt>
      <trkpt lat="43.50701" lon="6.7579">
        <ele>81</ele>
        <time>2011-03-20T12:40:52+01:00</time>
      </trkpt>
      <trkpt lat="43.507" lon="6.75782">
        <ele>81</ele>
        <time>2011-03-20T12:40:58+01:00</time>
      </trkpt>
      <trkpt lat="43.50702" lon="6.75777">
        <ele>81</ele>
        <time>2011-03-20T12:41:03+01:00</time>
      </trkpt>
      <trkpt lat="43.50704" lon="6.75769">
        <ele>81</ele>
        <time>2011-03-20T12:41:09+01:00</time>
      </trkpt>
      <trkpt lat="43.50705" lon="6.75767">
        <ele>81</ele>
        <time>2011-03-20T12:41:11+01:00</time>
      </trkpt>
      <trkpt lat="43.50711" lon="6.75764">
        <ele>81</ele>
        <time>2011-03-20T12:41:17+01:00</time>
      </trkpt>
      <trkpt lat="43.50714" lon="6.7576">
        <ele>81</ele>
        <time>2011-03-20T12:41:22+01:00</time>
      </trkpt>
      <trkpt lat="43.50714" lon="6.7576">
        <ele>81</ele>
        <time>2011-03-20T12:41:29+01:00</time>
      </trkpt>
      <trkpt lat="43.50716" lon="6.75757">
        <ele>81</ele>
        <time>2011-03-20T12:41:35+01:00</time>
      </trkpt>
      <trkpt lat="43.50716" lon="6.75757">
        <ele>81</ele>
        <time>2011-03-20T12:41:40+01:00</time>
      </trkpt>
      <trkpt lat="43.50713" lon="6.75761">
        <ele>81</ele>
        <time>2011-03-20T12:41:56+01:00</time>
      </trkpt>
      <trkpt lat="43.50713" lon="6.75764">
        <ele>81</ele>
        <time>2011-03-20T12:41:58+01:00</time>
      </trkpt>
      <trkpt lat="43.5071" lon="6.75767">
        <ele>81</ele>
        <time>2011-03-20T12:42:02+01:00</time>
      </trkpt>
      <trkpt lat="43.50707" lon="6.75764">
        <ele>81</ele>
        <time>2011-03-20T12:42:05+01:00</time>
      </trkpt>
      <trkpt lat="43.50703" lon="6.75762">
        <ele>81</ele>
        <time>2011-03-20T12:42:08+01:00</time>
      </trkpt>
      <trkpt lat="43.50699" lon="6.75765">
        <ele>81</ele>
        <time>2011-03-20T12:42:10+01:00</time>
      </trkpt>
      <trkpt lat="43.50695" lon="6.75771">
        <ele>81</ele>
        <time>2011-03-20T12:42:16+01:00</time>
      </trkpt>
      <trkpt lat="43.50695" lon="6.75772">
        <ele>81</ele>
        <time>2011-03-20T12:42:17+01:00</time>
      </trkpt>
      <trkpt lat="43.50697" lon="6.75776">
        <ele>81</ele>
        <time>2011-03-20T12:42:20+01:00</time>
      </trkpt>
      <trkpt lat="43.50701" lon="6.75781">
        <ele>81</ele>
        <time>2011-03-20T12:42:24+01:00</time>
      </trkpt>
      <trkpt lat="43.50699" lon="6.7579">
        <ele>81</ele>
        <time>2011-03-20T12:42:28+01:00</time>
      </trkpt>
      <trkpt lat="43.50694" lon="6.75798">
        <ele>80</ele>
        <time>2011-03-20T12:42:33+01:00</time>
      </trkpt>
      <trkpt lat="43.50692" lon="6.75806">
        <ele>80</ele>
        <time>2011-03-20T12:42:38+01:00</time>
      </trkpt>
      <trkpt lat="43.50692" lon="6.75812">
        <ele>80</ele>
        <time>2011-03-20T12:42:42+01:00</time>
      </trkpt>
      <trkpt lat="43.50691" lon="6.75815">
        <ele>80</ele>
        <time>2011-03-20T12:42:44+01:00</time>
      </trkpt>
      <trkpt lat="43.50691" lon="6.75818">
        <ele>80</ele>
        <time>2011-03-20T12:42:50+01:00</time>
      </trkpt>
      <trkpt lat="43.50695" lon="6.75824">
        <ele>80</ele>
        <time>2011-03-20T12:42:56+01:00</time>
      </trkpt>
      <trkpt lat="43.507" lon="6.75826">
        <ele>80</ele>
        <time>2011-03-20T12:43:01+01:00</time>
      </trkpt>
      <trkpt lat="43.50706" lon="6.75831">
        <ele>80</ele>
        <time>2011-03-20T12:43:06+01:00</time>
      </trkpt>
      <trkpt lat="43.50722" lon="6.75842">
        <ele>76</ele>
        <time>2011-03-20T12:43:13+01:00</time>
      </trkpt>
      <trkpt lat="43.50732" lon="6.75846">
        <ele>76</ele>
        <time>2011-03-20T12:43:17+01:00</time>
      </trkpt>
      <trkpt lat="43.50735" lon="6.75848">
        <ele>76</ele>
        <time>2011-03-20T12:43:18+01:00</time>
      </trkpt>
      <trkpt lat="43.50741" lon="6.75863">
        <ele>75</ele>
        <time>2011-03-20T12:43:22+01:00</time>
      </trkpt>
      <trkpt lat="43.50745" lon="6.75871">
        <ele>75</ele>
        <time>2011-03-20T12:43:27+01:00</time>
      </trkpt>
      <trkpt lat="43.50751" lon="6.75873">
        <ele>76</ele>
        <time>2011-03-20T12:43:31+01:00</time>
      </trkpt>
      <trkpt lat="43.50761" lon="6.75877">
        <ele>76</ele>
        <time>2011-03-20T12:43:36+01:00</time>
      </trkpt>
      <trkpt lat="43.50762" lon="6.75878">
        <ele>76</ele>
        <time>2011-03-20T12:43:37+01:00</time>
      </trkpt>
      <trkpt lat="43.50775" lon="6.75892">
        <ele>76</ele>
        <time>2011-03-20T12:43:44+01:00</time>
      </trkpt>
      <trkpt lat="43.50785" lon="6.75905">
        <ele>77</ele>
        <time>2011-03-20T12:43:50+01:00</time>
      </trkpt>
      <trkpt lat="43.50797" lon="6.7591">
        <ele>78</ele>
        <time>2011-03-20T12:43:58+01:00</time>
      </trkpt>
      <trkpt lat="43.50807" lon="6.75911">
        <ele>79</ele>
        <time>2011-03-20T12:44:05+01:00</time>
      </trkpt>
      <trkpt lat="43.50817" lon="6.75913">
        <ele>80</ele>
        <time>2011-03-20T12:44:12+01:00</time>
      </trkpt>
      <trkpt lat="43.50826" lon="6.75913">
        <ele>82</ele>
        <time>2011-03-20T12:44:19+01:00</time>
      </trkpt>
      <trkpt lat="43.50835" lon="6.75917">
        <ele>85</ele>
        <time>2011-03-20T12:44:26+01:00</time>
      </trkpt>
      <trkpt lat="43.50844" lon="6.75922">
        <ele>86</ele>
        <time>2011-03-20T12:44:33+01:00</time>
      </trkpt>
      <trkpt lat="43.50856" lon="6.75928">
        <ele>86</ele>
        <time>2011-03-20T12:44:42+01:00</time>
      </trkpt>
      <trkpt lat="43.50864" lon="6.75934">
        <ele>87</ele>
        <time>2011-03-20T12:44:50+01:00</time>
      </trkpt>
      <trkpt lat="43.50873" lon="6.75942">
        <ele>87</ele>
        <time>2011-03-20T12:45:00+01:00</time>
      </trkpt>
      <trkpt lat="43.50877" lon="6.75948">
        <ele>87</ele>
        <time>2011-03-20T12:45:06+01:00</time>
      </trkpt>
      <trkpt lat="43.50881" lon="6.75954">
        <ele>88</ele>
        <time>2011-03-20T12:45:11+01:00</time>
      </trkpt>
      <trkpt lat="43.50887" lon="6.7596">
        <ele>88</ele>
        <time>2011-03-20T12:45:17+01:00</time>
      </trkpt>
      <trkpt lat="43.509" lon="6.75965">
        <ele>89</ele>
        <time>2011-03-20T12:45:26+01:00</time>
      </trkpt>
      <trkpt lat="43.50901" lon="6.75966">
        <ele>89</ele>
        <time>2011-03-20T12:45:28+01:00</time>
      </trkpt>
      <trkpt lat="43.50906" lon="6.75966">
        <ele>89</ele>
        <time>2011-03-20T12:45:33+01:00</time>
      </trkpt>
      <trkpt lat="43.50916" lon="6.75966">
        <ele>90</ele>
        <time>2011-03-20T12:45:39+01:00</time>
      </trkpt>
      <trkpt lat="43.50921" lon="6.75967">
        <ele>97</ele>
        <time>2011-03-20T12:45:42+01:00</time>
      </trkpt>
      <trkpt lat="43.50929" lon="6.75968">
        <ele>98</ele>
        <time>2011-03-20T12:45:47+01:00</time>
      </trkpt>
      <trkpt lat="43.50939" lon="6.75972">
        <ele>98</ele>
        <time>2011-03-20T12:45:54+01:00</time>
      </trkpt>
      <trkpt lat="43.50948" lon="6.75977">
        <ele>99</ele>
        <time>2011-03-20T12:46:00+01:00</time>
      </trkpt>
      <trkpt lat="43.50956" lon="6.75978">
        <ele>100</ele>
        <time>2011-03-20T12:46:06+01:00</time>
      </trkpt>
      <trkpt lat="43.50959" lon="6.75977">
        <ele>101</ele>
        <time>2011-03-20T12:46:11+01:00</time>
      </trkpt>
      <trkpt lat="43.50963" lon="6.75976">
        <ele>101</ele>
        <time>2011-03-20T12:46:15+01:00</time>
      </trkpt>
      <trkpt lat="43.50971" lon="6.75976">
        <ele>102</ele>
        <time>2011-03-20T12:46:21+01:00</time>
      </trkpt>
      <trkpt lat="43.50983" lon="6.75979">
        <ele>104</ele>
        <time>2011-03-20T12:46:31+01:00</time>
      </trkpt>
      <trkpt lat="43.5099" lon="6.75983">
        <ele>106</ele>
        <time>2011-03-20T12:46:38+01:00</time>
      </trkpt>
      <trkpt lat="43.51001" lon="6.75989">
        <ele>113</ele>
        <time>2011-03-20T12:46:47+01:00</time>
      </trkpt>
      <trkpt lat="43.51012" lon="6.7599">
        <ele>113</ele>
        <time>2011-03-20T12:46:55+01:00</time>
      </trkpt>
      <trkpt lat="43.51024" lon="6.75986">
        <ele>113</ele>
        <time>2011-03-20T12:47:04+01:00</time>
      </trkpt>
      <trkpt lat="43.5104" lon="6.7598">
        <ele>114</ele>
        <time>2011-03-20T12:47:15+01:00</time>
      </trkpt>
      <trkpt lat="43.51049" lon="6.75975">
        <ele>114</ele>
        <time>2011-03-20T12:47:19+01:00</time>
      </trkpt>
      <trkpt lat="43.51062" lon="6.7597">
        <ele>115</ele>
        <time>2011-03-20T12:47:24+01:00</time>
      </trkpt>
      <trkpt lat="43.51068" lon="6.75968">
        <ele>115</ele>
        <time>2011-03-20T12:47:26+01:00</time>
      </trkpt>
      <trkpt lat="43.51086" lon="6.75963">
        <ele>121</ele>
        <time>2011-03-20T12:47:32+01:00</time>
      </trkpt>
      <trkpt lat="43.51089" lon="6.75961">
        <ele>121</ele>
        <time>2011-03-20T12:47:34+01:00</time>
      </trkpt>
      <trkpt lat="43.51089" lon="6.75957">
        <ele>121</ele>
        <time>2011-03-20T12:47:43+01:00</time>
      </trkpt>
      <trkpt lat="43.51092" lon="6.75951">
        <ele>121</ele>
        <time>2011-03-20T12:47:48+01:00</time>
      </trkpt>
      <trkpt lat="43.51095" lon="6.75946">
        <ele>121</ele>
        <time>2011-03-20T12:47:53+01:00</time>
      </trkpt>
      <trkpt lat="43.51098" lon="6.75945">
        <ele>121</ele>
        <time>2011-03-20T12:47:58+01:00</time>
      </trkpt>
      <trkpt lat="43.51101" lon="6.75939">
        <ele>120</ele>
        <time>2011-03-20T12:48:02+01:00</time>
      </trkpt>
      <trkpt lat="43.51108" lon="6.75924">
        <ele>120</ele>
        <time>2011-03-20T12:48:07+01:00</time>
      </trkpt>
      <trkpt lat="43.51113" lon="6.75905">
        <ele>110</ele>
        <time>2011-03-20T12:48:11+01:00</time>
      </trkpt>
      <trkpt lat="43.51116" lon="6.75892">
        <ele>108</ele>
        <time>2011-03-20T12:48:15+01:00</time>
      </trkpt>
      <trkpt lat="43.51115" lon="6.75891">
        <ele>107</ele>
        <time>2011-03-20T12:48:18+01:00</time>
      </trkpt>
      <trkpt lat="43.51119" lon="6.75884">
        <ele>106</ele>
        <time>2011-03-20T12:48:23+01:00</time>
      </trkpt>
      <trkpt lat="43.51121" lon="6.75879">
        <ele>106</ele>
        <time>2011-03-20T12:48:26+01:00</time>
      </trkpt>
      <trkpt lat="43.51122" lon="6.75876">
        <ele>105</ele>
        <time>2011-03-20T12:48:31+01:00</time>
      </trkpt>
      <trkpt lat="43.51122" lon="6.75875">
        <ele>105</ele>
        <time>2011-03-20T12:48:32+01:00</time>
      </trkpt>
      <trkpt lat="43.51121" lon="6.75871">
        <ele>104</ele>
        <time>2011-03-20T12:48:37+01:00</time>
      </trkpt>
      <trkpt lat="43.51122" lon="6.75867">
        <ele>103</ele>
        <time>2011-03-20T12:48:41+01:00</time>
      </trkpt>
      <trkpt lat="43.5112" lon="6.75865">
        <ele>103</ele>
        <time>2011-03-20T12:48:44+01:00</time>
      </trkpt>
      <trkpt lat="43.51117" lon="6.75862">
        <ele>102</ele>
        <time>2011-03-20T12:48:48+01:00</time>
      </trkpt>
      <trkpt lat="43.51113" lon="6.7586">
        <ele>101</ele>
        <time>2011-03-20T12:48:52+01:00</time>
      </trkpt>
      <trkpt lat="43.5111" lon="6.75853">
        <ele>99</ele>
        <time>2011-03-20T12:48:58+01:00</time>
      </trkpt>
      <trkpt lat="43.51109" lon="6.75852">
        <ele>99</ele>
        <time>2011-03-20T12:49:04+01:00</time>
      </trkpt>
      <trkpt lat="43.51105" lon="6.75855">
        <ele>99</ele>
        <time>2011-03-20T12:49:09+01:00</time>
      </trkpt>
      <trkpt lat="43.51103" lon="6.75856">
        <ele>99</ele>
        <time>2011-03-20T12:49:13+01:00</time>
      </trkpt>
      <trkpt lat="43.51101" lon="6.75858">
        <ele>99</ele>
        <time>2011-03-20T12:49:18+01:00</time>
      </trkpt>
      <trkpt lat="43.51092" lon="6.75868">
        <ele>101</ele>
        <time>2011-03-20T12:49:23+01:00</time>
      </trkpt>
      <trkpt lat="43.51084" lon="6.75883">
        <ele>105</ele>
        <time>2011-03-20T12:49:27+01:00</time>
      </trkpt>
      <trkpt lat="43.51075" lon="6.75888">
        <ele>98</ele>
        <time>2011-03-20T12:49:31+01:00</time>
      </trkpt>
      <trkpt lat="43.51061" lon="6.7589">
        <ele>97</ele>
        <time>2011-03-20T12:49:36+01:00</time>
      </trkpt>
      <trkpt lat="43.51052" lon="6.75892">
        <ele>95</ele>
        <time>2011-03-20T12:49:39+01:00</time>
      </trkpt>
      <trkpt lat="43.51049" lon="6.75891">
        <ele>95</ele>
        <time>2011-03-20T12:49:44+01:00</time>
      </trkpt>
      <trkpt lat="43.51049" lon="6.75888">
        <ele>94</ele>
        <time>2011-03-20T12:49:49+01:00</time>
      </trkpt>
      <trkpt lat="43.51056" lon="6.75878">
        <ele>93</ele>
        <time>2011-03-20T12:49:53+01:00</time>
      </trkpt>
      <trkpt lat="43.5106" lon="6.75877">
        <ele>93</ele>
        <time>2011-03-20T12:49:54+01:00</time>
      </trkpt>
      <trkpt lat="43.51065" lon="6.75875">
        <ele>93</ele>
        <time>2011-03-20T12:49:56+01:00</time>
      </trkpt>
      <trkpt lat="43.51077" lon="6.75869">
        <ele>92</ele>
        <time>2011-03-20T12:50:01+01:00</time>
      </trkpt>
      <trkpt lat="43.51082" lon="6.7586">
        <ele>90</ele>
        <time>2011-03-20T12:50:04+01:00</time>
      </trkpt>
      <trkpt lat="43.51092" lon="6.75849">
        <ele>95</ele>
        <time>2011-03-20T12:50:08+01:00</time>
      </trkpt>
      <trkpt lat="43.51097" lon="6.75841">
        <ele>93</ele>
        <time>2011-03-20T12:50:11+01:00</time>
      </trkpt>
      <trkpt lat="43.51107" lon="6.7583">
        <ele>79</ele>
        <time>2011-03-20T12:50:15+01:00</time>
      </trkpt>
      <trkpt lat="43.5111" lon="6.75827">
        <ele>79</ele>
        <time>2011-03-20T12:50:16+01:00</time>
      </trkpt>
      <trkpt lat="43.51121" lon="6.75813">
        <ele>77</ele>
        <time>2011-03-20T12:50:21+01:00</time>
      </trkpt>
      <trkpt lat="43.51126" lon="6.7581">
        <ele>77</ele>
        <time>2011-03-20T12:50:23+01:00</time>
      </trkpt>
      <trkpt lat="43.51131" lon="6.75805">
        <ele>77</ele>
        <time>2011-03-20T12:50:25+01:00</time>
      </trkpt>
      <trkpt lat="43.51141" lon="6.75796">
        <ele>76</ele>
        <time>2011-03-20T12:50:30+01:00</time>
      </trkpt>
      <trkpt lat="43.51146" lon="6.75795">
        <ele>76</ele>
        <time>2011-03-20T12:50:36+01:00</time>
      </trkpt>
      <trkpt lat="43.51149" lon="6.75792">
        <ele>76</ele>
        <time>2011-03-20T12:50:41+01:00</time>
      </trkpt>
      <trkpt lat="43.5115" lon="6.75787">
        <ele>74</ele>
        <time>2011-03-20T12:50:44+01:00</time>
      </trkpt>
      <trkpt lat="43.51153" lon="6.75789">
        <ele>75</ele>
        <time>2011-03-20T12:50:50+01:00</time>
      </trkpt>
      <trkpt lat="43.51153" lon="6.75791">
        <ele>75</ele>
        <time>2011-03-20T12:50:56+01:00</time>
      </trkpt>
      <trkpt lat="43.51155" lon="6.75793">
        <ele>76</ele>
        <time>2011-03-20T12:51:01+01:00</time>
      </trkpt>
      <trkpt lat="43.51156" lon="6.75796">
        <ele>77</ele>
        <time>2011-03-20T12:51:15+01:00</time>
      </trkpt>
      <trkpt lat="43.51153" lon="6.75793">
        <ele>76</ele>
        <time>2011-03-20T12:51:21+01:00</time>
      </trkpt>
      <trkpt lat="43.51151" lon="6.75793">
        <ele>76</ele>
        <time>2011-03-20T12:51:25+01:00</time>
      </trkpt>
      <trkpt lat="43.51149" lon="6.75796">
        <ele>76</ele>
        <time>2011-03-20T12:51:28+01:00</time>
      </trkpt>
      <trkpt lat="43.51146" lon="6.75799">
        <ele>77</ele>
        <time>2011-03-20T12:51:33+01:00</time>
      </trkpt>
      <trkpt lat="43.51148" lon="6.75799">
        <ele>77</ele>
        <time>2011-03-20T12:51:37+01:00</time>
      </trkpt>
      <trkpt lat="43.51153" lon="6.75797">
        <ele>77</ele>
        <time>2011-03-20T12:51:43+01:00</time>
      </trkpt>
      <trkpt lat="43.51152" lon="6.75798">
        <ele>77</ele>
        <time>2011-03-20T12:51:54+01:00</time>
      </trkpt>
      <trkpt lat="43.51154" lon="6.758">
        <ele>78</ele>
        <time>2011-03-20T12:51:58+01:00</time>
      </trkpt>
      <trkpt lat="43.51155" lon="6.75803">
        <ele>79</ele>
        <time>2011-03-20T12:52:03+01:00</time>
      </trkpt>
      <trkpt lat="43.51155" lon="6.75803">
        <ele>79</ele>
        <time>2011-03-20T12:52:21+01:00</time>
      </trkpt>
      <trkpt lat="43.51155" lon="6.75808">
        <ele>80</ele>
        <time>2011-03-20T12:52:26+01:00</time>
      </trkpt>
      <trkpt lat="43.51156" lon="6.75815">
        <ele>82</ele>
        <time>2011-03-20T12:52:33+01:00</time>
      </trkpt>
      <trkpt lat="43.51155" lon="6.75815">
        <ele>82</ele>
        <time>2011-03-20T12:52:37+01:00</time>
      </trkpt>
      <trkpt lat="43.51153" lon="6.7582">
        <ele>83</ele>
        <time>2011-03-20T12:52:42+01:00</time>
      </trkpt>
      <trkpt lat="43.51151" lon="6.75823">
        <ele>84</ele>
        <time>2011-03-20T12:52:47+01:00</time>
      </trkpt>
      <trkpt lat="43.51151" lon="6.75824">
        <ele>84</ele>
        <time>2011-03-20T12:52:48+01:00</time>
      </trkpt>
      <trkpt lat="43.51153" lon="6.75827">
        <ele>85</ele>
        <time>2011-03-20T12:52:52+01:00</time>
      </trkpt>
      <trkpt lat="43.5115" lon="6.75824">
        <ele>83</ele>
        <time>2011-03-20T12:52:57+01:00</time>
      </trkpt>
      <trkpt lat="43.51147" lon="6.75823">
        <ele>83</ele>
        <time>2011-03-20T12:53:02+01:00</time>
      </trkpt>
      <trkpt lat="43.51145" lon="6.75827">
        <ele>83</ele>
        <time>2011-03-20T12:53:07+01:00</time>
      </trkpt>
      <trkpt lat="43.51143" lon="6.75829">
        <ele>82</ele>
        <time>2011-03-20T12:53:12+01:00</time>
      </trkpt>
      <trkpt lat="43.51141" lon="6.75834">
        <ele>99</ele>
        <time>2011-03-20T12:53:14+01:00</time>
      </trkpt>
      <trkpt lat="43.51142" lon="6.7584">
        <ele>100</ele>
        <time>2011-03-20T12:53:20+01:00</time>
      </trkpt>
      <trkpt lat="43.51141" lon="6.75841">
        <ele>100</ele>
        <time>2011-03-20T12:53:21+01:00</time>
      </trkpt>
      <trkpt lat="43.51141" lon="6.75844">
        <ele>100</ele>
        <time>2011-03-20T12:53:23+01:00</time>
      </trkpt>
      <trkpt lat="43.51143" lon="6.75848">
        <ele>101</ele>
        <time>2011-03-20T12:53:29+01:00</time>
      </trkpt>
      <trkpt lat="43.51154" lon="6.7585">
        <ele>100</ele>
        <time>2011-03-20T12:53:34+01:00</time>
      </trkpt>
      <trkpt lat="43.51156" lon="6.75851">
        <ele>101</ele>
        <time>2011-03-20T12:53:38+01:00</time>
      </trkpt>
      <trkpt lat="43.51158" lon="6.75851">
        <ele>100</ele>
        <time>2011-03-20T12:53:39+01:00</time>
      </trkpt>
      <trkpt lat="43.51164" lon="6.75843">
        <ele>98</ele>
        <time>2011-03-20T12:53:43+01:00</time>
      </trkpt>
      <trkpt lat="43.51169" lon="6.75845">
        <ele>98</ele>
        <time>2011-03-20T12:53:47+01:00</time>
      </trkpt>
      <trkpt lat="43.51168" lon="6.75844">
        <ele>98</ele>
        <time>2011-03-20T12:53:51+01:00</time>
      </trkpt>
      <trkpt lat="43.51167" lon="6.75839">
        <ele>96</ele>
        <time>2011-03-20T12:53:55+01:00</time>
      </trkpt>
      <trkpt lat="43.51165" lon="6.75837">
        <ele>96</ele>
        <time>2011-03-20T12:53:57+01:00</time>
      </trkpt>
      <trkpt lat="43.51158" lon="6.75832">
        <ele>88</ele>
        <time>2011-03-20T12:54:01+01:00</time>
      </trkpt>
      <trkpt lat="43.51156" lon="6.75833">
        <ele>87</ele>
        <time>2011-03-20T12:54:05+01:00</time>
      </trkpt>
      <trkpt lat="43.51155" lon="6.75836">
        <ele>98</ele>
        <time>2011-03-20T12:54:19+01:00</time>
      </trkpt>
      <trkpt lat="43.51154" lon="6.75839">
        <ele>98</ele>
        <time>2011-03-20T12:54:23+01:00</time>
      </trkpt>
      <trkpt lat="43.51156" lon="6.75835">
        <ele>98</ele>
        <time>2011-03-20T12:54:28+01:00</time>
      </trkpt>
      <trkpt lat="43.51151" lon="6.75835">
        <ele>98</ele>
        <time>2011-03-20T12:54:33+01:00</time>
      </trkpt>
      <trkpt lat="43.51151" lon="6.75836">
        <ele>99</ele>
        <time>2011-03-20T12:54:34+01:00</time>
      </trkpt>
      <trkpt lat="43.51144" lon="6.75837">
        <ele>99</ele>
        <time>2011-03-20T12:54:39+01:00</time>
      </trkpt>
      <trkpt lat="43.51143" lon="6.75831">
        <ele>82</ele>
        <time>2011-03-20T12:54:43+01:00</time>
      </trkpt>
      <trkpt lat="43.51142" lon="6.7582">
        <ele>81</ele>
        <time>2011-03-20T12:54:49+01:00</time>
      </trkpt>
      <trkpt lat="43.51144" lon="6.75816">
        <ele>81</ele>
        <time>2011-03-20T12:54:52+01:00</time>
      </trkpt>
      <trkpt lat="43.51145" lon="6.75811">
        <ele>80</ele>
        <time>2011-03-20T12:54:56+01:00</time>
      </trkpt>
      <trkpt lat="43.51141" lon="6.75809">
        <ele>79</ele>
        <time>2011-03-20T12:54:58+01:00</time>
      </trkpt>
      <trkpt lat="43.51134" lon="6.75805">
        <ele>77</ele>
        <time>2011-03-20T12:55:05+01:00</time>
      </trkpt>
      <trkpt lat="43.51135" lon="6.75797">
        <ele>76</ele>
        <time>2011-03-20T12:55:08+01:00</time>
      </trkpt>
      <trkpt lat="43.51138" lon="6.75797">
        <ele>76</ele>
        <time>2011-03-20T12:55:09+01:00</time>
      </trkpt>
      <trkpt lat="43.51149" lon="6.75794">
        <ele>76</ele>
        <time>2011-03-20T12:55:14+01:00</time>
      </trkpt>
      <trkpt lat="43.51152" lon="6.75789">
        <ele>75</ele>
        <time>2011-03-20T12:55:18+01:00</time>
      </trkpt>
      <trkpt lat="43.51153" lon="6.75789">
        <ele>75</ele>
        <time>2011-03-20T12:55:19+01:00</time>
      </trkpt>
      <trkpt lat="43.51156" lon="6.75782">
        <ele>73</ele>
        <time>2011-03-20T12:55:23+01:00</time>
      </trkpt>
      <trkpt lat="43.51159" lon="6.75775">
        <ele>72</ele>
        <time>2011-03-20T12:55:27+01:00</time>
      </trkpt>
      <trkpt lat="43.51164" lon="6.75771">
        <ele>70</ele>
        <time>2011-03-20T12:55:31+01:00</time>
      </trkpt>
      <trkpt lat="43.51168" lon="6.75767">
        <ele>69</ele>
        <time>2011-03-20T12:55:34+01:00</time>
      </trkpt>
      <trkpt lat="43.5117" lon="6.75765">
        <ele>68</ele>
        <time>2011-03-20T12:55:36+01:00</time>
      </trkpt>
      <trkpt lat="43.51172" lon="6.75761">
        <ele>67</ele>
        <time>2011-03-20T12:55:42+01:00</time>
      </trkpt>
      <trkpt lat="43.51172" lon="6.75759">
        <ele>67</ele>
        <time>2011-03-20T12:55:49+01:00</time>
      </trkpt>
      <trkpt lat="43.51174" lon="6.75752">
        <ele>66</ele>
        <time>2011-03-20T12:55:54+01:00</time>
      </trkpt>
      <trkpt lat="43.51172" lon="6.75747">
        <ele>62</ele>
        <time>2011-03-20T12:55:57+01:00</time>
      </trkpt>
      <trkpt lat="43.51173" lon="6.75742">
        <ele>62</ele>
        <time>2011-03-20T12:56:01+01:00</time>
      </trkpt>
      <trkpt lat="43.51179" lon="6.75744">
        <ele>62</ele>
        <time>2011-03-20T12:56:05+01:00</time>
      </trkpt>
      <trkpt lat="43.51187" lon="6.75757">
        <ele>69</ele>
        <time>2011-03-20T12:56:11+01:00</time>
      </trkpt>
      <trkpt lat="43.51192" lon="6.75764">
        <ele>70</ele>
        <time>2011-03-20T12:56:15+01:00</time>
      </trkpt>
      <trkpt lat="43.51194" lon="6.75765">
        <ele>70</ele>
        <time>2011-03-20T12:56:16+01:00</time>
      </trkpt>
      <trkpt lat="43.51204" lon="6.75757">
        <ele>69</ele>
        <time>2011-03-20T12:56:21+01:00</time>
      </trkpt>
      <trkpt lat="43.51204" lon="6.75756">
        <ele>69</ele>
        <time>2011-03-20T12:56:23+01:00</time>
      </trkpt>
      <trkpt lat="43.51212" lon="6.75753">
        <ele>68</ele>
        <time>2011-03-20T12:56:30+01:00</time>
      </trkpt>
      <trkpt lat="43.51213" lon="6.7575">
        <ele>68</ele>
        <time>2011-03-20T12:56:33+01:00</time>
      </trkpt>
      <trkpt lat="43.5122" lon="6.7574">
        <ele>60</ele>
        <time>2011-03-20T12:56:37+01:00</time>
      </trkpt>
      <trkpt lat="43.51223" lon="6.75728">
        <ele>60</ele>
        <time>2011-03-20T12:56:41+01:00</time>
      </trkpt>
      <trkpt lat="43.51223" lon="6.75724">
        <ele>61</ele>
        <time>2011-03-20T12:56:43+01:00</time>
      </trkpt>
      <trkpt lat="43.51226" lon="6.75708">
        <ele>61</ele>
        <time>2011-03-20T12:56:48+01:00</time>
      </trkpt>
      <trkpt lat="43.51227" lon="6.75703">
        <ele>61</ele>
        <time>2011-03-20T12:56:51+01:00</time>
      </trkpt>
      <trkpt lat="43.51228" lon="6.75699">
        <ele>62</ele>
        <time>2011-03-20T12:56:56+01:00</time>
      </trkpt>
      <trkpt lat="43.51227" lon="6.75696">
        <ele>62</ele>
        <time>2011-03-20T12:56:57+01:00</time>
      </trkpt>
      <trkpt lat="43.51225" lon="6.75687">
        <ele>62</ele>
        <time>2011-03-20T12:57:01+01:00</time>
      </trkpt>
      <trkpt lat="43.51226" lon="6.75684">
        <ele>62</ele>
        <time>2011-03-20T12:57:08+01:00</time>
      </trkpt>
      <trkpt lat="43.51225" lon="6.75677">
        <ele>62</ele>
        <time>2011-03-20T12:57:14+01:00</time>
      </trkpt>
      <trkpt lat="43.51223" lon="6.75673">
        <ele>62</ele>
        <time>2011-03-20T12:57:16+01:00</time>
      </trkpt>
      <trkpt lat="43.5122" lon="6.7566">
        <ele>74</ele>
        <time>2011-03-20T12:57:21+01:00</time>
      </trkpt>
      <trkpt lat="43.5122" lon="6.7566">
        <ele>74</ele>
        <time>2011-03-20T12:57:23+01:00</time>
      </trkpt>
      <trkpt lat="43.51219" lon="6.75665">
        <ele>73</ele>
        <time>2011-03-20T12:57:26+01:00</time>
      </trkpt>
      <trkpt lat="43.5122" lon="6.7567">
        <ele>62</ele>
        <time>2011-03-20T12:57:30+01:00</time>
      </trkpt>
      <trkpt lat="43.51227" lon="6.75673">
        <ele>63</ele>
        <time>2011-03-20T12:57:35+01:00</time>
      </trkpt>
      <trkpt lat="43.51227" lon="6.75673">
        <ele>63</ele>
        <time>2011-03-20T12:57:36+01:00</time>
      </trkpt>
      <trkpt lat="43.51226" lon="6.75675">
        <ele>62</ele>
        <time>2011-03-20T12:57:38+01:00</time>
      </trkpt>
      <trkpt lat="43.51229" lon="6.75681">
        <ele>62</ele>
        <time>2011-03-20T12:57:43+01:00</time>
      </trkpt>
      <trkpt lat="43.51228" lon="6.75689">
        <ele>62</ele>
        <time>2011-03-20T12:57:48+01:00</time>
      </trkpt>
      <trkpt lat="43.51227" lon="6.75692">
        <ele>62</ele>
        <time>2011-03-20T12:58:00+01:00</time>
      </trkpt>
      <trkpt lat="43.51227" lon="6.75693">
        <ele>62</ele>
        <time>2011-03-20T12:58:04+01:00</time>
      </trkpt>
      <trkpt lat="43.51226" lon="6.7569">
        <ele>62</ele>
        <time>2011-03-20T12:58:09+01:00</time>
      </trkpt>
      <trkpt lat="43.51228" lon="6.75692">
        <ele>62</ele>
        <time>2011-03-20T12:58:24+01:00</time>
      </trkpt>
      <trkpt lat="43.5123" lon="6.75693">
        <ele>62</ele>
        <time>2011-03-20T12:58:25+01:00</time>
      </trkpt>
      <trkpt lat="43.51239" lon="6.75697">
        <ele>62</ele>
        <time>2011-03-20T12:58:31+01:00</time>
      </trkpt>
      <trkpt lat="43.51245" lon="6.75708">
        <ele>61</ele>
        <time>2011-03-20T12:58:35+01:00</time>
      </trkpt>
      <trkpt lat="43.51256" lon="6.75717">
        <ele>61</ele>
        <time>2011-03-20T12:58:40+01:00</time>
      </trkpt>
      <trkpt lat="43.51257" lon="6.75718">
        <ele>61</ele>
        <time>2011-03-20T12:58:41+01:00</time>
      </trkpt>
      <trkpt lat="43.51269" lon="6.75731">
        <ele>60</ele>
        <time>2011-03-20T12:58:49+01:00</time>
      </trkpt>
      <trkpt lat="43.51272" lon="6.75732">
        <ele>60</ele>
        <time>2011-03-20T12:58:57+01:00</time>
      </trkpt>
      <trkpt lat="43.51274" lon="6.75734">
        <ele>60</ele>
        <time>2011-03-20T12:58:59+01:00</time>
      </trkpt>
      <trkpt lat="43.51283" lon="6.75744">
        <ele>60</ele>
        <time>2011-03-20T12:59:04+01:00</time>
      </trkpt>
      <trkpt lat="43.5129" lon="6.75749">
        <ele>60</ele>
        <time>2011-03-20T12:59:07+01:00</time>
      </trkpt>
      <trkpt lat="43.51299" lon="6.75752">
        <ele>62</ele>
        <time>2011-03-20T12:59:12+01:00</time>
      </trkpt>
      <trkpt lat="43.51302" lon="6.75752">
        <ele>61</ele>
        <time>2011-03-20T12:59:13+01:00</time>
      </trkpt>
      <trkpt lat="43.51321" lon="6.75757">
        <ele>59</ele>
        <time>2011-03-20T12:59:19+01:00</time>
      </trkpt>
      <trkpt lat="43.51334" lon="6.75755">
        <ele>56</ele>
        <time>2011-03-20T12:59:23+01:00</time>
      </trkpt>
      <trkpt lat="43.51338" lon="6.75755">
        <ele>57</ele>
        <time>2011-03-20T12:59:25+01:00</time>
      </trkpt>
      <trkpt lat="43.51339" lon="6.75755">
        <ele>57</ele>
        <time>2011-03-20T12:59:29+01:00</time>
      </trkpt>
      <trkpt lat="43.51317" lon="6.75755">
        <ele>60</ele>
        <time>2011-03-20T12:59:35+01:00</time>
      </trkpt>
      <trkpt lat="43.51303" lon="6.75753">
        <ele>61</ele>
        <time>2011-03-20T12:59:39+01:00</time>
      </trkpt>
      <trkpt lat="43.51297" lon="6.75749">
        <ele>60</ele>
        <time>2011-03-20T12:59:41+01:00</time>
      </trkpt>
      <trkpt lat="43.51299" lon="6.75744">
        <ele>60</ele>
        <time>2011-03-20T12:59:45+01:00</time>
      </trkpt>
      <trkpt lat="43.513" lon="6.75744">
        <ele>60</ele>
        <time>2011-03-20T12:59:46+01:00</time>
      </trkpt>
      <trkpt lat="43.51301" lon="6.7574">
        <ele>60</ele>
        <time>2011-03-20T12:59:50+01:00</time>
      </trkpt>
      <trkpt lat="43.51303" lon="6.75736">
        <ele>60</ele>
        <time>2011-03-20T12:59:56+01:00</time>
      </trkpt>
      <trkpt lat="43.51309" lon="6.75734">
        <ele>60</ele>
        <time>2011-03-20T13:00:01+01:00</time>
      </trkpt>
      <trkpt lat="43.51313" lon="6.75732">
        <ele>60</ele>
        <time>2011-03-20T13:00:04+01:00</time>
      </trkpt>
      <trkpt lat="43.51318" lon="6.75732">
        <ele>60</ele>
        <time>2011-03-20T13:00:08+01:00</time>
      </trkpt>
      <trkpt lat="43.51325" lon="6.75728">
        <ele>60</ele>
        <time>2011-03-20T13:00:11+01:00</time>
      </trkpt>
      <trkpt lat="43.51332" lon="6.75722">
        <ele>61</ele>
        <time>2011-03-20T13:00:14+01:00</time>
      </trkpt>
      <trkpt lat="43.51333" lon="6.7572">
        <ele>60</ele>
        <time>2011-03-20T13:00:17+01:00</time>
      </trkpt>
      <trkpt lat="43.51335" lon="6.75711">
        <ele>61</ele>
        <time>2011-03-20T13:00:22+01:00</time>
      </trkpt>
      <trkpt lat="43.51339" lon="6.75706">
        <ele>62</ele>
        <time>2011-03-20T13:00:25+01:00</time>
      </trkpt>
      <trkpt lat="43.51345" lon="6.75698">
        <ele>63</ele>
        <time>2011-03-20T13:00:28+01:00</time>
      </trkpt>
      <trkpt lat="43.51351" lon="6.75693">
        <ele>63</ele>
        <time>2011-03-20T13:00:31+01:00</time>
      </trkpt>
      <trkpt lat="43.51354" lon="6.75689">
        <ele>63</ele>
        <time>2011-03-20T13:00:34+01:00</time>
      </trkpt>
      <trkpt lat="43.5136" lon="6.75682">
        <ele>64</ele>
        <time>2011-03-20T13:00:41+01:00</time>
      </trkpt>
      <trkpt lat="43.51363" lon="6.75677">
        <ele>64</ele>
        <time>2011-03-20T13:00:44+01:00</time>
      </trkpt>
      <trkpt lat="43.51367" lon="6.75661">
        <ele>70</ele>
        <time>2011-03-20T13:00:49+01:00</time>
      </trkpt>
      <trkpt lat="43.51372" lon="6.75643">
        <ele>71</ele>
        <time>2011-03-20T13:00:54+01:00</time>
      </trkpt>
      <trkpt lat="43.51376" lon="6.75637">
        <ele>71</ele>
        <time>2011-03-20T13:00:57+01:00</time>
      </trkpt>
      <trkpt lat="43.51378" lon="6.75627">
        <ele>71</ele>
        <time>2011-03-20T13:01:00+01:00</time>
      </trkpt>
      <trkpt lat="43.51378" lon="6.75612">
        <ele>72</ele>
        <time>2011-03-20T13:01:04+01:00</time>
      </trkpt>
      <trkpt lat="43.51378" lon="6.75598">
        <ele>73</ele>
        <time>2011-03-20T13:01:07+01:00</time>
      </trkpt>
      <trkpt lat="43.51378" lon="6.75592">
        <ele>73</ele>
        <time>2011-03-20T13:01:09+01:00</time>
      </trkpt>
      <trkpt lat="43.5138" lon="6.75578">
        <ele>76</ele>
        <time>2011-03-20T13:01:14+01:00</time>
      </trkpt>
      <trkpt lat="43.51377" lon="6.75569">
        <ele>77</ele>
        <time>2011-03-20T13:01:17+01:00</time>
      </trkpt>
      <trkpt lat="43.51372" lon="6.75555">
        <ele>78</ele>
        <time>2011-03-20T13:01:22+01:00</time>
      </trkpt>
      <trkpt lat="43.51369" lon="6.75543">
        <ele>78</ele>
        <time>2011-03-20T13:01:27+01:00</time>
      </trkpt>
      <trkpt lat="43.51367" lon="6.7553">
        <ele>78</ele>
        <time>2011-03-20T13:01:31+01:00</time>
      </trkpt>
      <trkpt lat="43.51365" lon="6.75519">
        <ele>79</ele>
        <time>2011-03-20T13:01:35+01:00</time>
      </trkpt>
      <trkpt lat="43.51364" lon="6.75514">
        <ele>79</ele>
        <time>2011-03-20T13:01:37+01:00</time>
      </trkpt>
      <trkpt lat="43.51362" lon="6.75496">
        <ele>81</ele>
        <time>2011-03-20T13:01:45+01:00</time>
      </trkpt>
      <trkpt lat="43.51354" lon="6.75481">
        <ele>81</ele>
        <time>2011-03-20T13:01:53+01:00</time>
      </trkpt>
      <trkpt lat="43.51353" lon="6.75478">
        <ele>82</ele>
        <time>2011-03-20T13:01:55+01:00</time>
      </trkpt>
      <trkpt lat="43.51346" lon="6.75468">
        <ele>82</ele>
        <time>2011-03-20T13:02:01+01:00</time>
      </trkpt>
      <trkpt lat="43.51341" lon="6.75462">
        <ele>82</ele>
        <time>2011-03-20T13:02:05+01:00</time>
      </trkpt>
      <trkpt lat="43.51336" lon="6.75449">
        <ele>83</ele>
        <time>2011-03-20T13:02:11+01:00</time>
      </trkpt>
      <trkpt lat="43.51337" lon="6.75438">
        <ele>84</ele>
        <time>2011-03-20T13:02:16+01:00</time>
      </trkpt>
      <trkpt lat="43.5134" lon="6.75423">
        <ele>87</ele>
        <time>2011-03-20T13:02:22+01:00</time>
      </trkpt>
      <trkpt lat="43.5134" lon="6.75405">
        <ele>87</ele>
        <time>2011-03-20T13:02:30+01:00</time>
      </trkpt>
      <trkpt lat="43.5134" lon="6.754">
        <ele>86</ele>
        <time>2011-03-20T13:02:32+01:00</time>
      </trkpt>
      <trkpt lat="43.51337" lon="6.75385">
        <ele>85</ele>
        <time>2011-03-20T13:02:39+01:00</time>
      </trkpt>
      <trkpt lat="43.51335" lon="6.7538">
        <ele>85</ele>
        <time>2011-03-20T13:02:42+01:00</time>
      </trkpt>
      <trkpt lat="43.51331" lon="6.75369">
        <ele>104</ele>
        <time>2011-03-20T13:02:47+01:00</time>
      </trkpt>
      <trkpt lat="43.51333" lon="6.75357">
        <ele>103</ele>
        <time>2011-03-20T13:02:51+01:00</time>
      </trkpt>
      <trkpt lat="43.51335" lon="6.75344">
        <ele>89</ele>
        <time>2011-03-20T13:02:55+01:00</time>
      </trkpt>
      <trkpt lat="43.51334" lon="6.7534">
        <ele>91</ele>
        <time>2011-03-20T13:02:56+01:00</time>
      </trkpt>
      <trkpt lat="43.51332" lon="6.75324">
        <ele>100</ele>
        <time>2011-03-20T13:03:00+01:00</time>
      </trkpt>
      <trkpt lat="43.5133" lon="6.75315">
        <ele>103</ele>
        <time>2011-03-20T13:03:06+01:00</time>
      </trkpt>
      <trkpt lat="43.51327" lon="6.75309">
        <ele>105</ele>
        <time>2011-03-20T13:03:12+01:00</time>
      </trkpt>
      <trkpt lat="43.51325" lon="6.75303">
        <ele>106</ele>
        <time>2011-03-20T13:03:17+01:00</time>
      </trkpt>
      <trkpt lat="43.51324" lon="6.75302">
        <ele>107</ele>
        <time>2011-03-20T13:03:24+01:00</time>
      </trkpt>
      <trkpt lat="43.51326" lon="6.753">
        <ele>107</ele>
        <time>2011-03-20T13:03:28+01:00</time>
      </trkpt>
      <trkpt lat="43.51329" lon="6.75297">
        <ele>107</ele>
        <time>2011-03-20T13:03:35+01:00</time>
      </trkpt>
      <trkpt lat="43.51331" lon="6.75296">
        <ele>106</ele>
        <time>2011-03-20T13:03:39+01:00</time>
      </trkpt>
      <trkpt lat="43.51331" lon="6.75293">
        <ele>107</ele>
        <time>2011-03-20T13:03:44+01:00</time>
      </trkpt>
      <trkpt lat="43.5133" lon="6.75291">
        <ele>107</ele>
        <time>2011-03-20T13:03:51+01:00</time>
      </trkpt>
      <trkpt lat="43.5133" lon="6.75291">
        <ele>107</ele>
        <time>2011-03-20T13:03:55+01:00</time>
      </trkpt>
      <trkpt lat="43.5133" lon="6.7529">
        <ele>107</ele>
        <time>2011-03-20T13:04:07+01:00</time>
      </trkpt>
      <trkpt lat="43.51329" lon="6.75289">
        <ele>107</ele>
        <time>2011-03-20T13:04:11+01:00</time>
      </trkpt>
      <trkpt lat="43.51326" lon="6.75289">
        <ele>107</ele>
        <time>2011-03-20T13:04:21+01:00</time>
      </trkpt>
      <trkpt lat="43.51323" lon="6.75288">
        <ele>108</ele>
        <time>2011-03-20T13:04:25+01:00</time>
      </trkpt>
      <trkpt lat="43.51321" lon="6.75286">
        <ele>108</ele>
        <time>2011-03-20T13:04:30+01:00</time>
      </trkpt>
      <trkpt lat="43.51319" lon="6.75283">
        <ele>108</ele>
        <time>2011-03-20T13:04:35+01:00</time>
      </trkpt>
      <trkpt lat="43.51321" lon="6.75276">
        <ele>107</ele>
        <time>2011-03-20T13:04:38+01:00</time>
      </trkpt>
      <trkpt lat="43.51329" lon="6.75262">
        <ele>104</ele>
        <time>2011-03-20T13:04:43+01:00</time>
      </trkpt>
      <trkpt lat="43.51331" lon="6.75255">
        <ele>101</ele>
        <time>2011-03-20T13:04:45+01:00</time>
      </trkpt>
      <trkpt lat="43.51331" lon="6.75242">
        <ele>103</ele>
        <time>2011-03-20T13:04:49+01:00</time>
      </trkpt>
      <trkpt lat="43.51327" lon="6.7523">
        <ele>108</ele>
        <time>2011-03-20T13:04:53+01:00</time>
      </trkpt>
      <trkpt lat="43.51326" lon="6.75226">
        <ele>108</ele>
        <time>2011-03-20T13:04:54+01:00</time>
      </trkpt>
      <trkpt lat="43.51316" lon="6.75206">
        <ele>112</ele>
        <time>2011-03-20T13:05:00+01:00</time>
      </trkpt>
      <trkpt lat="43.51307" lon="6.75188">
        <ele>113</ele>
        <time>2011-03-20T13:05:06+01:00</time>
      </trkpt>
      <trkpt lat="43.51305" lon="6.75182">
        <ele>113</ele>
        <time>2011-03-20T13:05:08+01:00</time>
      </trkpt>
      <trkpt lat="43.51301" lon="6.75169">
        <ele>114</ele>
        <time>2011-03-20T13:05:14+01:00</time>
      </trkpt>
      <trkpt lat="43.51298" lon="6.75157">
        <ele>119</ele>
        <time>2011-03-20T13:05:19+01:00</time>
      </trkpt>
      <trkpt lat="43.51295" lon="6.75147">
        <ele>120</ele>
        <time>2011-03-20T13:05:23+01:00</time>
      </trkpt>
      <trkpt lat="43.51293" lon="6.75143">
        <ele>121</ele>
        <time>2011-03-20T13:05:29+01:00</time>
      </trkpt>
      <trkpt lat="43.51293" lon="6.75139">
        <ele>121</ele>
        <time>2011-03-20T13:05:34+01:00</time>
      </trkpt>
      <trkpt lat="43.51299" lon="6.75136">
        <ele>120</ele>
        <time>2011-03-20T13:05:41+01:00</time>
      </trkpt>
      <trkpt lat="43.51302" lon="6.75132">
        <ele>120</ele>
        <time>2011-03-20T13:05:45+01:00</time>
      </trkpt>
      <trkpt lat="43.51305" lon="6.75124">
        <ele>120</ele>
        <time>2011-03-20T13:05:54+01:00</time>
      </trkpt>
      <trkpt lat="43.51305" lon="6.75122">
        <ele>120</ele>
        <time>2011-03-20T13:05:58+01:00</time>
      </trkpt>
      <trkpt lat="43.51303" lon="6.75119">
        <ele>121</ele>
        <time>2011-03-20T13:06:01+01:00</time>
      </trkpt>
      <trkpt lat="43.51299" lon="6.75117">
        <ele>121</ele>
        <time>2011-03-20T13:06:06+01:00</time>
      </trkpt>
      <trkpt lat="43.51301" lon="6.75114">
        <ele>121</ele>
        <time>2011-03-20T13:06:11+01:00</time>
      </trkpt>
      <trkpt lat="43.51302" lon="6.75111">
        <ele>121</ele>
        <time>2011-03-20T13:06:15+01:00</time>
      </trkpt>
      <trkpt lat="43.513" lon="6.75107">
        <ele>121</ele>
        <time>2011-03-20T13:06:20+01:00</time>
      </trkpt>
      <trkpt lat="43.51294" lon="6.75105">
        <ele>122</ele>
        <time>2011-03-20T13:06:26+01:00</time>
      </trkpt>
      <trkpt lat="43.51284" lon="6.75102">
        <ele>124</ele>
        <time>2011-03-20T13:06:33+01:00</time>
      </trkpt>
      <trkpt lat="43.51278" lon="6.751">
        <ele>125</ele>
        <time>2011-03-20T13:06:37+01:00</time>
      </trkpt>
      <trkpt lat="43.51265" lon="6.75096">
        <ele>128</ele>
        <time>2011-03-20T13:06:46+01:00</time>
      </trkpt>
      <trkpt lat="43.51254" lon="6.75095">
        <ele>130</ele>
        <time>2011-03-20T13:06:52+01:00</time>
      </trkpt>
      <trkpt lat="43.51244" lon="6.75095">
        <ele>139</ele>
        <time>2011-03-20T13:06:58+01:00</time>
      </trkpt>
      <trkpt lat="43.51235" lon="6.75095">
        <ele>140</ele>
        <time>2011-03-20T13:07:04+01:00</time>
      </trkpt>
      <trkpt lat="43.51228" lon="6.75099">
        <ele>142</ele>
        <time>2011-03-20T13:07:09+01:00</time>
      </trkpt>
      <trkpt lat="43.51224" lon="6.7511">
        <ele>143</ele>
        <time>2011-03-20T13:07:15+01:00</time>
      </trkpt>
      <trkpt lat="43.51229" lon="6.75127">
        <ele>142</ele>
        <time>2011-03-20T13:07:21+01:00</time>
      </trkpt>
      <trkpt lat="43.51233" lon="6.75136">
        <ele>141</ele>
        <time>2011-03-20T13:07:24+01:00</time>
      </trkpt>
      <trkpt lat="43.51234" lon="6.75139">
        <ele>141</ele>
        <time>2011-03-20T13:07:25+01:00</time>
      </trkpt>
      <trkpt lat="43.51241" lon="6.75158">
        <ele>136</ele>
        <time>2011-03-20T13:07:31+01:00</time>
      </trkpt>
      <trkpt lat="43.51242" lon="6.75161">
        <ele>135</ele>
        <time>2011-03-20T13:07:32+01:00</time>
      </trkpt>
      <trkpt lat="43.51243" lon="6.75177">
        <ele>134</ele>
        <time>2011-03-20T13:07:37+01:00</time>
      </trkpt>
      <trkpt lat="43.51242" lon="6.75179">
        <ele>135</ele>
        <time>2011-03-20T13:07:38+01:00</time>
      </trkpt>
      <trkpt lat="43.51235" lon="6.75199">
        <ele>136</ele>
        <time>2011-03-20T13:07:44+01:00</time>
      </trkpt>
      <trkpt lat="43.51226" lon="6.75213">
        <ele>137</ele>
        <time>2011-03-20T13:07:49+01:00</time>
      </trkpt>
      <trkpt lat="43.51215" lon="6.75223">
        <ele>137</ele>
        <time>2011-03-20T13:07:54+01:00</time>
      </trkpt>
      <trkpt lat="43.51199" lon="6.75234">
        <ele>139</ele>
        <time>2011-03-20T13:08:00+01:00</time>
      </trkpt>
      <trkpt lat="43.51192" lon="6.75245">
        <ele>139</ele>
        <time>2011-03-20T13:08:04+01:00</time>
      </trkpt>
      <trkpt lat="43.51184" lon="6.75256">
        <ele>137</ele>
        <time>2011-03-20T13:08:08+01:00</time>
      </trkpt>
      <trkpt lat="43.51179" lon="6.75271">
        <ele>137</ele>
        <time>2011-03-20T13:08:12+01:00</time>
      </trkpt>
      <trkpt lat="43.51173" lon="6.75286">
        <ele>136</ele>
        <time>2011-03-20T13:08:17+01:00</time>
      </trkpt>
      <trkpt lat="43.51168" lon="6.75301">
        <ele>136</ele>
        <time>2011-03-20T13:08:21+01:00</time>
      </trkpt>
      <trkpt lat="43.51171" lon="6.75308">
        <ele>136</ele>
        <time>2011-03-20T13:08:25+01:00</time>
      </trkpt>
      <trkpt lat="43.51171" lon="6.7531">
        <ele>136</ele>
        <time>2011-03-20T13:08:26+01:00</time>
      </trkpt>
      <trkpt lat="43.51173" lon="6.75314">
        <ele>136</ele>
        <time>2011-03-20T13:08:30+01:00</time>
      </trkpt>
      <trkpt lat="43.51177" lon="6.75319">
        <ele>136</ele>
        <time>2011-03-20T13:08:35+01:00</time>
      </trkpt>
      <trkpt lat="43.51185" lon="6.75332">
        <ele>136</ele>
        <time>2011-03-20T13:08:44+01:00</time>
      </trkpt>
      <trkpt lat="43.5119" lon="6.75341">
        <ele>134</ele>
        <time>2011-03-20T13:08:50+01:00</time>
      </trkpt>
      <trkpt lat="43.51192" lon="6.75345">
        <ele>134</ele>
        <time>2011-03-20T13:08:52+01:00</time>
      </trkpt>
      <trkpt lat="43.5119" lon="6.75354">
        <ele>134</ele>
        <time>2011-03-20T13:08:57+01:00</time>
      </trkpt>
      <trkpt lat="43.51188" lon="6.75357">
        <ele>134</ele>
        <time>2011-03-20T13:09:02+01:00</time>
      </trkpt>
      <trkpt lat="43.51189" lon="6.75356">
        <ele>134</ele>
        <time>2011-03-20T13:09:13+01:00</time>
      </trkpt>
      <trkpt lat="43.51189" lon="6.75357">
        <ele>134</ele>
        <time>2011-03-20T13:09:14+01:00</time>
      </trkpt>
      <trkpt lat="43.51191" lon="6.7537">
        <ele>133</ele>
        <time>2011-03-20T13:09:18+01:00</time>
      </trkpt>
      <trkpt lat="43.51187" lon="6.75393">
        <ele>133</ele>
        <time>2011-03-20T13:09:24+01:00</time>
      </trkpt>
      <trkpt lat="43.51185" lon="6.7541">
        <ele>133</ele>
        <time>2011-03-20T13:09:28+01:00</time>
      </trkpt>
      <trkpt lat="43.51186" lon="6.7543">
        <ele>130</ele>
        <time>2011-03-20T13:09:32+01:00</time>
      </trkpt>
      <trkpt lat="43.5119" lon="6.7545">
        <ele>128</ele>
        <time>2011-03-20T13:09:36+01:00</time>
      </trkpt>
      <trkpt lat="43.51193" lon="6.75478">
        <ele>126</ele>
        <time>2011-03-20T13:09:42+01:00</time>
      </trkpt>
      <trkpt lat="43.51188" lon="6.75502">
        <ele>117</ele>
        <time>2011-03-20T13:09:48+01:00</time>
      </trkpt>
      <trkpt lat="43.5118" lon="6.75512">
        <ele>117</ele>
        <time>2011-03-20T13:09:51+01:00</time>
      </trkpt>
      <trkpt lat="43.51167" lon="6.75526">
        <ele>115</ele>
        <time>2011-03-20T13:09:56+01:00</time>
      </trkpt>
      <trkpt lat="43.51156" lon="6.75536">
        <ele>109</ele>
        <time>2011-03-20T13:10:00+01:00</time>
      </trkpt>
      <trkpt lat="43.51143" lon="6.75538">
        <ele>107</ele>
        <time>2011-03-20T13:10:05+01:00</time>
      </trkpt>
      <trkpt lat="43.51135" lon="6.75536">
        <ele>107</ele>
        <time>2011-03-20T13:10:10+01:00</time>
      </trkpt>
      <trkpt lat="43.51136" lon="6.75536">
        <ele>107</ele>
        <time>2011-03-20T13:10:14+01:00</time>
      </trkpt>
      <trkpt lat="43.51135" lon="6.75537">
        <ele>107</ele>
        <time>2011-03-20T13:10:18+01:00</time>
      </trkpt>
      <trkpt lat="43.51134" lon="6.75535">
        <ele>107</ele>
        <time>2011-03-20T13:10:25+01:00</time>
      </trkpt>
      <trkpt lat="43.51133" lon="6.75535">
        <ele>107</ele>
        <time>2011-03-20T13:10:27+01:00</time>
      </trkpt>
      <trkpt lat="43.51132" lon="6.75544">
        <ele>106</ele>
        <time>2011-03-20T13:10:31+01:00</time>
      </trkpt>
      <trkpt lat="43.51132" lon="6.75546">
        <ele>106</ele>
        <time>2011-03-20T13:10:32+01:00</time>
      </trkpt>
      <trkpt lat="43.51137" lon="6.75552">
        <ele>105</ele>
        <time>2011-03-20T13:10:36+01:00</time>
      </trkpt>
      <trkpt lat="43.51148" lon="6.75558">
        <ele>104</ele>
        <time>2011-03-20T13:10:41+01:00</time>
      </trkpt>
      <trkpt lat="43.5115" lon="6.75561">
        <ele>104</ele>
        <time>2011-03-20T13:10:46+01:00</time>
      </trkpt>
      <trkpt lat="43.51152" lon="6.75561">
        <ele>104</ele>
        <time>2011-03-20T13:10:58+01:00</time>
      </trkpt>
      <trkpt lat="43.51152" lon="6.75566">
        <ele>103</ele>
        <time>2011-03-20T13:11:01+01:00</time>
      </trkpt>
      <trkpt lat="43.51152" lon="6.75572">
        <ele>102</ele>
        <time>2011-03-20T13:11:07+01:00</time>
      </trkpt>
      <trkpt lat="43.51153" lon="6.75574">
        <ele>102</ele>
        <time>2011-03-20T13:11:08+01:00</time>
      </trkpt>
      <trkpt lat="43.51157" lon="6.75577">
        <ele>101</ele>
        <time>2011-03-20T13:11:12+01:00</time>
      </trkpt>
      <trkpt lat="43.51162" lon="6.75577">
        <ele>100</ele>
        <time>2011-03-20T13:11:16+01:00</time>
      </trkpt>
      <trkpt lat="43.51167" lon="6.7558">
        <ele>100</ele>
        <time>2011-03-20T13:11:21+01:00</time>
      </trkpt>
      <trkpt lat="43.51166" lon="6.75586">
        <ele>96</ele>
        <time>2011-03-20T13:11:26+01:00</time>
      </trkpt>
      <trkpt lat="43.51165" lon="6.75587">
        <ele>95</ele>
        <time>2011-03-20T13:11:32+01:00</time>
      </trkpt>
      <trkpt lat="43.51166" lon="6.75587">
        <ele>95</ele>
        <time>2011-03-20T13:11:41+01:00</time>
      </trkpt>
      <trkpt lat="43.51165" lon="6.75588">
        <ele>94</ele>
        <time>2011-03-20T13:11:51+01:00</time>
      </trkpt>
      <trkpt lat="43.51164" lon="6.7559">
        <ele>93</ele>
        <time>2011-03-20T13:11:56+01:00</time>
      </trkpt>
      <trkpt lat="43.51164" lon="6.75592">
        <ele>92</ele>
        <time>2011-03-20T13:12:00+01:00</time>
      </trkpt>
      <trkpt lat="43.5117" lon="6.75591">
        <ele>93</ele>
        <time>2011-03-20T13:12:05+01:00</time>
      </trkpt>
      <trkpt lat="43.51172" lon="6.75594">
        <ele>91</ele>
        <time>2011-03-20T13:12:12+01:00</time>
      </trkpt>
      <trkpt lat="43.51172" lon="6.75595">
        <ele>90</ele>
        <time>2011-03-20T13:12:16+01:00</time>
      </trkpt>
      <trkpt lat="43.51176" lon="6.75593">
        <ele>90</ele>
        <time>2011-03-20T13:12:22+01:00</time>
      </trkpt>
      <trkpt lat="43.51178" lon="6.75594">
        <ele>89</ele>
        <time>2011-03-20T13:12:30+01:00</time>
      </trkpt>
      <trkpt lat="43.51178" lon="6.75595">
        <ele>89</ele>
        <time>2011-03-20T13:12:35+01:00</time>
      </trkpt>
      <trkpt lat="43.5117" lon="6.7559">
        <ele>93</ele>
        <time>2011-03-20T13:12:41+01:00</time>
      </trkpt>
      <trkpt lat="43.51165" lon="6.75592">
        <ele>92</ele>
        <time>2011-03-20T13:12:48+01:00</time>
      </trkpt>
      <trkpt lat="43.51162" lon="6.75593">
        <ele>91</ele>
        <time>2011-03-20T13:12:52+01:00</time>
      </trkpt>
      <trkpt lat="43.5116" lon="6.75594">
        <ele>90</ele>
        <time>2011-03-20T13:12:57+01:00</time>
      </trkpt>
      <trkpt lat="43.51157" lon="6.75595">
        <ele>89</ele>
        <time>2011-03-20T13:13:03+01:00</time>
      </trkpt>
      <trkpt lat="43.51155" lon="6.75598">
        <ele>87</ele>
        <time>2011-03-20T13:13:10+01:00</time>
      </trkpt>
      <trkpt lat="43.51155" lon="6.75598">
        <ele>87</ele>
        <time>2011-03-20T13:13:14+01:00</time>
      </trkpt>
      <trkpt lat="43.51159" lon="6.75595">
        <ele>89</ele>
        <time>2011-03-20T13:13:19+01:00</time>
      </trkpt>
      <trkpt lat="43.51162" lon="6.75593">
        <ele>91</ele>
        <time>2011-03-20T13:13:25+01:00</time>
      </trkpt>
      <trkpt lat="43.51162" lon="6.75592">
        <ele>91</ele>
        <time>2011-03-20T13:13:29+01:00</time>
      </trkpt>
      <trkpt lat="43.51166" lon="6.75591">
        <ele>93</ele>
        <time>2011-03-20T13:13:33+01:00</time>
      </trkpt>
      <trkpt lat="43.51171" lon="6.75589">
        <ele>93</ele>
        <time>2011-03-20T13:13:39+01:00</time>
      </trkpt>
      <trkpt lat="43.51172" lon="6.7559">
        <ele>93</ele>
        <time>2011-03-20T13:13:44+01:00</time>
      </trkpt>
      <trkpt lat="43.51172" lon="6.7559">
        <ele>93</ele>
        <time>2011-03-20T13:14:02+01:00</time>
      </trkpt>
      <trkpt lat="43.51171" lon="6.7559">
        <ele>93</ele>
        <time>2011-03-20T13:14:15+01:00</time>
      </trkpt>
      <trkpt lat="43.51172" lon="6.75591">
        <ele>92</ele>
        <time>2011-03-20T13:14:19+01:00</time>
      </trkpt>
      <trkpt lat="43.51171" lon="6.75589">
        <ele>93</ele>
        <time>2011-03-20T13:14:25+01:00</time>
      </trkpt>
      <trkpt lat="43.51171" lon="6.7559">
        <ele>93</ele>
        <time>2011-03-20T13:14:32+01:00</time>
      </trkpt>
      <trkpt lat="43.51171" lon="6.75589">
        <ele>93</ele>
        <time>2011-03-20T13:14:39+01:00</time>
      </trkpt>
      <trkpt lat="43.51171" lon="6.75589">
        <ele>93</ele>
        <time>2011-03-20T13:14:44+01:00</time>
      </trkpt>
      <trkpt lat="43.51172" lon="6.7559">
        <ele>92</ele>
        <time>2011-03-20T13:14:58+01:00</time>
      </trkpt>
      <trkpt lat="43.51173" lon="6.75591">
        <ele>92</ele>
        <time>2011-03-20T13:15:19+01:00</time>
      </trkpt>
      <trkpt lat="43.51172" lon="6.7559">
        <ele>93</ele>
        <time>2011-03-20T13:15:24+01:00</time>
      </trkpt>
      <trkpt lat="43.51171" lon="6.75591">
        <ele>92</ele>
        <time>2011-03-20T13:15:32+01:00</time>
      </trkpt>
      <trkpt lat="43.51169" lon="6.75587">
        <ele>95</ele>
        <time>2011-03-20T13:15:37+01:00</time>
      </trkpt>
      <trkpt lat="43.51169" lon="6.75586">
        <ele>96</ele>
        <time>2011-03-20T13:15:41+01:00</time>
      </trkpt>
      <trkpt lat="43.51167" lon="6.75586">
        <ele>96</ele>
        <time>2011-03-20T13:15:47+01:00</time>
      </trkpt>
      <trkpt lat="43.51167" lon="6.75586">
        <ele>96</ele>
        <time>2011-03-20T13:15:58+01:00</time>
      </trkpt>
      <trkpt lat="43.51167" lon="6.75586">
        <ele>96</ele>
        <time>2011-03-20T13:16:02+01:00</time>
      </trkpt>
      <trkpt lat="43.51167" lon="6.75583">
        <ele>98</ele>
        <time>2011-03-20T13:16:11+01:00</time>
      </trkpt>
      <trkpt lat="43.51167" lon="6.75583">
        <ele>98</ele>
        <time>2011-03-20T13:16:16+01:00</time>
      </trkpt>
      <trkpt lat="43.51164" lon="6.75585">
        <ele>96</ele>
        <time>2011-03-20T13:16:21+01:00</time>
      </trkpt>
      <trkpt lat="43.51164" lon="6.75584">
        <ele>96</ele>
        <time>2011-03-20T13:16:26+01:00</time>
      </trkpt>
      <trkpt lat="43.51167" lon="6.75583">
        <ele>98</ele>
        <time>2011-03-20T13:16:44+01:00</time>
      </trkpt>
      <trkpt lat="43.51168" lon="6.75581">
        <ele>99</ele>
        <time>2011-03-20T13:16:48+01:00</time>
      </trkpt>
      <trkpt lat="43.51168" lon="6.7558">
        <ele>100</ele>
        <time>2011-03-20T13:16:53+01:00</time>
      </trkpt>
      <trkpt lat="43.51165" lon="6.7558">
        <ele>99</ele>
        <time>2011-03-20T13:16:59+01:00</time>
      </trkpt>
      <trkpt lat="43.51163" lon="6.75581">
        <ele>99</ele>
        <time>2011-03-20T13:17:03+01:00</time>
      </trkpt>
      <trkpt lat="43.51163" lon="6.75581">
        <ele>99</ele>
        <time>2011-03-20T13:17:12+01:00</time>
      </trkpt>
      <trkpt lat="43.51162" lon="6.7558">
        <ele>100</ele>
        <time>2011-03-20T13:17:17+01:00</time>
      </trkpt>
      <trkpt lat="43.5116" lon="6.7558">
        <ele>100</ele>
        <time>2011-03-20T13:17:22+01:00</time>
      </trkpt>
      <trkpt lat="43.51157" lon="6.75581">
        <ele>101</ele>
        <time>2011-03-20T13:17:26+01:00</time>
      </trkpt>
      <trkpt lat="43.51157" lon="6.75581">
        <ele>101</ele>
        <time>2011-03-20T13:17:33+01:00</time>
      </trkpt>
      <trkpt lat="43.51158" lon="6.75579">
        <ele>101</ele>
        <time>2011-03-20T13:17:40+01:00</time>
      </trkpt>
      <trkpt lat="43.51158" lon="6.75581">
        <ele>100</ele>
        <time>2011-03-20T13:17:44+01:00</time>
      </trkpt>
      <trkpt lat="43.51158" lon="6.7558">
        <ele>101</ele>
        <time>2011-03-20T13:17:45+01:00</time>
      </trkpt>
      <trkpt lat="43.51161" lon="6.75576">
        <ele>101</ele>
        <time>2011-03-20T13:17:49+01:00</time>
      </trkpt>
      <trkpt lat="43.51161" lon="6.75577">
        <ele>100</ele>
        <time>2011-03-20T13:17:56+01:00</time>
      </trkpt>
      <trkpt lat="43.51159" lon="6.75578">
        <ele>100</ele>
        <time>2011-03-20T13:18:04+01:00</time>
      </trkpt>
      <trkpt lat="43.51158" lon="6.75577">
        <ele>101</ele>
        <time>2011-03-20T13:18:08+01:00</time>
      </trkpt>
      <trkpt lat="43.51156" lon="6.75575">
        <ele>101</ele>
        <time>2011-03-20T13:18:12+01:00</time>
      </trkpt>
      <trkpt lat="43.51154" lon="6.75572">
        <ele>102</ele>
        <time>2011-03-20T13:18:18+01:00</time>
      </trkpt>
      <trkpt lat="43.51155" lon="6.75569">
        <ele>103</ele>
        <time>2011-03-20T13:18:21+01:00</time>
      </trkpt>
      <trkpt lat="43.51157" lon="6.75567">
        <ele>103</ele>
        <time>2011-03-20T13:18:24+01:00</time>
      </trkpt>
      <trkpt lat="43.51157" lon="6.75567">
        <ele>103</ele>
        <time>2011-03-20T13:18:29+01:00</time>
      </trkpt>
      <trkpt lat="43.51156" lon="6.75568">
        <ele>103</ele>
        <time>2011-03-20T13:18:34+01:00</time>
      </trkpt>
      <trkpt lat="43.51152" lon="6.75562">
        <ele>104</ele>
        <time>2011-03-20T13:18:40+01:00</time>
      </trkpt>
      <trkpt lat="43.5115" lon="6.7556">
        <ele>104</ele>
        <time>2011-03-20T13:18:44+01:00</time>
      </trkpt>
      <trkpt lat="43.51145" lon="6.75558">
        <ele>104</ele>
        <time>2011-03-20T13:18:47+01:00</time>
      </trkpt>
      <trkpt lat="43.51137" lon="6.75553">
        <ele>105</ele>
        <time>2011-03-20T13:18:56+01:00</time>
      </trkpt>
      <trkpt lat="43.51131" lon="6.75551">
        <ele>105</ele>
        <time>2011-03-20T13:19:01+01:00</time>
      </trkpt>
      <trkpt lat="43.51122" lon="6.75555">
        <ele>104</ele>
        <time>2011-03-20T13:19:09+01:00</time>
      </trkpt>
      <trkpt lat="43.51119" lon="6.75558">
        <ele>104</ele>
        <time>2011-03-20T13:19:15+01:00</time>
      </trkpt>
      <trkpt lat="43.51119" lon="6.75558">
        <ele>104</ele>
        <time>2011-03-20T13:19:21+01:00</time>
      </trkpt>
      <trkpt lat="43.51119" lon="6.75556">
        <ele>104</ele>
        <time>2011-03-20T13:19:25+01:00</time>
      </trkpt>
      <trkpt lat="43.5112" lon="6.75555">
        <ele>104</ele>
        <time>2011-03-20T13:19:26+01:00</time>
      </trkpt>
      <trkpt lat="43.51129" lon="6.75549">
        <ele>105</ele>
        <time>2011-03-20T13:19:31+01:00</time>
      </trkpt>
      <trkpt lat="43.51143" lon="6.75553">
        <ele>105</ele>
        <time>2011-03-20T13:19:35+01:00</time>
      </trkpt>
      <trkpt lat="43.51158" lon="6.75555">
        <ele>105</ele>
        <time>2011-03-20T13:19:39+01:00</time>
      </trkpt>
      <trkpt lat="43.51168" lon="6.75553">
        <ele>108</ele>
        <time>2011-03-20T13:19:43+01:00</time>
      </trkpt>
      <trkpt lat="43.51172" lon="6.75553">
        <ele>108</ele>
        <time>2011-03-20T13:19:46+01:00</time>
      </trkpt>
      <trkpt lat="43.51172" lon="6.75553">
        <ele>108</ele>
        <time>2011-03-20T13:19:54+01:00</time>
      </trkpt>
      <trkpt lat="43.51172" lon="6.75553">
        <ele>108</ele>
        <time>2011-03-20T13:20:01+01:00</time>
      </trkpt>
      <trkpt lat="43.5117" lon="6.75556">
        <ele>107</ele>
        <time>2011-03-20T13:20:10+01:00</time>
      </trkpt>
      <trkpt lat="43.51164" lon="6.75557">
        <ele>105</ele>
        <time>2011-03-20T13:20:16+01:00</time>
      </trkpt>
      <trkpt lat="43.5116" lon="6.75559">
        <ele>104</ele>
        <time>2011-03-20T13:20:20+01:00</time>
      </trkpt>
      <trkpt lat="43.51154" lon="6.7556">
        <ele>104</ele>
        <time>2011-03-20T13:20:25+01:00</time>
      </trkpt>
      <trkpt lat="43.51152" lon="6.75568">
        <ele>103</ele>
        <time>2011-03-20T13:20:30+01:00</time>
      </trkpt>
      <trkpt lat="43.5115" lon="6.75572">
        <ele>102</ele>
        <time>2011-03-20T13:20:36+01:00</time>
      </trkpt>
      <trkpt lat="43.51151" lon="6.75572">
        <ele>102</ele>
        <time>2011-03-20T13:20:41+01:00</time>
      </trkpt>
      <trkpt lat="43.51153" lon="6.75573">
        <ele>102</ele>
        <time>2011-03-20T13:20:46+01:00</time>
      </trkpt>
      <trkpt lat="43.51156" lon="6.75577">
        <ele>101</ele>
        <time>2011-03-20T13:20:51+01:00</time>
      </trkpt>
      <trkpt lat="43.51157" lon="6.75577">
        <ele>101</ele>
        <time>2011-03-20T13:20:55+01:00</time>
      </trkpt>
      <trkpt lat="43.51159" lon="6.75578">
        <ele>101</ele>
        <time>2011-03-20T13:20:59+01:00</time>
      </trkpt>
      <trkpt lat="43.51162" lon="6.75578">
        <ele>100</ele>
        <time>2011-03-20T13:21:05+01:00</time>
      </trkpt>
      <trkpt lat="43.51165" lon="6.75579">
        <ele>100</ele>
        <time>2011-03-20T13:21:09+01:00</time>
      </trkpt>
      <trkpt lat="43.51169" lon="6.75579">
        <ele>100</ele>
        <time>2011-03-20T13:21:14+01:00</time>
      </trkpt>
      <trkpt lat="43.51171" lon="6.75579">
        <ele>100</ele>
        <time>2011-03-20T13:21:22+01:00</time>
      </trkpt>
      <trkpt lat="43.5117" lon="6.7558">
        <ele>100</ele>
        <time>2011-03-20T13:21:31+01:00</time>
      </trkpt>
      <trkpt lat="43.51171" lon="6.7558">
        <ele>100</ele>
        <time>2011-03-20T13:21:41+01:00</time>
      </trkpt>
      <trkpt lat="43.51168" lon="6.75582">
        <ele>99</ele>
        <time>2011-03-20T13:21:47+01:00</time>
      </trkpt>
      <trkpt lat="43.51166" lon="6.75585">
        <ele>97</ele>
        <time>2011-03-20T13:21:50+01:00</time>
      </trkpt>
      <trkpt lat="43.51164" lon="6.75586">
        <ele>95</ele>
        <time>2011-03-20T13:21:54+01:00</time>
      </trkpt>
      <trkpt lat="43.51164" lon="6.75585">
        <ele>95</ele>
        <time>2011-03-20T13:22:03+01:00</time>
      </trkpt>
      <trkpt lat="43.51162" lon="6.75586">
        <ele>94</ele>
        <time>2011-03-20T13:22:21+01:00</time>
      </trkpt>
      <trkpt lat="43.5116" lon="6.75586">
        <ele>93</ele>
        <time>2011-03-20T13:22:27+01:00</time>
      </trkpt>
      <trkpt lat="43.51158" lon="6.75585">
        <ele>92</ele>
        <time>2011-03-20T13:22:32+01:00</time>
      </trkpt>
      <trkpt lat="43.51158" lon="6.75585">
        <ele>92</ele>
        <time>2011-03-20T13:22:40+01:00</time>
      </trkpt>
      <trkpt lat="43.51159" lon="6.75581">
        <ele>100</ele>
        <time>2011-03-20T13:22:46+01:00</time>
      </trkpt>
      <trkpt lat="43.51159" lon="6.7558">
        <ele>100</ele>
        <time>2011-03-20T13:22:51+01:00</time>
      </trkpt>
      <trkpt lat="43.51157" lon="6.75581">
        <ele>101</ele>
        <time>2011-03-20T13:22:57+01:00</time>
      </trkpt>
      <trkpt lat="43.51156" lon="6.75581">
        <ele>101</ele>
        <time>2011-03-20T13:23:02+01:00</time>
      </trkpt>
      <trkpt lat="43.51155" lon="6.75579">
        <ele>101</ele>
        <time>2011-03-20T13:23:08+01:00</time>
      </trkpt>
      <trkpt lat="43.51154" lon="6.75578">
        <ele>101</ele>
        <time>2011-03-20T13:23:14+01:00</time>
      </trkpt>
      <trkpt lat="43.51153" lon="6.7558">
        <ele>101</ele>
        <time>2011-03-20T13:23:20+01:00</time>
      </trkpt>
      <trkpt lat="43.51152" lon="6.75579">
        <ele>101</ele>
        <time>2011-03-20T13:23:25+01:00</time>
      </trkpt>
      <trkpt lat="43.51153" lon="6.7558">
        <ele>101</ele>
        <time>2011-03-20T13:23:31+01:00</time>
      </trkpt>
      <trkpt lat="43.51154" lon="6.75578">
        <ele>101</ele>
        <time>2011-03-20T13:23:36+01:00</time>
      </trkpt>
      <trkpt lat="43.51154" lon="6.75575">
        <ele>102</ele>
        <time>2011-03-20T13:23:41+01:00</time>
      </trkpt>
      <trkpt lat="43.51153" lon="6.75573">
        <ele>102</ele>
        <time>2011-03-20T13:23:45+01:00</time>
      </trkpt>
      <trkpt lat="43.51147" lon="6.75571">
        <ele>103</ele>
        <time>2011-03-20T13:23:51+01:00</time>
      </trkpt>
      <trkpt lat="43.51146" lon="6.7557">
        <ele>103</ele>
        <time>2011-03-20T13:23:58+01:00</time>
      </trkpt>
      <trkpt lat="43.51149" lon="6.7557">
        <ele>103</ele>
        <time>2011-03-20T13:24:06+01:00</time>
      </trkpt>
      <trkpt lat="43.51148" lon="6.75571">
        <ele>103</ele>
        <time>2011-03-20T13:24:12+01:00</time>
      </trkpt>
      <trkpt lat="43.51151" lon="6.75572">
        <ele>102</ele>
        <time>2011-03-20T13:24:18+01:00</time>
      </trkpt>
      <trkpt lat="43.51152" lon="6.75572">
        <ele>102</ele>
        <time>2011-03-20T13:24:25+01:00</time>
      </trkpt>
      <trkpt lat="43.51153" lon="6.75573">
        <ele>102</ele>
        <time>2011-03-20T13:24:43+01:00</time>
      </trkpt>
      <trkpt lat="43.51153" lon="6.75571">
        <ele>102</ele>
        <time>2011-03-20T13:24:49+01:00</time>
      </trkpt>
      <trkpt lat="43.51154" lon="6.75569">
        <ele>103</ele>
        <time>2011-03-20T13:24:52+01:00</time>
      </trkpt>
      <trkpt lat="43.51154" lon="6.75561">
        <ele>104</ele>
        <time>2011-03-20T13:24:54+01:00</time>
      </trkpt>
      <trkpt lat="43.51157" lon="6.75553">
        <ele>105</ele>
        <time>2011-03-20T13:24:57+01:00</time>
      </trkpt>
      <trkpt lat="43.51159" lon="6.75554">
        <ele>105</ele>
        <time>2011-03-20T13:25:02+01:00</time>
      </trkpt>
      <trkpt lat="43.51164" lon="6.75553">
        <ele>105</ele>
        <time>2011-03-20T13:25:14+01:00</time>
      </trkpt>
      <trkpt lat="43.51179" lon="6.75546">
        <ele>109</ele>
        <time>2011-03-20T13:25:21+01:00</time>
      </trkpt>
      <trkpt lat="43.51194" lon="6.7554">
        <ele>110</ele>
        <time>2011-03-20T13:25:25+01:00</time>
      </trkpt>
      <trkpt lat="43.51207" lon="6.75536">
        <ele>111</ele>
        <time>2011-03-20T13:25:29+01:00</time>
      </trkpt>
      <trkpt lat="43.51217" lon="6.75534">
        <ele>111</ele>
        <time>2011-03-20T13:25:33+01:00</time>
      </trkpt>
      <trkpt lat="43.51224" lon="6.75536">
        <ele>110</ele>
        <time>2011-03-20T13:25:37+01:00</time>
      </trkpt>
      <trkpt lat="43.51229" lon="6.75539">
        <ele>110</ele>
        <time>2011-03-20T13:25:42+01:00</time>
      </trkpt>
      <trkpt lat="43.51232" lon="6.7554">
        <ele>109</ele>
        <time>2011-03-20T13:25:44+01:00</time>
      </trkpt>
      <trkpt lat="43.51243" lon="6.7555">
        <ele>107</ele>
        <time>2011-03-20T13:25:51+01:00</time>
      </trkpt>
      <trkpt lat="43.51257" lon="6.75559">
        <ele>99</ele>
        <time>2011-03-20T13:25:58+01:00</time>
      </trkpt>
      <trkpt lat="43.51273" lon="6.75568">
        <ele>98</ele>
        <time>2011-03-20T13:26:04+01:00</time>
      </trkpt>
      <trkpt lat="43.51288" lon="6.75579">
        <ele>96</ele>
        <time>2011-03-20T13:26:09+01:00</time>
      </trkpt>
      <trkpt lat="43.51299" lon="6.75586">
        <ele>84</ele>
        <time>2011-03-20T13:26:14+01:00</time>
      </trkpt>
      <trkpt lat="43.51304" lon="6.7559">
        <ele>84</ele>
        <time>2011-03-20T13:26:18+01:00</time>
      </trkpt>
      <trkpt lat="43.51306" lon="6.75593">
        <ele>84</ele>
        <time>2011-03-20T13:26:25+01:00</time>
      </trkpt>
      <trkpt lat="43.51305" lon="6.75602">
        <ele>83</ele>
        <time>2011-03-20T13:26:30+01:00</time>
      </trkpt>
      <trkpt lat="43.51301" lon="6.7561">
        <ele>82</ele>
        <time>2011-03-20T13:26:32+01:00</time>
      </trkpt>
      <trkpt lat="43.51296" lon="6.75614">
        <ele>82</ele>
        <time>2011-03-20T13:26:36+01:00</time>
      </trkpt>
      <trkpt lat="43.51296" lon="6.75614">
        <ele>82</ele>
        <time>2011-03-20T13:26:46+01:00</time>
      </trkpt>
      <trkpt lat="43.51297" lon="6.75613">
        <ele>82</ele>
        <time>2011-03-20T13:27:19+01:00</time>
      </trkpt>
      <trkpt lat="43.51298" lon="6.75613">
        <ele>82</ele>
        <time>2011-03-20T13:27:24+01:00</time>
      </trkpt>
      <trkpt lat="43.513" lon="6.75612">
        <ele>82</ele>
        <time>2011-03-20T13:27:29+01:00</time>
      </trkpt>
      <trkpt lat="43.51306" lon="6.75602">
        <ele>83</ele>
        <time>2011-03-20T13:27:33+01:00</time>
      </trkpt>
      <trkpt lat="43.51298" lon="6.75588">
        <ele>84</ele>
        <time>2011-03-20T13:27:38+01:00</time>
      </trkpt>
      <trkpt lat="43.51293" lon="6.75584">
        <ele>85</ele>
        <time>2011-03-20T13:27:40+01:00</time>
      </trkpt>
      <trkpt lat="43.51278" lon="6.75571">
        <ele>97</ele>
        <time>2011-03-20T13:27:46+01:00</time>
      </trkpt>
      <trkpt lat="43.51271" lon="6.75567">
        <ele>98</ele>
        <time>2011-03-20T13:27:51+01:00</time>
      </trkpt>
      <trkpt lat="43.51269" lon="6.75567">
        <ele>98</ele>
        <time>2011-03-20T13:27:52+01:00</time>
      </trkpt>
      <trkpt lat="43.51264" lon="6.75565">
        <ele>98</ele>
        <time>2011-03-20T13:27:57+01:00</time>
      </trkpt>
      <trkpt lat="43.51257" lon="6.75563">
        <ele>98</ele>
        <time>2011-03-20T13:28:05+01:00</time>
      </trkpt>
      <trkpt lat="43.51252" lon="6.7556">
        <ele>99</ele>
        <time>2011-03-20T13:28:10+01:00</time>
      </trkpt>
      <trkpt lat="43.51247" lon="6.75555">
        <ele>106</ele>
        <time>2011-03-20T13:28:16+01:00</time>
      </trkpt>
      <trkpt lat="43.51245" lon="6.75554">
        <ele>106</ele>
        <time>2011-03-20T13:28:21+01:00</time>
      </trkpt>
      <trkpt lat="43.5124" lon="6.75556">
        <ele>106</ele>
        <time>2011-03-20T13:28:31+01:00</time>
      </trkpt>
      <trkpt lat="43.5123" lon="6.75558">
        <ele>106</ele>
        <time>2011-03-20T13:28:35+01:00</time>
      </trkpt>
      <trkpt lat="43.51222" lon="6.75555">
        <ele>107</ele>
        <time>2011-03-20T13:28:39+01:00</time>
      </trkpt>
      <trkpt lat="43.51212" lon="6.75553">
        <ele>108</ele>
        <time>2011-03-20T13:28:47+01:00</time>
      </trkpt>
      <trkpt lat="43.51208" lon="6.75553">
        <ele>108</ele>
        <time>2011-03-20T13:28:51+01:00</time>
      </trkpt>
      <trkpt lat="43.51205" lon="6.75552">
        <ele>108</ele>
        <time>2011-03-20T13:28:58+01:00</time>
      </trkpt>
      <trkpt lat="43.51203" lon="6.75552">
        <ele>108</ele>
        <time>2011-03-20T13:29:04+01:00</time>
      </trkpt>
      <trkpt lat="43.512" lon="6.75553">
        <ele>108</ele>
        <time>2011-03-20T13:29:09+01:00</time>
      </trkpt>
      <trkpt lat="43.51197" lon="6.75556">
        <ele>108</ele>
        <time>2011-03-20T13:29:23+01:00</time>
      </trkpt>
      <trkpt lat="43.51196" lon="6.7556">
        <ele>107</ele>
        <time>2011-03-20T13:29:29+01:00</time>
      </trkpt>
      <trkpt lat="43.51195" lon="6.75561">
        <ele>107</ele>
        <time>2011-03-20T13:29:36+01:00</time>
      </trkpt>
      <trkpt lat="43.51195" lon="6.75563">
        <ele>107</ele>
        <time>2011-03-20T13:29:41+01:00</time>
      </trkpt>
      <trkpt lat="43.51195" lon="6.75566">
        <ele>106</ele>
        <time>2011-03-20T13:29:47+01:00</time>
      </trkpt>
      <trkpt lat="43.51196" lon="6.75569">
        <ele>106</ele>
        <time>2011-03-20T13:29:53+01:00</time>
      </trkpt>
      <trkpt lat="43.51198" lon="6.7557">
        <ele>106</ele>
        <time>2011-03-20T13:29:58+01:00</time>
      </trkpt>
      <trkpt lat="43.51197" lon="6.75574">
        <ele>105</ele>
        <time>2011-03-20T13:30:02+01:00</time>
      </trkpt>
      <trkpt lat="43.51194" lon="6.7558">
        <ele>105</ele>
        <time>2011-03-20T13:30:08+01:00</time>
      </trkpt>
      <trkpt lat="43.51191" lon="6.75581">
        <ele>104</ele>
        <time>2011-03-20T13:30:13+01:00</time>
      </trkpt>
      <trkpt lat="43.5119" lon="6.75581">
        <ele>104</ele>
        <time>2011-03-20T13:30:19+01:00</time>
      </trkpt>
      <trkpt lat="43.51191" lon="6.75582">
        <ele>104</ele>
        <time>2011-03-20T13:30:25+01:00</time>
      </trkpt>
      <trkpt lat="43.51194" lon="6.75585">
        <ele>87</ele>
        <time>2011-03-20T13:30:30+01:00</time>
      </trkpt>
      <trkpt lat="43.51193" lon="6.75587">
        <ele>87</ele>
        <time>2011-03-20T13:30:34+01:00</time>
      </trkpt>
      <trkpt lat="43.51192" lon="6.7559">
        <ele>87</ele>
        <time>2011-03-20T13:30:38+01:00</time>
      </trkpt>
      <trkpt lat="43.51191" lon="6.75591">
        <ele>87</ele>
        <time>2011-03-20T13:30:44+01:00</time>
      </trkpt>
      <trkpt lat="43.5119" lon="6.75594">
        <ele>87</ele>
        <time>2011-03-20T13:30:49+01:00</time>
      </trkpt>
      <trkpt lat="43.51191" lon="6.75596">
        <ele>86</ele>
        <time>2011-03-20T13:30:54+01:00</time>
      </trkpt>
      <trkpt lat="43.51191" lon="6.756">
        <ele>85</ele>
        <time>2011-03-20T13:30:58+01:00</time>
      </trkpt>
      <trkpt lat="43.51191" lon="6.75602">
        <ele>85</ele>
        <time>2011-03-20T13:31:03+01:00</time>
      </trkpt>
      <trkpt lat="43.51191" lon="6.75605">
        <ele>84</ele>
        <time>2011-03-20T13:31:07+01:00</time>
      </trkpt>
      <trkpt lat="43.5119" lon="6.75606">
        <ele>84</ele>
        <time>2011-03-20T13:31:12+01:00</time>
      </trkpt>
      <trkpt lat="43.51188" lon="6.75609">
        <ele>83</ele>
        <time>2011-03-20T13:31:16+01:00</time>
      </trkpt>
      <trkpt lat="43.51185" lon="6.75604">
        <ele>85</ele>
        <time>2011-03-20T13:31:22+01:00</time>
      </trkpt>
      <trkpt lat="43.51183" lon="6.75601">
        <ele>86</ele>
        <time>2011-03-20T13:31:27+01:00</time>
      </trkpt>
      <trkpt lat="43.51182" lon="6.75598">
        <ele>87</ele>
        <time>2011-03-20T13:31:32+01:00</time>
      </trkpt>
      <trkpt lat="43.51182" lon="6.75597">
        <ele>88</ele>
        <time>2011-03-20T13:31:38+01:00</time>
      </trkpt>
      <trkpt lat="43.51181" lon="6.75595">
        <ele>88</ele>
        <time>2011-03-20T13:31:44+01:00</time>
      </trkpt>
      <trkpt lat="43.51182" lon="6.75593">
        <ele>88</ele>
        <time>2011-03-20T13:31:49+01:00</time>
      </trkpt>
      <trkpt lat="43.51181" lon="6.75591">
        <ele>89</ele>
        <time>2011-03-20T13:32:02+01:00</time>
      </trkpt>
      <trkpt lat="43.51177" lon="6.75591">
        <ele>90</ele>
        <time>2011-03-20T13:32:09+01:00</time>
      </trkpt>
      <trkpt lat="43.51176" lon="6.75589">
        <ele>91</ele>
        <time>2011-03-20T13:32:13+01:00</time>
      </trkpt>
      <trkpt lat="43.51174" lon="6.75589">
        <ele>92</ele>
        <time>2011-03-20T13:32:21+01:00</time>
      </trkpt>
      <trkpt lat="43.51176" lon="6.75588">
        <ele>92</ele>
        <time>2011-03-20T13:32:31+01:00</time>
      </trkpt>
      <trkpt lat="43.51176" lon="6.75589">
        <ele>92</ele>
        <time>2011-03-20T13:32:40+01:00</time>
      </trkpt>
      <trkpt lat="43.51176" lon="6.75588">
        <ele>92</ele>
        <time>2011-03-20T13:32:50+01:00</time>
      </trkpt>
      <trkpt lat="43.51176" lon="6.75588">
        <ele>92</ele>
        <time>2011-03-20T13:33:03+01:00</time>
      </trkpt>
      <trkpt lat="43.51176" lon="6.75588">
        <ele>92</ele>
        <time>2011-03-20T13:33:12+01:00</time>
      </trkpt>
      <trkpt lat="43.51175" lon="6.75588">
        <ele>92</ele>
        <time>2011-03-20T13:33:19+01:00</time>
      </trkpt>
      <trkpt lat="43.51175" lon="6.75586">
        <ele>92</ele>
        <time>2011-03-20T13:33:24+01:00</time>
      </trkpt>
      <trkpt lat="43.51176" lon="6.75584">
        <ele>92</ele>
        <time>2011-03-20T13:33:28+01:00</time>
      </trkpt>
      <trkpt lat="43.51175" lon="6.75581">
        <ele>102</ele>
        <time>2011-03-20T13:33:43+01:00</time>
      </trkpt>
      <trkpt lat="43.51178" lon="6.75581">
        <ele>102</ele>
        <time>2011-03-20T13:33:50+01:00</time>
      </trkpt>
      <trkpt lat="43.51178" lon="6.75581">
        <ele>102</ele>
        <time>2011-03-20T13:33:56+01:00</time>
      </trkpt>
      <trkpt lat="43.51178" lon="6.75579">
        <ele>103</ele>
        <time>2011-03-20T13:34:02+01:00</time>
      </trkpt>
      <trkpt lat="43.51178" lon="6.75576">
        <ele>103</ele>
        <time>2011-03-20T13:34:06+01:00</time>
      </trkpt>
      <trkpt lat="43.51178" lon="6.75574">
        <ele>103</ele>
        <time>2011-03-20T13:34:10+01:00</time>
      </trkpt>
      <trkpt lat="43.51178" lon="6.75574">
        <ele>103</ele>
        <time>2011-03-20T13:34:15+01:00</time>
      </trkpt>
      <trkpt lat="43.51179" lon="6.75572">
        <ele>104</ele>
        <time>2011-03-20T13:34:20+01:00</time>
      </trkpt>
      <trkpt lat="43.51179" lon="6.75572">
        <ele>104</ele>
        <time>2011-03-20T13:34:26+01:00</time>
      </trkpt>
      <trkpt lat="43.51178" lon="6.75571">
        <ele>104</ele>
        <time>2011-03-20T13:34:41+01:00</time>
      </trkpt>
      <trkpt lat="43.51177" lon="6.75573">
        <ele>103</ele>
        <time>2011-03-20T13:34:47+01:00</time>
      </trkpt>
      <trkpt lat="43.51176" lon="6.75572">
        <ele>103</ele>
        <time>2011-03-20T13:34:52+01:00</time>
      </trkpt>
      <trkpt lat="43.51176" lon="6.75569">
        <ele>104</ele>
        <time>2011-03-20T13:34:57+01:00</time>
      </trkpt>
      <trkpt lat="43.51176" lon="6.75566">
        <ele>105</ele>
        <time>2011-03-20T13:35:02+01:00</time>
      </trkpt>
      <trkpt lat="43.51174" lon="6.75564">
        <ele>105</ele>
        <time>2011-03-20T13:35:07+01:00</time>
      </trkpt>
      <trkpt lat="43.51173" lon="6.75565">
        <ele>105</ele>
        <time>2011-03-20T13:35:12+01:00</time>
      </trkpt>
      <trkpt lat="43.51172" lon="6.75564">
        <ele>105</ele>
        <time>2011-03-20T13:35:17+01:00</time>
      </trkpt>
      <trkpt lat="43.51171" lon="6.75564">
        <ele>105</ele>
        <time>2011-03-20T13:35:21+01:00</time>
      </trkpt>
      <trkpt lat="43.51171" lon="6.75563">
        <ele>105</ele>
        <time>2011-03-20T13:35:28+01:00</time>
      </trkpt>
      <trkpt lat="43.51172" lon="6.75561">
        <ele>106</ele>
        <time>2011-03-20T13:35:33+01:00</time>
      </trkpt>
      <trkpt lat="43.5117" lon="6.7556">
        <ele>106</ele>
        <time>2011-03-20T13:35:38+01:00</time>
      </trkpt>
      <trkpt lat="43.51171" lon="6.75558">
        <ele>107</ele>
        <time>2011-03-20T13:35:43+01:00</time>
      </trkpt>
      <trkpt lat="43.5117" lon="6.75555">
        <ele>107</ele>
        <time>2011-03-20T13:35:49+01:00</time>
      </trkpt>
      <trkpt lat="43.51167" lon="6.75553">
        <ele>108</ele>
        <time>2011-03-20T13:35:54+01:00</time>
      </trkpt>
      <trkpt lat="43.51162" lon="6.75553">
        <ele>105</ele>
        <time>2011-03-20T13:35:59+01:00</time>
      </trkpt>
      <trkpt lat="43.51152" lon="6.75557">
        <ele>105</ele>
        <time>2011-03-20T13:36:07+01:00</time>
      </trkpt>
      <trkpt lat="43.51144" lon="6.75554">
        <ele>105</ele>
        <time>2011-03-20T13:36:13+01:00</time>
      </trkpt>
      <trkpt lat="43.51138" lon="6.7555">
        <ele>105</ele>
        <time>2011-03-20T13:36:20+01:00</time>
      </trkpt>
      <trkpt lat="43.51137" lon="6.75549">
        <ele>105</ele>
        <time>2011-03-20T13:36:21+01:00</time>
      </trkpt>
      <trkpt lat="43.51128" lon="6.75543">
        <ele>106</ele>
        <time>2011-03-20T13:36:29+01:00</time>
      </trkpt>
      <trkpt lat="43.51122" lon="6.75536">
        <ele>106</ele>
        <time>2011-03-20T13:36:35+01:00</time>
      </trkpt>
      <trkpt lat="43.51122" lon="6.75536">
        <ele>106</ele>
        <time>2011-03-20T13:36:45+01:00</time>
      </trkpt>
      <trkpt lat="43.51121" lon="6.75539">
        <ele>105</ele>
        <time>2011-03-20T13:36:53+01:00</time>
      </trkpt>
      <trkpt lat="43.51126" lon="6.75533">
        <ele>106</ele>
        <time>2011-03-20T13:36:58+01:00</time>
      </trkpt>
      <trkpt lat="43.51125" lon="6.75526">
        <ele>107</ele>
        <time>2011-03-20T13:37:01+01:00</time>
      </trkpt>
      <trkpt lat="43.51125" lon="6.75522">
        <ele>107</ele>
        <time>2011-03-20T13:37:03+01:00</time>
      </trkpt>
      <trkpt lat="43.51125" lon="6.75521">
        <ele>107</ele>
        <time>2011-03-20T13:37:11+01:00</time>
      </trkpt>
      <trkpt lat="43.51126" lon="6.75519">
        <ele>108</ele>
        <time>2011-03-20T13:37:12+01:00</time>
      </trkpt>
      <trkpt lat="43.51135" lon="6.75502">
        <ele>111</ele>
        <time>2011-03-20T13:37:17+01:00</time>
      </trkpt>
      <trkpt lat="43.51136" lon="6.755">
        <ele>111</ele>
        <time>2011-03-20T13:37:20+01:00</time>
      </trkpt>
      <trkpt lat="43.51135" lon="6.75502">
        <ele>111</ele>
        <time>2011-03-20T13:37:31+01:00</time>
      </trkpt>
      <trkpt lat="43.51134" lon="6.75503">
        <ele>111</ele>
        <time>2011-03-20T13:37:42+01:00</time>
      </trkpt>
      <trkpt lat="43.5113" lon="6.755">
        <ele>110</ele>
        <time>2011-03-20T13:37:44+01:00</time>
      </trkpt>
      <trkpt lat="43.5112" lon="6.75491">
        <ele>114</ele>
        <time>2011-03-20T13:37:49+01:00</time>
      </trkpt>
      <trkpt lat="43.51116" lon="6.75493">
        <ele>113</ele>
        <time>2011-03-20T13:37:52+01:00</time>
      </trkpt>
      <trkpt lat="43.51115" lon="6.75493">
        <ele>113</ele>
        <time>2011-03-20T13:37:58+01:00</time>
      </trkpt>
      <trkpt lat="43.51112" lon="6.75494">
        <ele>112</ele>
        <time>2011-03-20T13:38:03+01:00</time>
      </trkpt>
      <trkpt lat="43.51109" lon="6.75494">
        <ele>111</ele>
        <time>2011-03-20T13:38:11+01:00</time>
      </trkpt>
      <trkpt lat="43.51106" lon="6.75494">
        <ele>111</ele>
        <time>2011-03-20T13:38:17+01:00</time>
      </trkpt>
      <trkpt lat="43.51096" lon="6.7549">
        <ele>108</ele>
        <time>2011-03-20T13:38:23+01:00</time>
      </trkpt>
      <trkpt lat="43.51086" lon="6.75489">
        <ele>107</ele>
        <time>2011-03-20T13:38:28+01:00</time>
      </trkpt>
      <trkpt lat="43.51084" lon="6.75489">
        <ele>106</ele>
        <time>2011-03-20T13:38:29+01:00</time>
      </trkpt>
      <trkpt lat="43.51081" lon="6.75489">
        <ele>97</ele>
        <time>2011-03-20T13:38:32+01:00</time>
      </trkpt>
      <trkpt lat="43.51079" lon="6.75487">
        <ele>96</ele>
        <time>2011-03-20T13:38:36+01:00</time>
      </trkpt>
      <trkpt lat="43.51077" lon="6.75486">
        <ele>96</ele>
        <time>2011-03-20T13:38:41+01:00</time>
      </trkpt>
      <trkpt lat="43.51074" lon="6.75474">
        <ele>93</ele>
        <time>2011-03-20T13:38:46+01:00</time>
      </trkpt>
      <trkpt lat="43.51074" lon="6.75472">
        <ele>93</ele>
        <time>2011-03-20T13:38:51+01:00</time>
      </trkpt>
      <trkpt lat="43.51073" lon="6.75474">
        <ele>93</ele>
        <time>2011-03-20T13:39:02+01:00</time>
      </trkpt>
      <trkpt lat="43.51071" lon="6.75475">
        <ele>93</ele>
        <time>2011-03-20T13:39:05+01:00</time>
      </trkpt>
      <trkpt lat="43.51061" lon="6.7548">
        <ele>92</ele>
        <time>2011-03-20T13:39:09+01:00</time>
      </trkpt>
      <trkpt lat="43.5106" lon="6.75481">
        <ele>92</ele>
        <time>2011-03-20T13:39:10+01:00</time>
      </trkpt>
      <trkpt lat="43.51052" lon="6.75486">
        <ele>91</ele>
        <time>2011-03-20T13:39:14+01:00</time>
      </trkpt>
      <trkpt lat="43.51043" lon="6.75481">
        <ele>88</ele>
        <time>2011-03-20T13:39:19+01:00</time>
      </trkpt>
      <trkpt lat="43.51039" lon="6.75479">
        <ele>88</ele>
        <time>2011-03-20T13:39:22+01:00</time>
      </trkpt>
      <trkpt lat="43.51038" lon="6.75476">
        <ele>87</ele>
        <time>2011-03-20T13:39:27+01:00</time>
      </trkpt>
      <trkpt lat="43.51038" lon="6.75476">
        <ele>87</ele>
        <time>2011-03-20T13:39:33+01:00</time>
      </trkpt>
      <trkpt lat="43.51038" lon="6.75478">
        <ele>87</ele>
        <time>2011-03-20T13:39:46+01:00</time>
      </trkpt>
      <trkpt lat="43.51038" lon="6.75479">
        <ele>87</ele>
        <time>2011-03-20T13:39:58+01:00</time>
      </trkpt>
      <trkpt lat="43.51037" lon="6.75479">
        <ele>87</ele>
        <time>2011-03-20T13:40:06+01:00</time>
      </trkpt>
      <trkpt lat="43.51037" lon="6.75481">
        <ele>87</ele>
        <time>2011-03-20T13:40:14+01:00</time>
      </trkpt>
      <trkpt lat="43.51033" lon="6.75484">
        <ele>87</ele>
        <time>2011-03-20T13:40:19+01:00</time>
      </trkpt>
      <trkpt lat="43.5103" lon="6.75484">
        <ele>86</ele>
        <time>2011-03-20T13:40:21+01:00</time>
      </trkpt>
      <trkpt lat="43.5102" lon="6.7548">
        <ele>84</ele>
        <time>2011-03-20T13:40:26+01:00</time>
      </trkpt>
      <trkpt lat="43.51011" lon="6.75477">
        <ele>83</ele>
        <time>2011-03-20T13:40:30+01:00</time>
      </trkpt>
      <trkpt lat="43.51008" lon="6.75476">
        <ele>83</ele>
        <time>2011-03-20T13:40:32+01:00</time>
      </trkpt>
      <trkpt lat="43.51002" lon="6.75472">
        <ele>83</ele>
        <time>2011-03-20T13:40:36+01:00</time>
      </trkpt>
      <trkpt lat="43.50999" lon="6.7547">
        <ele>70</ele>
        <time>2011-03-20T13:40:40+01:00</time>
      </trkpt>
      <trkpt lat="43.50999" lon="6.75471">
        <ele>70</ele>
        <time>2011-03-20T13:40:53+01:00</time>
      </trkpt>
      <trkpt lat="43.50999" lon="6.75471">
        <ele>70</ele>
        <time>2011-03-20T13:40:57+01:00</time>
      </trkpt>
      <trkpt lat="43.51004" lon="6.75472">
        <ele>83</ele>
        <time>2011-03-20T13:41:02+01:00</time>
      </trkpt>
      <trkpt lat="43.51004" lon="6.75473">
        <ele>83</ele>
        <time>2011-03-20T13:41:09+01:00</time>
      </trkpt>
      <trkpt lat="43.51004" lon="6.75473">
        <ele>83</ele>
        <time>2011-03-20T13:41:19+01:00</time>
      </trkpt>
      <trkpt lat="43.51003" lon="6.75474">
        <ele>83</ele>
        <time>2011-03-20T13:41:31+01:00</time>
      </trkpt>
      <trkpt lat="43.51003" lon="6.75473">
        <ele>83</ele>
        <time>2011-03-20T13:41:46+01:00</time>
      </trkpt>
      <trkpt lat="43.51003" lon="6.75472">
        <ele>83</ele>
        <time>2011-03-20T13:41:54+01:00</time>
      </trkpt>
      <trkpt lat="43.51002" lon="6.75473">
        <ele>83</ele>
        <time>2011-03-20T13:42:00+01:00</time>
      </trkpt>
      <trkpt lat="43.50999" lon="6.75473">
        <ele>70</ele>
        <time>2011-03-20T13:42:06+01:00</time>
      </trkpt>
      <trkpt lat="43.50997" lon="6.75473">
        <ele>70</ele>
        <time>2011-03-20T13:42:07+01:00</time>
      </trkpt>
      <trkpt lat="43.5098" lon="6.75467">
        <ele>69</ele>
        <time>2011-03-20T13:42:11+01:00</time>
      </trkpt>
      <trkpt lat="43.50967" lon="6.75467">
        <ele>67</ele>
        <time>2011-03-20T13:42:15+01:00</time>
      </trkpt>
      <trkpt lat="43.50958" lon="6.75465">
        <ele>66</ele>
        <time>2011-03-20T13:42:19+01:00</time>
      </trkpt>
      <trkpt lat="43.50955" lon="6.75467">
        <ele>66</ele>
        <time>2011-03-20T13:42:22+01:00</time>
      </trkpt>
      <trkpt lat="43.50952" lon="6.75484">
        <ele>65</ele>
        <time>2011-03-20T13:42:27+01:00</time>
      </trkpt>
      <trkpt lat="43.50943" lon="6.75498">
        <ele>63</ele>
        <time>2011-03-20T13:42:31+01:00</time>
      </trkpt>
      <trkpt lat="43.50938" lon="6.75508">
        <ele>62</ele>
        <time>2011-03-20T13:42:35+01:00</time>
      </trkpt>
      <trkpt lat="43.50927" lon="6.7552">
        <ele>61</ele>
        <time>2011-03-20T13:42:40+01:00</time>
      </trkpt>
      <trkpt lat="43.50925" lon="6.75523">
        <ele>62</ele>
        <time>2011-03-20T13:42:41+01:00</time>
      </trkpt>
      <trkpt lat="43.50914" lon="6.75528">
        <ele>51</ele>
        <time>2011-03-20T13:42:45+01:00</time>
      </trkpt>
      <trkpt lat="43.50908" lon="6.75531">
        <ele>51</ele>
        <time>2011-03-20T13:42:47+01:00</time>
      </trkpt>
      <trkpt lat="43.509" lon="6.75532">
        <ele>51</ele>
        <time>2011-03-20T13:42:50+01:00</time>
      </trkpt>
      <trkpt lat="43.50893" lon="6.75534">
        <ele>50</ele>
        <time>2011-03-20T13:42:55+01:00</time>
      </trkpt>
      <trkpt lat="43.50892" lon="6.75534">
        <ele>50</ele>
        <time>2011-03-20T13:43:02+01:00</time>
      </trkpt>
      <trkpt lat="43.50893" lon="6.75533">
        <ele>50</ele>
        <time>2011-03-20T13:43:15+01:00</time>
      </trkpt>
      <trkpt lat="43.50893" lon="6.75533">
        <ele>50</ele>
        <time>2011-03-20T13:43:17+01:00</time>
      </trkpt>
      <trkpt lat="43.50889" lon="6.75533">
        <ele>50</ele>
        <time>2011-03-20T13:43:19+01:00</time>
      </trkpt>
      <trkpt lat="43.50885" lon="6.75526">
        <ele>49</ele>
        <time>2011-03-20T13:43:23+01:00</time>
      </trkpt>
      <trkpt lat="43.50886" lon="6.75533">
        <ele>50</ele>
        <time>2011-03-20T13:43:44+01:00</time>
      </trkpt>
      <trkpt lat="43.50886" lon="6.75533">
        <ele>50</ele>
        <time>2011-03-20T13:43:53+01:00</time>
      </trkpt>
      <trkpt lat="43.50888" lon="6.75533">
        <ele>50</ele>
        <time>2011-03-20T13:44:05+01:00</time>
      </trkpt>
      <trkpt lat="43.50889" lon="6.75534">
        <ele>50</ele>
        <time>2011-03-20T13:44:09+01:00</time>
      </trkpt>
      <trkpt lat="43.50888" lon="6.75547">
        <ele>50</ele>
        <time>2011-03-20T13:44:13+01:00</time>
      </trkpt>
      <trkpt lat="43.50884" lon="6.75571">
        <ele>50</ele>
        <time>2011-03-20T13:44:18+01:00</time>
      </trkpt>
      <trkpt lat="43.50878" lon="6.75598">
        <ele>50</ele>
        <time>2011-03-20T13:44:23+01:00</time>
      </trkpt>
      <trkpt lat="43.50872" lon="6.75621">
        <ele>50</ele>
        <time>2011-03-20T13:44:28+01:00</time>
      </trkpt>
      <trkpt lat="43.50871" lon="6.75641">
        <ele>49</ele>
        <time>2011-03-20T13:44:32+01:00</time>
      </trkpt>
      <trkpt lat="43.50862" lon="6.75666">
        <ele>49</ele>
        <time>2011-03-20T13:44:38+01:00</time>
      </trkpt>
      <trkpt lat="43.50859" lon="6.75672">
        <ele>47</ele>
        <time>2011-03-20T13:44:42+01:00</time>
      </trkpt>
      <trkpt lat="43.50845" lon="6.75683">
        <ele>46</ele>
        <time>2011-03-20T13:44:47+01:00</time>
      </trkpt>
      <trkpt lat="43.5083" lon="6.75696">
        <ele>54</ele>
        <time>2011-03-20T13:44:52+01:00</time>
      </trkpt>
      <trkpt lat="43.50823" lon="6.75709">
        <ele>55</ele>
        <time>2011-03-20T13:44:56+01:00</time>
      </trkpt>
      <trkpt lat="43.50819" lon="6.75724">
        <ele>54</ele>
        <time>2011-03-20T13:45:00+01:00</time>
      </trkpt>
      <trkpt lat="43.50816" lon="6.7574">
        <ele>53</ele>
        <time>2011-03-20T13:45:05+01:00</time>
      </trkpt>
      <trkpt lat="43.50814" lon="6.75743">
        <ele>53</ele>
        <time>2011-03-20T13:45:10+01:00</time>
      </trkpt>
      <trkpt lat="43.50813" lon="6.75755">
        <ele>57</ele>
        <time>2011-03-20T13:45:14+01:00</time>
      </trkpt>
      <trkpt lat="43.50808" lon="6.75764">
        <ele>60</ele>
        <time>2011-03-20T13:45:19+01:00</time>
      </trkpt>
      <trkpt lat="43.50806" lon="6.75766">
        <ele>61</ele>
        <time>2011-03-20T13:45:20+01:00</time>
      </trkpt>
      <trkpt lat="43.50799" lon="6.75781">
        <ele>65</ele>
        <time>2011-03-20T13:45:25+01:00</time>
      </trkpt>
      <trkpt lat="43.50796" lon="6.75794">
        <ele>66</ele>
        <time>2011-03-20T13:45:29+01:00</time>
      </trkpt>
      <trkpt lat="43.50795" lon="6.75798">
        <ele>66</ele>
        <time>2011-03-20T13:45:30+01:00</time>
      </trkpt>
      <trkpt lat="43.50788" lon="6.75803">
        <ele>68</ele>
        <time>2011-03-20T13:45:35+01:00</time>
      </trkpt>
      <trkpt lat="43.50788" lon="6.75805">
        <ele>68</ele>
        <time>2011-03-20T13:45:40+01:00</time>
      </trkpt>
      <trkpt lat="43.50789" lon="6.75804">
        <ele>68</ele>
        <time>2011-03-20T13:45:48+01:00</time>
      </trkpt>
      <trkpt lat="43.50788" lon="6.75803">
        <ele>68</ele>
        <time>2011-03-20T13:45:49+01:00</time>
      </trkpt>
      <trkpt lat="43.50793" lon="6.75795">
        <ele>67</ele>
        <time>2011-03-20T13:45:52+01:00</time>
      </trkpt>
      <trkpt lat="43.50799" lon="6.75774">
        <ele>64</ele>
        <time>2011-03-20T13:45:56+01:00</time>
      </trkpt>
      <trkpt lat="43.508" lon="6.75771">
        <ele>63</ele>
        <time>2011-03-20T13:45:57+01:00</time>
      </trkpt>
      <trkpt lat="43.50803" lon="6.75757">
        <ele>61</ele>
        <time>2011-03-20T13:46:01+01:00</time>
      </trkpt>
      <trkpt lat="43.50809" lon="6.75753">
        <ele>59</ele>
        <time>2011-03-20T13:46:05+01:00</time>
      </trkpt>
      <trkpt lat="43.50813" lon="6.75741">
        <ele>54</ele>
        <time>2011-03-20T13:46:11+01:00</time>
      </trkpt>
      <trkpt lat="43.50814" lon="6.75736">
        <ele>54</ele>
        <time>2011-03-20T13:46:12+01:00</time>
      </trkpt>
      <trkpt lat="43.50817" lon="6.75714">
        <ele>56</ele>
        <time>2011-03-20T13:46:17+01:00</time>
      </trkpt>
      <trkpt lat="43.50821" lon="6.75696">
        <ele>55</ele>
        <time>2011-03-20T13:46:21+01:00</time>
      </trkpt>
      <trkpt lat="43.5083" lon="6.75688">
        <ele>52</ele>
        <time>2011-03-20T13:46:25+01:00</time>
      </trkpt>
      <trkpt lat="43.50836" lon="6.75681">
        <ele>46</ele>
        <time>2011-03-20T13:46:28+01:00</time>
      </trkpt>
      <trkpt lat="43.50847" lon="6.75674">
        <ele>46</ele>
        <time>2011-03-20T13:46:32+01:00</time>
      </trkpt>
      <trkpt lat="43.5086" lon="6.75663">
        <ele>48</ele>
        <time>2011-03-20T13:46:37+01:00</time>
      </trkpt>
      <trkpt lat="43.50862" lon="6.75659">
        <ele>49</ele>
        <time>2011-03-20T13:46:38+01:00</time>
      </trkpt>
      <trkpt lat="43.50868" lon="6.75641">
        <ele>49</ele>
        <time>2011-03-20T13:46:43+01:00</time>
      </trkpt>
      <trkpt lat="43.50869" lon="6.75622">
        <ele>49</ele>
        <time>2011-03-20T13:46:47+01:00</time>
      </trkpt>
      <trkpt lat="43.50869" lon="6.75615">
        <ele>49</ele>
        <time>2011-03-20T13:46:50+01:00</time>
      </trkpt>
      <trkpt lat="43.5087" lon="6.756">
        <ele>49</ele>
        <time>2011-03-20T13:46:53+01:00</time>
      </trkpt>
      <trkpt lat="43.50876" lon="6.7558">
        <ele>49</ele>
        <time>2011-03-20T13:46:58+01:00</time>
      </trkpt>
      <trkpt lat="43.5088" lon="6.75566">
        <ele>50</ele>
        <time>2011-03-20T13:47:02+01:00</time>
      </trkpt>
      <trkpt lat="43.50883" lon="6.75553">
        <ele>50</ele>
        <time>2011-03-20T13:47:06+01:00</time>
      </trkpt>
      <trkpt lat="43.50884" lon="6.75543">
        <ele>50</ele>
        <time>2011-03-20T13:47:09+01:00</time>
      </trkpt>
      <trkpt lat="43.50882" lon="6.75525">
        <ele>49</ele>
        <time>2011-03-20T13:47:14+01:00</time>
      </trkpt>
      <trkpt lat="43.50878" lon="6.75509">
        <ele>49</ele>
        <time>2011-03-20T13:47:18+01:00</time>
      </trkpt>
      <trkpt lat="43.5087" lon="6.75492">
        <ele>49</ele>
        <time>2011-03-20T13:47:22+01:00</time>
      </trkpt>
      <trkpt lat="43.50865" lon="6.7547">
        <ele>50</ele>
        <time>2011-03-20T13:47:27+01:00</time>
      </trkpt>
      <trkpt lat="43.50857" lon="6.75453">
        <ele>50</ele>
        <time>2011-03-20T13:47:31+01:00</time>
      </trkpt>
      <trkpt lat="43.5085" lon="6.75439">
        <ele>50</ele>
        <time>2011-03-20T13:47:35+01:00</time>
      </trkpt>
      <trkpt lat="43.50839" lon="6.75429">
        <ele>50</ele>
        <time>2011-03-20T13:47:39+01:00</time>
      </trkpt>
      <trkpt lat="43.50824" lon="6.75421">
        <ele>49</ele>
        <time>2011-03-20T13:47:44+01:00</time>
      </trkpt>
      <trkpt lat="43.50811" lon="6.75414">
        <ele>61</ele>
        <time>2011-03-20T13:47:48+01:00</time>
      </trkpt>
      <trkpt lat="43.508" lon="6.75403">
        <ele>65</ele>
        <time>2011-03-20T13:47:52+01:00</time>
      </trkpt>
      <trkpt lat="43.50789" lon="6.75404">
        <ele>66</ele>
        <time>2011-03-20T13:47:57+01:00</time>
      </trkpt>
      <trkpt lat="43.50778" lon="6.75406">
        <ele>65</ele>
        <time>2011-03-20T13:48:01+01:00</time>
      </trkpt>
      <trkpt lat="43.50768" lon="6.75411">
        <ele>64</ele>
        <time>2011-03-20T13:48:05+01:00</time>
      </trkpt>
      <trkpt lat="43.50755" lon="6.75423">
        <ele>54</ele>
        <time>2011-03-20T13:48:10+01:00</time>
      </trkpt>
      <trkpt lat="43.50741" lon="6.75434">
        <ele>54</ele>
        <time>2011-03-20T13:48:14+01:00</time>
      </trkpt>
      <trkpt lat="43.50723" lon="6.75444">
        <ele>53</ele>
        <time>2011-03-20T13:48:18+01:00</time>
      </trkpt>
      <trkpt lat="43.50711" lon="6.75455">
        <ele>52</ele>
        <time>2011-03-20T13:48:21+01:00</time>
      </trkpt>
      <trkpt lat="43.50684" lon="6.7547">
        <ele>51</ele>
        <time>2011-03-20T13:48:28+01:00</time>
      </trkpt>
      <trkpt lat="43.50675" lon="6.75473">
        <ele>50</ele>
        <time>2011-03-20T13:48:30+01:00</time>
      </trkpt>
      <trkpt lat="43.50653" lon="6.75482">
        <ele>51</ele>
        <time>2011-03-20T13:48:35+01:00</time>
      </trkpt>
      <trkpt lat="43.50632" lon="6.75491">
        <ele>52</ele>
        <time>2011-03-20T13:48:40+01:00</time>
      </trkpt>
      <trkpt lat="43.50616" lon="6.75493">
        <ele>53</ele>
        <time>2011-03-20T13:48:44+01:00</time>
      </trkpt>
      <trkpt lat="43.50601" lon="6.75499">
        <ele>51</ele>
        <time>2011-03-20T13:48:48+01:00</time>
      </trkpt>
      <trkpt lat="43.50587" lon="6.75503">
        <ele>46</ele>
        <time>2011-03-20T13:48:51+01:00</time>
      </trkpt>
      <trkpt lat="43.50568" lon="6.75516">
        <ele>48</ele>
        <time>2011-03-20T13:48:56+01:00</time>
      </trkpt>
      <trkpt lat="43.50554" lon="6.75527">
        <ele>48</ele>
        <time>2011-03-20T13:49:00+01:00</time>
      </trkpt>
      <trkpt lat="43.50547" lon="6.75534">
        <ele>48</ele>
        <time>2011-03-20T13:49:02+01:00</time>
      </trkpt>
      <trkpt lat="43.50529" lon="6.7555">
        <ele>47</ele>
        <time>2011-03-20T13:49:08+01:00</time>
      </trkpt>
      <trkpt lat="43.50516" lon="6.75561">
        <ele>46</ele>
        <time>2011-03-20T13:49:12+01:00</time>
      </trkpt>
      <trkpt lat="43.50507" lon="6.75577">
        <ele>44</ele>
        <time>2011-03-20T13:49:16+01:00</time>
      </trkpt>
      <trkpt lat="43.50498" lon="6.75595">
        <ele>43</ele>
        <time>2011-03-20T13:49:20+01:00</time>
      </trkpt>
      <trkpt lat="43.50491" lon="6.7561">
        <ele>42</ele>
        <time>2011-03-20T13:49:24+01:00</time>
      </trkpt>
      <trkpt lat="43.50482" lon="6.75632">
        <ele>42</ele>
        <time>2011-03-20T13:49:29+01:00</time>
      </trkpt>
      <trkpt lat="43.50478" lon="6.75643">
        <ele>42</ele>
        <time>2011-03-20T13:49:32+01:00</time>
      </trkpt>
      <trkpt lat="43.50468" lon="6.75652">
        <ele>42</ele>
        <time>2011-03-20T13:49:36+01:00</time>
      </trkpt>
      <trkpt lat="43.50462" lon="6.75655">
        <ele>42</ele>
        <time>2011-03-20T13:49:39+01:00</time>
      </trkpt>
      <trkpt lat="43.50459" lon="6.75656">
        <ele>42</ele>
        <time>2011-03-20T13:49:41+01:00</time>
      </trkpt>
      <trkpt lat="43.50457" lon="6.75657">
        <ele>42</ele>
        <time>2011-03-20T13:49:44+01:00</time>
      </trkpt>
    </trkseg>
  </trk>
</gpx>